<?xml version="1.0" encoding="UTF-8" standalone="no" ?>
<gpx xmlns="http://www.topografix.com/GPX/1/1" xmlns:xsi="http://www.w3.org/2001/XMLSchema-instance" xsi:schemaLocation="http://www.topografix.com/GPX/1/1 http://www.topografix.com/GPX/1/1/gpx.xsd" version="1.1" creator="VisuGPX - https://www.visugpx.com">
  <metadata>
    <name>David parcours_ZZ-015-VAR1</name>
    <desc><![CDATA[Medio dia muy completo con tres bajadas excelentes. Los senderos son endureros y de gran calidad, con travesias a ladera al principio y luego bajadas con curvas enlazadas y zonas fotogénicas en Espierlo, Sives y Seso (medio deshabitados). Si te gusta ver lugares mágicos visita Silves Bajo (abandonado) y llega hasta Casa Peña, edificada al borde de un acantilado.
El río Ara saliendo del cañón de Jánovas y el Pirineo al fondo, nos proporcionan el marco ideal.]]></desc>
  </metadata>
  <trk>
    <name><![CDATA[VAR ZZ015 n1 Sierra Ferrera Trilogia]]></name>
    <desc><![CDATA[Medio dia muy completo con tres bajadas excelentes. Los senderos son endureros y de gran calidad, con travesias a ladera al principio y luego bajadas con curvas enlazadas y zonas fotogénicas en Espierlo, Sives y Seso (medio deshabitados). Si te gusta ver lugares mágicos visita Silves Bajo (abandonado) y llega hasta Casa Peña, edificada al borde de un acantilado.
El río Ara saliendo del cañón de Jánovas y el Pirineo al fondo, nos proporcionan el marco ideal.]]></desc>
    <extensions>
      <line xmlns="http://www.topografix.com/GPX/gpx_style/0/2">
        <width>4</width>
      </line>
    </extensions>
    <trkseg>
      <trkpt lat="42.44417" lon="0.06686">
        <ele>605.3</ele>
        <time>2010-04-09T08:16:32.000Z</time>
      </trkpt>
      <trkpt lat="42.44436" lon="0.06651">
        <ele>604.8</ele>
        <time>2010-04-09T08:16:43.000Z</time>
      </trkpt>
      <trkpt lat="42.44461" lon="0.06611">
        <ele>603.8</ele>
        <time>2010-04-09T08:16:55.000Z</time>
      </trkpt>
      <trkpt lat="42.44488" lon="0.06566">
        <ele>603.4</ele>
        <time>2010-04-09T08:17:09.000Z</time>
      </trkpt>
      <trkpt lat="42.44513" lon="0.06525">
        <ele>603.4</ele>
        <time>2010-04-09T08:17:21.000Z</time>
      </trkpt>
      <trkpt lat="42.44549" lon="0.06475">
        <ele>602.9</ele>
        <time>2010-04-09T08:17:37.000Z</time>
      </trkpt>
      <trkpt lat="42.44574" lon="0.06433">
        <ele>602.9</ele>
        <time>2010-04-09T08:17:50.000Z</time>
      </trkpt>
      <trkpt lat="42.44597" lon="0.06401">
        <ele>603.8</ele>
        <time>2010-04-09T08:18:01.000Z</time>
      </trkpt>
      <trkpt lat="42.44617" lon="0.06371">
        <ele>604.3</ele>
        <time>2010-04-09T08:18:11.000Z</time>
      </trkpt>
      <trkpt lat="42.4464" lon="0.06335">
        <ele>605.3</ele>
        <time>2010-04-09T08:18:24.000Z</time>
      </trkpt>
      <trkpt lat="42.44663" lon="0.06302">
        <ele>606.2</ele>
        <time>2010-04-09T08:18:37.000Z</time>
      </trkpt>
      <trkpt lat="42.44678" lon="0.06273">
        <ele>606.7</ele>
        <time>2010-04-09T08:18:47.000Z</time>
      </trkpt>
      <trkpt lat="42.44703" lon="0.06236">
        <ele>607.2</ele>
        <time>2010-04-09T08:19:01.000Z</time>
      </trkpt>
      <trkpt lat="42.44721" lon="0.06206">
        <ele>608.2</ele>
        <time>2010-04-09T08:19:13.000Z</time>
      </trkpt>
      <trkpt lat="42.4474" lon="0.06176">
        <ele>608.7</ele>
        <time>2010-04-09T08:19:25.000Z</time>
      </trkpt>
      <trkpt lat="42.44763" lon="0.06139">
        <ele>609.6</ele>
        <time>2010-04-09T08:19:39.000Z</time>
      </trkpt>
      <trkpt lat="42.44787" lon="0.061">
        <ele>609.6</ele>
        <time>2010-04-09T08:19:53.000Z</time>
      </trkpt>
      <trkpt lat="42.44805" lon="0.06072">
        <ele>610.1</ele>
        <time>2010-04-09T08:20:04.000Z</time>
      </trkpt>
      <trkpt lat="42.44823" lon="0.06043">
        <ele>610.1</ele>
        <time>2010-04-09T08:20:14.000Z</time>
      </trkpt>
      <trkpt lat="42.44846" lon="0.06009">
        <ele>610.6</ele>
        <time>2010-04-09T08:20:26.000Z</time>
      </trkpt>
      <trkpt lat="42.4488" lon="0.0596">
        <ele>610.6</ele>
        <time>2010-04-09T08:20:43.000Z</time>
      </trkpt>
      <trkpt lat="42.44906" lon="0.0592">
        <ele>610.6</ele>
        <time>2010-04-09T08:20:57.000Z</time>
      </trkpt>
      <trkpt lat="42.44931" lon="0.05875">
        <ele>611.1</ele>
        <time>2010-04-09T08:21:11.000Z</time>
      </trkpt>
      <trkpt lat="42.44957" lon="0.05841">
        <ele>611.1</ele>
        <time>2010-04-09T08:21:23.000Z</time>
      </trkpt>
      <trkpt lat="42.44977" lon="0.05801">
        <ele>611.1</ele>
        <time>2010-04-09T08:21:35.000Z</time>
      </trkpt>
      <trkpt lat="42.45004" lon="0.05771">
        <ele>611.5</ele>
        <time>2010-04-09T08:21:47.000Z</time>
      </trkpt>
      <trkpt lat="42.45025" lon="0.05742">
        <ele>613</ele>
        <time>2010-04-09T08:21:58.000Z</time>
      </trkpt>
      <trkpt lat="42.45014" lon="0.05704">
        <ele>613.5</ele>
        <time>2010-04-09T08:22:07.000Z</time>
      </trkpt>
      <trkpt lat="42.45" lon="0.05661">
        <ele>613</ele>
        <time>2010-04-09T08:22:18.000Z</time>
      </trkpt>
      <trkpt lat="42.4499" lon="0.05616">
        <ele>613.5</ele>
        <time>2010-04-09T08:22:30.000Z</time>
      </trkpt>
      <trkpt lat="42.44974" lon="0.05591">
        <ele>615.4</ele>
        <time>2010-04-09T08:22:42.000Z</time>
      </trkpt>
      <trkpt lat="42.44954" lon="0.05584">
        <ele>616.8</ele>
        <time>2010-04-09T08:22:52.000Z</time>
      </trkpt>
      <trkpt lat="42.44928" lon="0.05583">
        <ele>618.3</ele>
        <time>2010-04-09T08:23:03.000Z</time>
      </trkpt>
      <trkpt lat="42.44902" lon="0.0559">
        <ele>620.7</ele>
        <time>2010-04-09T08:23:17.000Z</time>
      </trkpt>
      <trkpt lat="42.44885" lon="0.056">
        <ele>622.1</ele>
        <time>2010-04-09T08:23:27.000Z</time>
      </trkpt>
      <trkpt lat="42.44859" lon="0.05626">
        <ele>624</ele>
        <time>2010-04-09T08:23:42.000Z</time>
      </trkpt>
      <trkpt lat="42.44837" lon="0.05654">
        <ele>626</ele>
        <time>2010-04-09T08:23:55.000Z</time>
      </trkpt>
      <trkpt lat="42.44809" lon="0.05679">
        <ele>626.4</ele>
        <time>2010-04-09T08:24:08.000Z</time>
      </trkpt>
      <trkpt lat="42.44786" lon="0.05676">
        <ele>627.4</ele>
        <time>2010-04-09T08:24:18.000Z</time>
      </trkpt>
      <trkpt lat="42.44774" lon="0.05643">
        <ele>626.9</ele>
        <time>2010-04-09T08:24:29.000Z</time>
      </trkpt>
      <trkpt lat="42.44765" lon="0.05604">
        <ele>626.9</ele>
        <time>2010-04-09T08:24:40.000Z</time>
      </trkpt>
      <trkpt lat="42.44743" lon="0.05573">
        <ele>627.9</ele>
        <time>2010-04-09T08:24:52.000Z</time>
      </trkpt>
      <trkpt lat="42.44723" lon="0.05546">
        <ele>630.3</ele>
        <time>2010-04-09T08:25:06.000Z</time>
      </trkpt>
      <trkpt lat="42.44707" lon="0.05521">
        <ele>631.7</ele>
        <time>2010-04-09T08:25:18.000Z</time>
      </trkpt>
      <trkpt lat="42.447" lon="0.05502">
        <ele>633.2</ele>
        <time>2010-04-09T08:25:27.000Z</time>
      </trkpt>
      <trkpt lat="42.44691" lon="0.05477">
        <ele>635.1</ele>
        <time>2010-04-09T08:25:37.000Z</time>
      </trkpt>
      <trkpt lat="42.44678" lon="0.05445">
        <ele>637</ele>
        <time>2010-04-09T08:25:50.000Z</time>
      </trkpt>
      <trkpt lat="42.4467" lon="0.05412">
        <ele>638.9</ele>
        <time>2010-04-09T08:26:02.000Z</time>
      </trkpt>
      <trkpt lat="42.44667" lon="0.05382">
        <ele>641.3</ele>
        <time>2010-04-09T08:26:14.000Z</time>
      </trkpt>
      <trkpt lat="42.44667" lon="0.05359">
        <ele>642.8</ele>
        <time>2010-04-09T08:26:23.000Z</time>
      </trkpt>
      <trkpt lat="42.44667" lon="0.05342">
        <ele>644.2</ele>
        <time>2010-04-09T08:26:29.000Z</time>
      </trkpt>
      <trkpt lat="42.44666" lon="0.05315">
        <ele>645.7</ele>
        <time>2010-04-09T08:26:39.000Z</time>
      </trkpt>
      <trkpt lat="42.44668" lon="0.05287">
        <ele>647.6</ele>
        <time>2010-04-09T08:26:50.000Z</time>
      </trkpt>
      <trkpt lat="42.44667" lon="0.0526">
        <ele>649.5</ele>
        <time>2010-04-09T08:27:00.000Z</time>
      </trkpt>
      <trkpt lat="42.44667" lon="0.05233">
        <ele>650.9</ele>
        <time>2010-04-09T08:27:09.000Z</time>
      </trkpt>
      <trkpt lat="42.44669" lon="0.05207">
        <ele>652.4</ele>
        <time>2010-04-09T08:27:19.000Z</time>
      </trkpt>
      <trkpt lat="42.4468" lon="0.05164">
        <ele>655.3</ele>
        <time>2010-04-09T08:27:35.000Z</time>
      </trkpt>
      <trkpt lat="42.44683" lon="0.05124">
        <ele>657.7</ele>
        <time>2010-04-09T08:27:48.000Z</time>
      </trkpt>
      <trkpt lat="42.44686" lon="0.05101">
        <ele>659.1</ele>
        <time>2010-04-09T08:27:57.000Z</time>
      </trkpt>
      <trkpt lat="42.44697" lon="0.05075">
        <ele>661</ele>
        <time>2010-04-09T08:28:08.000Z</time>
      </trkpt>
      <trkpt lat="42.44715" lon="0.05047">
        <ele>663.4</ele>
        <time>2010-04-09T08:28:21.000Z</time>
      </trkpt>
      <trkpt lat="42.44726" lon="0.0501">
        <ele>665.4</ele>
        <time>2010-04-09T08:28:35.000Z</time>
      </trkpt>
      <trkpt lat="42.44722" lon="0.04983">
        <ele>666.3</ele>
        <time>2010-04-09T08:28:45.000Z</time>
      </trkpt>
      <trkpt lat="42.44718" lon="0.04967">
        <ele>666.3</ele>
        <time>2010-04-09T08:28:51.000Z</time>
      </trkpt>
      <trkpt lat="42.44704" lon="0.04953">
        <ele>666.3</ele>
        <time>2010-04-09T08:28:59.000Z</time>
      </trkpt>
      <trkpt lat="42.44671" lon="0.04943">
        <ele>666.3</ele>
        <time>2010-04-09T08:29:12.000Z</time>
      </trkpt>
      <trkpt lat="42.44631" lon="0.04926">
        <ele>666.8</ele>
        <time>2010-04-09T08:29:27.000Z</time>
      </trkpt>
      <trkpt lat="42.44607" lon="0.04897">
        <ele>666.8</ele>
        <time>2010-04-09T08:29:39.000Z</time>
      </trkpt>
      <trkpt lat="42.44601" lon="0.04857">
        <ele>667.3</ele>
        <time>2010-04-09T08:29:50.000Z</time>
      </trkpt>
      <trkpt lat="42.44608" lon="0.04817">
        <ele>667.3</ele>
        <time>2010-04-09T08:30:00.000Z</time>
      </trkpt>
      <trkpt lat="42.44615" lon="0.04761">
        <ele>667.3</ele>
        <time>2010-04-09T08:30:13.000Z</time>
      </trkpt>
      <trkpt lat="42.44611" lon="0.0471">
        <ele>668.3</ele>
        <time>2010-04-09T08:30:26.000Z</time>
      </trkpt>
      <trkpt lat="42.44587" lon="0.04692">
        <ele>668.3</ele>
        <time>2010-04-09T08:30:36.000Z</time>
      </trkpt>
      <trkpt lat="42.44556" lon="0.04686">
        <ele>668.7</ele>
        <time>2010-04-09T08:30:47.000Z</time>
      </trkpt>
      <trkpt lat="42.44508" lon="0.04673">
        <ele>668.7</ele>
        <time>2010-04-09T08:31:03.000Z</time>
      </trkpt>
      <trkpt lat="42.44473" lon="0.04664">
        <ele>671.1</ele>
        <time>2010-04-09T08:31:16.000Z</time>
      </trkpt>
      <trkpt lat="42.44444" lon="0.0466">
        <ele>673.5</ele>
        <time>2010-04-09T08:31:27.000Z</time>
      </trkpt>
      <trkpt lat="42.44436" lon="0.0466">
        <ele>673.5</ele>
        <time>2010-04-09T08:31:35.000Z</time>
      </trkpt>
      <trkpt lat="42.44422" lon="0.04663">
        <ele>674.5</ele>
        <time>2010-04-09T08:34:16.000Z</time>
      </trkpt>
      <trkpt lat="42.44411" lon="0.04665">
        <ele>675.5</ele>
        <time>2010-04-09T08:34:26.000Z</time>
      </trkpt>
      <trkpt lat="42.44389" lon="0.04662">
        <ele>676.9</ele>
        <time>2010-04-09T08:34:39.000Z</time>
      </trkpt>
      <trkpt lat="42.44368" lon="0.04652">
        <ele>678.8</ele>
        <time>2010-04-09T08:34:52.000Z</time>
      </trkpt>
      <trkpt lat="42.44352" lon="0.04643">
        <ele>680.8</ele>
        <time>2010-04-09T08:35:02.000Z</time>
      </trkpt>
      <trkpt lat="42.44329" lon="0.04636">
        <ele>683.2</ele>
        <time>2010-04-09T08:35:14.000Z</time>
      </trkpt>
      <trkpt lat="42.44306" lon="0.0463">
        <ele>685.1</ele>
        <time>2010-04-09T08:35:27.000Z</time>
      </trkpt>
      <trkpt lat="42.44289" lon="0.04626">
        <ele>686.5</ele>
        <time>2010-04-09T08:35:37.000Z</time>
      </trkpt>
      <trkpt lat="42.44265" lon="0.0462">
        <ele>688.9</ele>
        <time>2010-04-09T08:35:51.000Z</time>
      </trkpt>
      <trkpt lat="42.44241" lon="0.0461">
        <ele>691.3</ele>
        <time>2010-04-09T08:36:05.000Z</time>
      </trkpt>
      <trkpt lat="42.44215" lon="0.04602">
        <ele>693.2</ele>
        <time>2010-04-09T08:36:19.000Z</time>
      </trkpt>
      <trkpt lat="42.44187" lon="0.046">
        <ele>695.7</ele>
        <time>2010-04-09T08:36:34.000Z</time>
      </trkpt>
      <trkpt lat="42.44175" lon="0.04606">
        <ele>696.6</ele>
        <time>2010-04-09T08:36:41.000Z</time>
      </trkpt>
      <trkpt lat="42.44157" lon="0.04621">
        <ele>699</ele>
        <time>2010-04-09T08:36:54.000Z</time>
      </trkpt>
      <trkpt lat="42.44132" lon="0.04625">
        <ele>701.4</ele>
        <time>2010-04-09T08:37:07.000Z</time>
      </trkpt>
      <trkpt lat="42.44109" lon="0.04619">
        <ele>703.3</ele>
        <time>2010-04-09T08:37:20.000Z</time>
      </trkpt>
      <trkpt lat="42.44081" lon="0.04606">
        <ele>706.2</ele>
        <time>2010-04-09T08:37:35.000Z</time>
      </trkpt>
      <trkpt lat="42.44062" lon="0.046">
        <ele>707.7</ele>
        <time>2010-04-09T08:37:45.000Z</time>
      </trkpt>
      <trkpt lat="42.44037" lon="0.04588">
        <ele>710.6</ele>
        <time>2010-04-09T08:37:59.000Z</time>
      </trkpt>
      <trkpt lat="42.44015" lon="0.04573">
        <ele>713.4</ele>
        <time>2010-04-09T08:38:14.000Z</time>
      </trkpt>
      <trkpt lat="42.44011" lon="0.04567">
        <ele>714.4</ele>
        <time>2010-04-09T08:38:17.000Z</time>
      </trkpt>
      <trkpt lat="42.44006" lon="0.04536">
        <ele>715.8</ele>
        <time>2010-04-09T08:38:29.000Z</time>
      </trkpt>
      <trkpt lat="42.44016" lon="0.0451">
        <ele>717.3</ele>
        <time>2010-04-09T08:38:40.000Z</time>
      </trkpt>
      <trkpt lat="42.44038" lon="0.04505">
        <ele>718.2</ele>
        <time>2010-04-09T08:38:50.000Z</time>
      </trkpt>
      <trkpt lat="42.44059" lon="0.04516">
        <ele>720.6</ele>
        <time>2010-04-09T08:39:02.000Z</time>
      </trkpt>
      <trkpt lat="42.44085" lon="0.04522">
        <ele>722.6</ele>
        <time>2010-04-09T08:39:15.000Z</time>
      </trkpt>
      <trkpt lat="42.44109" lon="0.04517">
        <ele>724.5</ele>
        <time>2010-04-09T08:39:27.000Z</time>
      </trkpt>
      <trkpt lat="42.44132" lon="0.04509">
        <ele>726.4</ele>
        <time>2010-04-09T08:39:39.000Z</time>
      </trkpt>
      <trkpt lat="42.44155" lon="0.04503">
        <ele>728.8</ele>
        <time>2010-04-09T08:39:52.000Z</time>
      </trkpt>
      <trkpt lat="42.44184" lon="0.04495">
        <ele>731.2</ele>
        <time>2010-04-09T08:40:07.000Z</time>
      </trkpt>
      <trkpt lat="42.44217" lon="0.04484">
        <ele>734.1</ele>
        <time>2010-04-09T08:40:24.000Z</time>
      </trkpt>
      <trkpt lat="42.4424" lon="0.04477">
        <ele>736</ele>
        <time>2010-04-09T08:40:36.000Z</time>
      </trkpt>
      <trkpt lat="42.44261" lon="0.04474">
        <ele>737.9</ele>
        <time>2010-04-09T08:40:48.000Z</time>
      </trkpt>
      <trkpt lat="42.44284" lon="0.04477">
        <ele>740.4</ele>
        <time>2010-04-09T08:41:02.000Z</time>
      </trkpt>
      <trkpt lat="42.44307" lon="0.04478">
        <ele>742.3</ele>
        <time>2010-04-09T08:41:14.000Z</time>
      </trkpt>
      <trkpt lat="42.44334" lon="0.04473">
        <ele>744.7</ele>
        <time>2010-04-09T08:41:27.000Z</time>
      </trkpt>
      <trkpt lat="42.44357" lon="0.04468">
        <ele>746.1</ele>
        <time>2010-04-09T08:41:38.000Z</time>
      </trkpt>
      <trkpt lat="42.4438" lon="0.04466">
        <ele>747.6</ele>
        <time>2010-04-09T08:41:49.000Z</time>
      </trkpt>
      <trkpt lat="42.44384" lon="0.04464">
        <ele>749</ele>
        <time>2010-04-09T08:41:51.000Z</time>
      </trkpt>
      <trkpt lat="42.44408" lon="0.04466">
        <ele>750.4</ele>
        <time>2010-04-09T08:42:02.000Z</time>
      </trkpt>
      <trkpt lat="42.44433" lon="0.04461">
        <ele>752.4</ele>
        <time>2010-04-09T08:42:14.000Z</time>
      </trkpt>
      <trkpt lat="42.44449" lon="0.04443">
        <ele>753.8</ele>
        <time>2010-04-09T08:42:25.000Z</time>
      </trkpt>
      <trkpt lat="42.44445" lon="0.0441">
        <ele>755.7</ele>
        <time>2010-04-09T08:42:38.000Z</time>
      </trkpt>
      <trkpt lat="42.44427" lon="0.04397">
        <ele>757.7</ele>
        <time>2010-04-09T08:42:49.000Z</time>
      </trkpt>
      <trkpt lat="42.44403" lon="0.04407">
        <ele>759.1</ele>
        <time>2010-04-09T08:43:02.000Z</time>
      </trkpt>
      <trkpt lat="42.4439" lon="0.04422">
        <ele>760.1</ele>
        <time>2010-04-09T08:43:11.000Z</time>
      </trkpt>
      <trkpt lat="42.44382" lon="0.04425">
        <ele>761</ele>
        <time>2010-04-09T08:43:20.000Z</time>
      </trkpt>
      <trkpt lat="42.44382" lon="0.04425">
        <ele>761</ele>
        <time>2010-04-09T08:43:21.000Z</time>
      </trkpt>
      <trkpt lat="42.44375" lon="0.04424">
        <ele>760.5</ele>
        <time>2010-04-09T08:43:25.000Z</time>
      </trkpt>
      <trkpt lat="42.44349" lon="0.0442">
        <ele>762</ele>
        <time>2010-04-09T08:43:36.000Z</time>
      </trkpt>
      <trkpt lat="42.44326" lon="0.04416">
        <ele>763.9</ele>
        <time>2010-04-09T08:43:47.000Z</time>
      </trkpt>
      <trkpt lat="42.44304" lon="0.04408">
        <ele>765.8</ele>
        <time>2010-04-09T08:43:59.000Z</time>
      </trkpt>
      <trkpt lat="42.44278" lon="0.04401">
        <ele>767.8</ele>
        <time>2010-04-09T08:44:12.000Z</time>
      </trkpt>
      <trkpt lat="42.44253" lon="0.04394">
        <ele>770.2</ele>
        <time>2010-04-09T08:44:25.000Z</time>
      </trkpt>
      <trkpt lat="42.4423" lon="0.04387">
        <ele>772.1</ele>
        <time>2010-04-09T08:44:37.000Z</time>
      </trkpt>
      <trkpt lat="42.44205" lon="0.04378">
        <ele>774</ele>
        <time>2010-04-09T08:44:50.000Z</time>
      </trkpt>
      <trkpt lat="42.44176" lon="0.0437">
        <ele>776.4</ele>
        <time>2010-04-09T08:45:05.000Z</time>
      </trkpt>
      <trkpt lat="42.44153" lon="0.04359">
        <ele>778.8</ele>
        <time>2010-04-09T08:45:17.000Z</time>
      </trkpt>
      <trkpt lat="42.44125" lon="0.04349">
        <ele>781.2</ele>
        <time>2010-04-09T08:45:31.000Z</time>
      </trkpt>
      <trkpt lat="42.44095" lon="0.04336">
        <ele>783.6</ele>
        <time>2010-04-09T08:45:46.000Z</time>
      </trkpt>
      <trkpt lat="42.44073" lon="0.04329">
        <ele>785.5</ele>
        <time>2010-04-09T08:45:57.000Z</time>
      </trkpt>
      <trkpt lat="42.44046" lon="0.04321">
        <ele>787.5</ele>
        <time>2010-04-09T08:46:10.000Z</time>
      </trkpt>
      <trkpt lat="42.44022" lon="0.04305">
        <ele>789.9</ele>
        <time>2010-04-09T08:46:23.000Z</time>
      </trkpt>
      <trkpt lat="42.44" lon="0.04288">
        <ele>792.3</ele>
        <time>2010-04-09T08:46:35.000Z</time>
      </trkpt>
      <trkpt lat="42.43977" lon="0.04267">
        <ele>794.2</ele>
        <time>2010-04-09T08:46:48.000Z</time>
      </trkpt>
      <trkpt lat="42.43953" lon="0.04245">
        <ele>796.6</ele>
        <time>2010-04-09T08:47:02.000Z</time>
      </trkpt>
      <trkpt lat="42.43931" lon="0.04227">
        <ele>799</ele>
        <time>2010-04-09T08:47:14.000Z</time>
      </trkpt>
      <trkpt lat="42.43907" lon="0.04208">
        <ele>800.9</ele>
        <time>2010-04-09T08:47:27.000Z</time>
      </trkpt>
      <trkpt lat="42.43882" lon="0.04187">
        <ele>803.3</ele>
        <time>2010-04-09T08:47:41.000Z</time>
      </trkpt>
      <trkpt lat="42.4386" lon="0.04167">
        <ele>805.7</ele>
        <time>2010-04-09T08:47:53.000Z</time>
      </trkpt>
      <trkpt lat="42.43834" lon="0.04155">
        <ele>808.1</ele>
        <time>2010-04-09T08:48:06.000Z</time>
      </trkpt>
      <trkpt lat="42.43809" lon="0.04143">
        <ele>810.5</ele>
        <time>2010-04-09T08:48:19.000Z</time>
      </trkpt>
      <trkpt lat="42.43792" lon="0.04107">
        <ele>812.5</ele>
        <time>2010-04-09T08:48:32.000Z</time>
      </trkpt>
      <trkpt lat="42.43768" lon="0.04076">
        <ele>815.3</ele>
        <time>2010-04-09T08:48:48.000Z</time>
      </trkpt>
      <trkpt lat="42.43745" lon="0.04058">
        <ele>818.2</ele>
        <time>2010-04-09T08:49:00.000Z</time>
      </trkpt>
      <trkpt lat="42.43725" lon="0.04029">
        <ele>821.1</ele>
        <time>2010-04-09T08:49:14.000Z</time>
      </trkpt>
      <trkpt lat="42.4371" lon="0.03993">
        <ele>824</ele>
        <time>2010-04-09T08:49:28.000Z</time>
      </trkpt>
      <trkpt lat="42.4369" lon="0.03973">
        <ele>825.9</ele>
        <time>2010-04-09T08:49:40.000Z</time>
      </trkpt>
      <trkpt lat="42.43665" lon="0.03954">
        <ele>828.8</ele>
        <time>2010-04-09T08:49:53.000Z</time>
      </trkpt>
      <trkpt lat="42.43649" lon="0.03923">
        <ele>831.2</ele>
        <time>2010-04-09T08:50:06.000Z</time>
      </trkpt>
      <trkpt lat="42.4364" lon="0.03892">
        <ele>833.6</ele>
        <time>2010-04-09T08:50:17.000Z</time>
      </trkpt>
      <trkpt lat="42.43632" lon="0.03859">
        <ele>836.5</ele>
        <time>2010-04-09T08:50:29.000Z</time>
      </trkpt>
      <trkpt lat="42.43633" lon="0.03819">
        <ele>838.9</ele>
        <time>2010-04-09T08:50:42.000Z</time>
      </trkpt>
      <trkpt lat="42.43622" lon="0.03791">
        <ele>840.8</ele>
        <time>2010-04-09T08:50:53.000Z</time>
      </trkpt>
      <trkpt lat="42.43601" lon="0.03765">
        <ele>843.7</ele>
        <time>2010-04-09T08:51:06.000Z</time>
      </trkpt>
      <trkpt lat="42.43584" lon="0.03734">
        <ele>846.1</ele>
        <time>2010-04-09T08:51:18.000Z</time>
      </trkpt>
      <trkpt lat="42.43574" lon="0.03705">
        <ele>848.5</ele>
        <time>2010-04-09T08:51:29.000Z</time>
      </trkpt>
      <trkpt lat="42.43575" lon="0.03676">
        <ele>850.9</ele>
        <time>2010-04-09T08:51:40.000Z</time>
      </trkpt>
      <trkpt lat="42.43585" lon="0.03657">
        <ele>852.3</ele>
        <time>2010-04-09T08:51:47.000Z</time>
      </trkpt>
      <trkpt lat="42.43589" lon="0.0364">
        <ele>853.3</ele>
        <time>2010-04-09T08:51:53.000Z</time>
      </trkpt>
      <trkpt lat="42.43595" lon="0.03615">
        <ele>855.7</ele>
        <time>2010-04-09T08:52:03.000Z</time>
      </trkpt>
      <trkpt lat="42.43585" lon="0.03583">
        <ele>857.6</ele>
        <time>2010-04-09T08:52:14.000Z</time>
      </trkpt>
      <trkpt lat="42.43567" lon="0.03564">
        <ele>859.6</ele>
        <time>2010-04-09T08:52:25.000Z</time>
      </trkpt>
      <trkpt lat="42.43539" lon="0.03539">
        <ele>861.5</ele>
        <time>2010-04-09T08:52:38.000Z</time>
      </trkpt>
      <trkpt lat="42.43523" lon="0.03508">
        <ele>863.4</ele>
        <time>2010-04-09T08:52:49.000Z</time>
      </trkpt>
      <trkpt lat="42.43514" lon="0.03478">
        <ele>864.8</ele>
        <time>2010-04-09T08:52:59.000Z</time>
      </trkpt>
      <trkpt lat="42.435" lon="0.03444">
        <ele>866.8</ele>
        <time>2010-04-09T08:53:11.000Z</time>
      </trkpt>
      <trkpt lat="42.43489" lon="0.03411">
        <ele>868.2</ele>
        <time>2010-04-09T08:53:22.000Z</time>
      </trkpt>
      <trkpt lat="42.43479" lon="0.03373">
        <ele>870.6</ele>
        <time>2010-04-09T08:53:36.000Z</time>
      </trkpt>
      <trkpt lat="42.43472" lon="0.03335">
        <ele>873</ele>
        <time>2010-04-09T08:53:50.000Z</time>
      </trkpt>
      <trkpt lat="42.43475" lon="0.03307">
        <ele>874.9</ele>
        <time>2010-04-09T08:54:01.000Z</time>
      </trkpt>
      <trkpt lat="42.43486" lon="0.03276">
        <ele>877.3</ele>
        <time>2010-04-09T08:54:13.000Z</time>
      </trkpt>
      <trkpt lat="42.43503" lon="0.03245">
        <ele>879.3</ele>
        <time>2010-04-09T08:54:26.000Z</time>
      </trkpt>
      <trkpt lat="42.43507" lon="0.03214">
        <ele>881.7</ele>
        <time>2010-04-09T08:54:40.000Z</time>
      </trkpt>
      <trkpt lat="42.43497" lon="0.03197">
        <ele>883.1</ele>
        <time>2010-04-09T08:54:48.000Z</time>
      </trkpt>
      <trkpt lat="42.43474" lon="0.03187">
        <ele>885.5</ele>
        <time>2010-04-09T08:55:01.000Z</time>
      </trkpt>
      <trkpt lat="42.43464" lon="0.03184">
        <ele>886</ele>
        <time>2010-04-09T08:55:06.000Z</time>
      </trkpt>
      <trkpt lat="42.43445" lon="0.03164">
        <ele>888.9</ele>
        <time>2010-04-09T08:55:18.000Z</time>
      </trkpt>
      <trkpt lat="42.43442" lon="0.03136">
        <ele>890.3</ele>
        <time>2010-04-09T08:55:28.000Z</time>
      </trkpt>
      <trkpt lat="42.43438" lon="0.03107">
        <ele>892.7</ele>
        <time>2010-04-09T08:55:38.000Z</time>
      </trkpt>
      <trkpt lat="42.43425" lon="0.03079">
        <ele>894.2</ele>
        <time>2010-04-09T08:55:49.000Z</time>
      </trkpt>
      <trkpt lat="42.43409" lon="0.03049">
        <ele>896.6</ele>
        <time>2010-04-09T08:56:02.000Z</time>
      </trkpt>
      <trkpt lat="42.43396" lon="0.03018">
        <ele>899</ele>
        <time>2010-04-09T08:56:14.000Z</time>
      </trkpt>
      <trkpt lat="42.4338" lon="0.02987">
        <ele>901.4</ele>
        <time>2010-04-09T08:56:28.000Z</time>
      </trkpt>
      <trkpt lat="42.43371" lon="0.02958">
        <ele>903.8</ele>
        <time>2010-04-09T08:56:39.000Z</time>
      </trkpt>
      <trkpt lat="42.43369" lon="0.02919">
        <ele>905.7</ele>
        <time>2010-04-09T08:56:51.000Z</time>
      </trkpt>
      <trkpt lat="42.43373" lon="0.02883">
        <ele>907.1</ele>
        <time>2010-04-09T08:57:02.000Z</time>
      </trkpt>
      <trkpt lat="42.43377" lon="0.02846">
        <ele>909.1</ele>
        <time>2010-04-09T08:57:13.000Z</time>
      </trkpt>
      <trkpt lat="42.43385" lon="0.0281">
        <ele>911</ele>
        <time>2010-04-09T08:57:24.000Z</time>
      </trkpt>
      <trkpt lat="42.43385" lon="0.02779">
        <ele>911.9</ele>
        <time>2010-04-09T08:57:34.000Z</time>
      </trkpt>
      <trkpt lat="42.43377" lon="0.02758">
        <ele>913.4</ele>
        <time>2010-04-09T08:57:43.000Z</time>
      </trkpt>
      <trkpt lat="42.43356" lon="0.02747">
        <ele>915.3</ele>
        <time>2010-04-09T08:57:56.000Z</time>
      </trkpt>
      <trkpt lat="42.43329" lon="0.02749">
        <ele>917.7</ele>
        <time>2010-04-09T08:58:09.000Z</time>
      </trkpt>
      <trkpt lat="42.43308" lon="0.02752">
        <ele>919.6</ele>
        <time>2010-04-09T08:58:20.000Z</time>
      </trkpt>
      <trkpt lat="42.43287" lon="0.02746">
        <ele>922</ele>
        <time>2010-04-09T08:58:32.000Z</time>
      </trkpt>
      <trkpt lat="42.4327" lon="0.02721">
        <ele>924</ele>
        <time>2010-04-09T08:58:45.000Z</time>
      </trkpt>
      <trkpt lat="42.43257" lon="0.02699">
        <ele>925.9</ele>
        <time>2010-04-09T08:58:56.000Z</time>
      </trkpt>
      <trkpt lat="42.43243" lon="0.02676">
        <ele>927.3</ele>
        <time>2010-04-09T08:59:07.000Z</time>
      </trkpt>
      <trkpt lat="42.4323" lon="0.02654">
        <ele>929.7</ele>
        <time>2010-04-09T08:59:19.000Z</time>
      </trkpt>
      <trkpt lat="42.43229" lon="0.02652">
        <ele>930.2</ele>
        <time>2010-04-09T08:59:20.000Z</time>
      </trkpt>
      <trkpt lat="42.43218" lon="0.02635">
        <ele>931.2</ele>
        <time>2010-04-09T08:59:29.000Z</time>
      </trkpt>
      <trkpt lat="42.43208" lon="0.02626">
        <ele>932.1</ele>
        <time>2010-04-09T08:59:35.000Z</time>
      </trkpt>
      <trkpt lat="42.43192" lon="0.02618">
        <ele>933.6</ele>
        <time>2010-04-09T08:59:43.000Z</time>
      </trkpt>
      <trkpt lat="42.43166" lon="0.02603">
        <ele>936.5</ele>
        <time>2010-04-09T08:59:57.000Z</time>
      </trkpt>
      <trkpt lat="42.43137" lon="0.02589">
        <ele>938.9</ele>
        <time>2010-04-09T09:00:12.000Z</time>
      </trkpt>
      <trkpt lat="42.4312" lon="0.02579">
        <ele>940.3</ele>
        <time>2010-04-09T09:00:20.000Z</time>
      </trkpt>
      <trkpt lat="42.43098" lon="0.02553">
        <ele>941.7</ele>
        <time>2010-04-09T09:00:33.000Z</time>
      </trkpt>
      <trkpt lat="42.43085" lon="0.02519">
        <ele>943.7</ele>
        <time>2010-04-09T09:00:45.000Z</time>
      </trkpt>
      <trkpt lat="42.43074" lon="0.02488">
        <ele>945.1</ele>
        <time>2010-04-09T09:00:56.000Z</time>
      </trkpt>
      <trkpt lat="42.43071" lon="0.02475">
        <ele>945.6</ele>
        <time>2010-04-09T09:01:03.000Z</time>
      </trkpt>
      <trkpt lat="42.43068" lon="0.02475">
        <ele>949.9</ele>
        <time>2010-04-09T09:56:20.000Z</time>
      </trkpt>
      <trkpt lat="42.43073" lon="0.02477">
        <ele>949.4</ele>
        <time>2010-04-09T09:56:25.000Z</time>
      </trkpt>
      <trkpt lat="42.43078" lon="0.02479">
        <ele>949.4</ele>
        <time>2010-04-09T09:56:40.000Z</time>
      </trkpt>
      <trkpt lat="42.43082" lon="0.02485">
        <ele>950.4</ele>
        <time>2010-04-09T09:57:12.000Z</time>
      </trkpt>
      <trkpt lat="42.43085" lon="0.02485">
        <ele>951.8</ele>
        <time>2010-04-09T09:57:25.000Z</time>
      </trkpt>
      <trkpt lat="42.43085" lon="0.02494">
        <ele>952.3</ele>
        <time>2010-04-09T09:57:43.000Z</time>
      </trkpt>
      <trkpt lat="42.43091" lon="0.02497">
        <ele>953.8</ele>
        <time>2010-04-09T09:57:56.000Z</time>
      </trkpt>
      <trkpt lat="42.43098" lon="0.02502">
        <ele>954.7</ele>
        <time>2010-04-09T09:58:03.000Z</time>
      </trkpt>
      <trkpt lat="42.43105" lon="0.02515">
        <ele>956.6</ele>
        <time>2010-04-09T09:58:13.000Z</time>
      </trkpt>
      <trkpt lat="42.43107" lon="0.02519">
        <ele>957.1</ele>
        <time>2010-04-09T09:58:26.000Z</time>
      </trkpt>
      <trkpt lat="42.43115" lon="0.02531">
        <ele>956.2</ele>
        <time>2010-04-09T09:58:39.000Z</time>
      </trkpt>
      <trkpt lat="42.43133" lon="0.02546">
        <ele>955.2</ele>
        <time>2010-04-09T09:58:48.000Z</time>
      </trkpt>
      <trkpt lat="42.43149" lon="0.02555">
        <ele>954.2</ele>
        <time>2010-04-09T09:58:57.000Z</time>
      </trkpt>
      <trkpt lat="42.43171" lon="0.02564">
        <ele>953.3</ele>
        <time>2010-04-09T09:59:06.000Z</time>
      </trkpt>
      <trkpt lat="42.43185" lon="0.02569">
        <ele>952.8</ele>
        <time>2010-04-09T09:59:12.000Z</time>
      </trkpt>
      <trkpt lat="42.43202" lon="0.02581">
        <ele>954.2</ele>
        <time>2010-04-09T09:59:22.000Z</time>
      </trkpt>
      <trkpt lat="42.43217" lon="0.02585">
        <ele>954.2</ele>
        <time>2010-04-09T09:59:30.000Z</time>
      </trkpt>
      <trkpt lat="42.43221" lon="0.02589">
        <ele>953.3</ele>
        <time>2010-04-09T09:59:32.000Z</time>
      </trkpt>
      <trkpt lat="42.4324" lon="0.02604">
        <ele>950.4</ele>
        <time>2010-04-09T09:59:39.000Z</time>
      </trkpt>
      <trkpt lat="42.43253" lon="0.02624">
        <ele>951.4</ele>
        <time>2010-04-09T09:59:45.000Z</time>
      </trkpt>
      <trkpt lat="42.43265" lon="0.02642">
        <ele>950.9</ele>
        <time>2010-04-09T09:59:52.000Z</time>
      </trkpt>
      <trkpt lat="42.43277" lon="0.0266">
        <ele>951.4</ele>
        <time>2010-04-09T10:00:00.000Z</time>
      </trkpt>
      <trkpt lat="42.43293" lon="0.02674">
        <ele>950.4</ele>
        <time>2010-04-09T10:00:08.000Z</time>
      </trkpt>
      <trkpt lat="42.433" lon="0.02681">
        <ele>951.8</ele>
        <time>2010-04-09T10:00:11.000Z</time>
      </trkpt>
      <trkpt lat="42.43317" lon="0.02699">
        <ele>951.4</ele>
        <time>2010-04-09T10:00:20.000Z</time>
      </trkpt>
      <trkpt lat="42.43314" lon="0.02702">
        <ele>951.4</ele>
        <time>2010-04-09T10:00:34.000Z</time>
      </trkpt>
      <trkpt lat="42.43328" lon="0.02706">
        <ele>948.5</ele>
        <time>2010-04-09T10:01:49.000Z</time>
      </trkpt>
      <trkpt lat="42.43347" lon="0.02708">
        <ele>944.6</ele>
        <time>2010-04-09T10:01:54.000Z</time>
      </trkpt>
      <trkpt lat="42.43356" lon="0.02709">
        <ele>943.7</ele>
        <time>2010-04-09T10:01:56.000Z</time>
      </trkpt>
      <trkpt lat="42.43372" lon="0.02707">
        <ele>943.2</ele>
        <time>2010-04-09T10:02:00.000Z</time>
      </trkpt>
      <trkpt lat="42.43384" lon="0.02711">
        <ele>940.3</ele>
        <time>2010-04-09T10:02:04.000Z</time>
      </trkpt>
      <trkpt lat="42.43406" lon="0.02699">
        <ele>937.4</ele>
        <time>2010-04-09T10:02:12.000Z</time>
      </trkpt>
      <trkpt lat="42.43407" lon="0.02698">
        <ele>936.9</ele>
        <time>2010-04-09T10:02:13.000Z</time>
      </trkpt>
      <trkpt lat="42.43414" lon="0.02706">
        <ele>936.9</ele>
        <time>2010-04-09T10:02:26.000Z</time>
      </trkpt>
      <trkpt lat="42.43422" lon="0.02725">
        <ele>938.9</ele>
        <time>2010-04-09T10:16:43.000Z</time>
      </trkpt>
      <trkpt lat="42.43429" lon="0.02745">
        <ele>939.3</ele>
        <time>2010-04-09T10:16:51.000Z</time>
      </trkpt>
      <trkpt lat="42.43433" lon="0.02748">
        <ele>939.8</ele>
        <time>2010-04-09T10:16:54.000Z</time>
      </trkpt>
      <trkpt lat="42.43434" lon="0.0275">
        <ele>939.8</ele>
        <time>2010-04-09T10:16:56.000Z</time>
      </trkpt>
      <trkpt lat="42.43427" lon="0.0276">
        <ele>940.3</ele>
        <time>2010-04-09T10:17:03.000Z</time>
      </trkpt>
      <trkpt lat="42.43426" lon="0.02761">
        <ele>940.3</ele>
        <time>2010-04-09T10:17:04.000Z</time>
      </trkpt>
      <trkpt lat="42.43414" lon="0.02787">
        <ele>941.7</ele>
        <time>2010-04-09T10:17:15.000Z</time>
      </trkpt>
      <trkpt lat="42.43413" lon="0.02804">
        <ele>943.7</ele>
        <time>2010-04-09T10:17:23.000Z</time>
      </trkpt>
      <trkpt lat="42.43414" lon="0.02819">
        <ele>943.7</ele>
        <time>2010-04-09T10:17:29.000Z</time>
      </trkpt>
      <trkpt lat="42.43419" lon="0.02834">
        <ele>944.2</ele>
        <time>2010-04-09T10:17:35.000Z</time>
      </trkpt>
      <trkpt lat="42.4342" lon="0.02841">
        <ele>945.6</ele>
        <time>2010-04-09T10:17:38.000Z</time>
      </trkpt>
      <trkpt lat="42.4342" lon="0.02846">
        <ele>946.6</ele>
        <time>2010-04-09T10:17:41.000Z</time>
      </trkpt>
      <trkpt lat="42.43421" lon="0.02857">
        <ele>947</ele>
        <time>2010-04-09T10:17:46.000Z</time>
      </trkpt>
      <trkpt lat="42.43423" lon="0.02866">
        <ele>948.5</ele>
        <time>2010-04-09T10:17:50.000Z</time>
      </trkpt>
      <trkpt lat="42.4343" lon="0.02884">
        <ele>951.8</ele>
        <time>2010-04-09T10:17:59.000Z</time>
      </trkpt>
      <trkpt lat="42.43437" lon="0.02899">
        <ele>954.2</ele>
        <time>2010-04-09T10:18:07.000Z</time>
      </trkpt>
      <trkpt lat="42.43438" lon="0.02914">
        <ele>955.7</ele>
        <time>2010-04-09T10:18:15.000Z</time>
      </trkpt>
      <trkpt lat="42.43442" lon="0.02919">
        <ele>957.1</ele>
        <time>2010-04-09T10:18:18.000Z</time>
      </trkpt>
      <trkpt lat="42.43444" lon="0.02922">
        <ele>958.1</ele>
        <time>2010-04-09T10:18:20.000Z</time>
      </trkpt>
      <trkpt lat="42.43445" lon="0.02923">
        <ele>958.1</ele>
        <time>2010-04-09T10:18:21.000Z</time>
      </trkpt>
      <trkpt lat="42.43445" lon="0.02928">
        <ele>958.6</ele>
        <time>2010-04-09T10:18:24.000Z</time>
      </trkpt>
      <trkpt lat="42.43448" lon="0.02933">
        <ele>959.1</ele>
        <time>2010-04-09T10:18:28.000Z</time>
      </trkpt>
      <trkpt lat="42.4345" lon="0.02936">
        <ele>959.5</ele>
        <time>2010-04-09T10:18:30.000Z</time>
      </trkpt>
      <trkpt lat="42.43456" lon="0.02942">
        <ele>960.5</ele>
        <time>2010-04-09T10:18:34.000Z</time>
      </trkpt>
      <trkpt lat="42.43468" lon="0.02957">
        <ele>961.9</ele>
        <time>2010-04-09T10:18:45.000Z</time>
      </trkpt>
      <trkpt lat="42.43475" lon="0.02963">
        <ele>962.4</ele>
        <time>2010-04-09T10:18:52.000Z</time>
      </trkpt>
      <trkpt lat="42.43481" lon="0.02968">
        <ele>962.9</ele>
        <time>2010-04-09T10:18:57.000Z</time>
      </trkpt>
      <trkpt lat="42.43497" lon="0.02978">
        <ele>961.9</ele>
        <time>2010-04-09T10:19:06.000Z</time>
      </trkpt>
      <trkpt lat="42.4351" lon="0.02977">
        <ele>961.5</ele>
        <time>2010-04-09T10:19:16.000Z</time>
      </trkpt>
      <trkpt lat="42.4351" lon="0.02977">
        <ele>961.5</ele>
        <time>2010-04-09T10:19:27.000Z</time>
      </trkpt>
      <trkpt lat="42.43513" lon="0.02977">
        <ele>961.5</ele>
        <time>2010-04-09T10:20:37.000Z</time>
      </trkpt>
      <trkpt lat="42.4352" lon="0.02979">
        <ele>961.5</ele>
        <time>2010-04-09T10:20:47.000Z</time>
      </trkpt>
      <trkpt lat="42.4353" lon="0.02986">
        <ele>961</ele>
        <time>2010-04-09T10:20:56.000Z</time>
      </trkpt>
      <trkpt lat="42.4354" lon="0.03003">
        <ele>962.4</ele>
        <time>2010-04-09T10:21:03.000Z</time>
      </trkpt>
      <trkpt lat="42.43556" lon="0.03018">
        <ele>964.8</ele>
        <time>2010-04-09T10:21:12.000Z</time>
      </trkpt>
      <trkpt lat="42.43578" lon="0.03022">
        <ele>966.7</ele>
        <time>2010-04-09T10:21:23.000Z</time>
      </trkpt>
      <trkpt lat="42.43584" lon="0.03026">
        <ele>966.7</ele>
        <time>2010-04-09T10:21:27.000Z</time>
      </trkpt>
      <trkpt lat="42.43596" lon="0.03031">
        <ele>966.3</ele>
        <time>2010-04-09T10:21:34.000Z</time>
      </trkpt>
      <trkpt lat="42.43601" lon="0.03042">
        <ele>967.7</ele>
        <time>2010-04-09T10:21:42.000Z</time>
      </trkpt>
      <trkpt lat="42.43601" lon="0.03043">
        <ele>967.7</ele>
        <time>2010-04-09T10:21:44.000Z</time>
      </trkpt>
      <trkpt lat="42.43607" lon="0.03059">
        <ele>966.7</ele>
        <time>2010-04-09T10:21:50.000Z</time>
      </trkpt>
      <trkpt lat="42.4362" lon="0.03069">
        <ele>966.7</ele>
        <time>2010-04-09T10:21:55.000Z</time>
      </trkpt>
      <trkpt lat="42.43632" lon="0.03101">
        <ele>970.1</ele>
        <time>2010-04-09T10:22:05.000Z</time>
      </trkpt>
      <trkpt lat="42.43644" lon="0.03119">
        <ele>970.6</ele>
        <time>2010-04-09T10:22:13.000Z</time>
      </trkpt>
      <trkpt lat="42.43647" lon="0.0313">
        <ele>973.5</ele>
        <time>2010-04-09T10:22:21.000Z</time>
      </trkpt>
      <trkpt lat="42.4365" lon="0.03137">
        <ele>974</ele>
        <time>2010-04-09T10:22:31.000Z</time>
      </trkpt>
      <trkpt lat="42.43649" lon="0.03135">
        <ele>974</ele>
        <time>2010-04-09T10:22:44.000Z</time>
      </trkpt>
      <trkpt lat="42.43656" lon="0.0315">
        <ele>975.9</ele>
        <time>2010-04-09T10:22:52.000Z</time>
      </trkpt>
      <trkpt lat="42.43661" lon="0.03159">
        <ele>977.8</ele>
        <time>2010-04-09T10:22:57.000Z</time>
      </trkpt>
      <trkpt lat="42.43662" lon="0.0316">
        <ele>977.8</ele>
        <time>2010-04-09T10:22:58.000Z</time>
      </trkpt>
      <trkpt lat="42.43668" lon="0.03171">
        <ele>978.8</ele>
        <time>2010-04-09T10:23:04.000Z</time>
      </trkpt>
      <trkpt lat="42.43687" lon="0.0319">
        <ele>980.2</ele>
        <time>2010-04-09T10:23:15.000Z</time>
      </trkpt>
      <trkpt lat="42.43707" lon="0.03203">
        <ele>981.2</ele>
        <time>2010-04-09T10:23:25.000Z</time>
      </trkpt>
      <trkpt lat="42.43723" lon="0.03205">
        <ele>982.1</ele>
        <time>2010-04-09T10:23:34.000Z</time>
      </trkpt>
      <trkpt lat="42.43739" lon="0.03206">
        <ele>984</ele>
        <time>2010-04-09T10:23:44.000Z</time>
      </trkpt>
      <trkpt lat="42.43755" lon="0.03207">
        <ele>987.4</ele>
        <time>2010-04-09T10:23:56.000Z</time>
      </trkpt>
      <trkpt lat="42.43769" lon="0.03214">
        <ele>988.9</ele>
        <time>2010-04-09T10:24:05.000Z</time>
      </trkpt>
      <trkpt lat="42.43774" lon="0.03217">
        <ele>988.9</ele>
        <time>2010-04-09T10:24:08.000Z</time>
      </trkpt>
      <trkpt lat="42.43794" lon="0.0323">
        <ele>990.3</ele>
        <time>2010-04-09T10:24:20.000Z</time>
      </trkpt>
      <trkpt lat="42.43802" lon="0.03231">
        <ele>990.3</ele>
        <time>2010-04-09T10:24:24.000Z</time>
      </trkpt>
      <trkpt lat="42.43822" lon="0.03239">
        <ele>990.8</ele>
        <time>2010-04-09T10:24:33.000Z</time>
      </trkpt>
      <trkpt lat="42.43834" lon="0.03235">
        <ele>992.2</ele>
        <time>2010-04-09T10:24:39.000Z</time>
      </trkpt>
      <trkpt lat="42.43844" lon="0.03235">
        <ele>993.2</ele>
        <time>2010-04-09T10:24:44.000Z</time>
      </trkpt>
      <trkpt lat="42.43862" lon="0.03255">
        <ele>994.1</ele>
        <time>2010-04-09T10:24:54.000Z</time>
      </trkpt>
      <trkpt lat="42.43875" lon="0.03274">
        <ele>995.6</ele>
        <time>2010-04-09T10:25:03.000Z</time>
      </trkpt>
      <trkpt lat="42.43878" lon="0.03284">
        <ele>996.5</ele>
        <time>2010-04-09T10:25:10.000Z</time>
      </trkpt>
      <trkpt lat="42.43878" lon="0.03285">
        <ele>997</ele>
        <time>2010-04-09T10:28:41.000Z</time>
      </trkpt>
      <trkpt lat="42.43889" lon="0.03316">
        <ele>994.6</ele>
        <time>2010-04-09T10:28:51.000Z</time>
      </trkpt>
      <trkpt lat="42.43902" lon="0.03337">
        <ele>994.1</ele>
        <time>2010-04-09T10:28:58.000Z</time>
      </trkpt>
      <trkpt lat="42.43919" lon="0.03341">
        <ele>992.7</ele>
        <time>2010-04-09T10:29:05.000Z</time>
      </trkpt>
      <trkpt lat="42.43936" lon="0.03338">
        <ele>993.2</ele>
        <time>2010-04-09T10:29:11.000Z</time>
      </trkpt>
      <trkpt lat="42.43946" lon="0.03331">
        <ele>991.7</ele>
        <time>2010-04-09T10:29:18.000Z</time>
      </trkpt>
      <trkpt lat="42.43956" lon="0.03346">
        <ele>991.7</ele>
        <time>2010-04-09T10:29:25.000Z</time>
      </trkpt>
      <trkpt lat="42.43962" lon="0.03353">
        <ele>993.2</ele>
        <time>2010-04-09T10:29:37.000Z</time>
      </trkpt>
      <trkpt lat="42.43967" lon="0.03354">
        <ele>996.1</ele>
        <time>2010-04-09T10:29:47.000Z</time>
      </trkpt>
      <trkpt lat="42.43969" lon="0.03344">
        <ele>999.4</ele>
        <time>2010-04-09T10:29:58.000Z</time>
      </trkpt>
      <trkpt lat="42.43976" lon="0.0335">
        <ele>1000.9</ele>
        <time>2010-04-09T10:30:07.000Z</time>
      </trkpt>
      <trkpt lat="42.43983" lon="0.03352">
        <ele>1001.8</ele>
        <time>2010-04-09T10:30:14.000Z</time>
      </trkpt>
      <trkpt lat="42.43987" lon="0.03357">
        <ele>1002.3</ele>
        <time>2010-04-09T10:30:18.000Z</time>
      </trkpt>
      <trkpt lat="42.43993" lon="0.03371">
        <ele>1002.3</ele>
        <time>2010-04-09T10:30:29.000Z</time>
      </trkpt>
      <trkpt lat="42.43999" lon="0.03375">
        <ele>1004.7</ele>
        <time>2010-04-09T10:30:38.000Z</time>
      </trkpt>
      <trkpt lat="42.43999" lon="0.03379">
        <ele>1004.7</ele>
        <time>2010-04-09T10:30:40.000Z</time>
      </trkpt>
      <trkpt lat="42.43999" lon="0.03386">
        <ele>1005.7</ele>
        <time>2010-04-09T10:30:51.000Z</time>
      </trkpt>
      <trkpt lat="42.43998" lon="0.03398">
        <ele>1006.6</ele>
        <time>2010-04-09T10:31:20.000Z</time>
      </trkpt>
      <trkpt lat="42.43997" lon="0.03405">
        <ele>1006.6</ele>
        <time>2010-04-09T10:31:29.000Z</time>
      </trkpt>
      <trkpt lat="42.43994" lon="0.03427">
        <ele>1003.3</ele>
        <time>2010-04-09T10:31:35.000Z</time>
      </trkpt>
      <trkpt lat="42.43992" lon="0.03432">
        <ele>1001.8</ele>
        <time>2010-04-09T10:31:36.000Z</time>
      </trkpt>
      <trkpt lat="42.43991" lon="0.03481">
        <ele>998</ele>
        <time>2010-04-09T10:31:43.000Z</time>
      </trkpt>
      <trkpt lat="42.43993" lon="0.03488">
        <ele>997.5</ele>
        <time>2010-04-09T10:31:44.000Z</time>
      </trkpt>
      <trkpt lat="42.43999" lon="0.0351">
        <ele>995.6</ele>
        <time>2010-04-09T10:31:48.000Z</time>
      </trkpt>
      <trkpt lat="42.44013" lon="0.03547">
        <ele>991.7</ele>
        <time>2010-04-09T10:31:53.000Z</time>
      </trkpt>
      <trkpt lat="42.44027" lon="0.03581">
        <ele>988.9</ele>
        <time>2010-04-09T10:31:58.000Z</time>
      </trkpt>
      <trkpt lat="42.44031" lon="0.03604">
        <ele>991.3</ele>
        <time>2010-04-09T10:32:02.000Z</time>
      </trkpt>
      <trkpt lat="42.44028" lon="0.03616">
        <ele>991.7</ele>
        <time>2010-04-09T10:32:05.000Z</time>
      </trkpt>
      <trkpt lat="42.4403" lon="0.03628">
        <ele>992.2</ele>
        <time>2010-04-09T10:32:13.000Z</time>
      </trkpt>
      <trkpt lat="42.4403" lon="0.03628">
        <ele>992.2</ele>
        <time>2010-04-09T10:32:13.000Z</time>
      </trkpt>
      <trkpt lat="42.44028" lon="0.03628">
        <ele>990.3</ele>
        <time>2010-04-09T11:00:08.000Z</time>
      </trkpt>
      <trkpt lat="42.44031" lon="0.03637">
        <ele>988.4</ele>
        <time>2010-04-09T11:00:12.000Z</time>
      </trkpt>
      <trkpt lat="42.44043" lon="0.03656">
        <ele>984.5</ele>
        <time>2010-04-09T11:00:18.000Z</time>
      </trkpt>
      <trkpt lat="42.44052" lon="0.03673">
        <ele>981.2</ele>
        <time>2010-04-09T11:00:23.000Z</time>
      </trkpt>
      <trkpt lat="42.44058" lon="0.03683">
        <ele>979.7</ele>
        <time>2010-04-09T11:00:25.000Z</time>
      </trkpt>
      <trkpt lat="42.44062" lon="0.03691">
        <ele>978.8</ele>
        <time>2010-04-09T11:00:27.000Z</time>
      </trkpt>
      <trkpt lat="42.44066" lon="0.037">
        <ele>978.3</ele>
        <time>2010-04-09T11:00:34.000Z</time>
      </trkpt>
      <trkpt lat="42.44071" lon="0.03713">
        <ele>974.9</ele>
        <time>2010-04-09T11:00:57.000Z</time>
      </trkpt>
      <trkpt lat="42.44073" lon="0.03717">
        <ele>974</ele>
        <time>2010-04-09T11:00:58.000Z</time>
      </trkpt>
      <trkpt lat="42.44078" lon="0.03728">
        <ele>972.5</ele>
        <time>2010-04-09T11:01:00.000Z</time>
      </trkpt>
      <trkpt lat="42.44081" lon="0.03733">
        <ele>971.5</ele>
        <time>2010-04-09T11:01:01.000Z</time>
      </trkpt>
      <trkpt lat="42.44091" lon="0.03751">
        <ele>967.7</ele>
        <time>2010-04-09T11:01:04.000Z</time>
      </trkpt>
      <trkpt lat="42.44105" lon="0.03765">
        <ele>966.3</ele>
        <time>2010-04-09T11:01:07.000Z</time>
      </trkpt>
      <trkpt lat="42.44109" lon="0.03768">
        <ele>964.8</ele>
        <time>2010-04-09T11:01:08.000Z</time>
      </trkpt>
      <trkpt lat="42.44119" lon="0.03779">
        <ele>962.9</ele>
        <time>2010-04-09T11:01:10.000Z</time>
      </trkpt>
      <trkpt lat="42.44133" lon="0.03793">
        <ele>959.1</ele>
        <time>2010-04-09T11:01:13.000Z</time>
      </trkpt>
      <trkpt lat="42.44147" lon="0.03813">
        <ele>955.2</ele>
        <time>2010-04-09T11:01:16.000Z</time>
      </trkpt>
      <trkpt lat="42.44162" lon="0.03828">
        <ele>950.9</ele>
        <time>2010-04-09T11:01:19.000Z</time>
      </trkpt>
      <trkpt lat="42.44165" lon="0.03833">
        <ele>950.4</ele>
        <time>2010-04-09T11:01:20.000Z</time>
      </trkpt>
      <trkpt lat="42.44178" lon="0.03839">
        <ele>946.6</ele>
        <time>2010-04-09T11:01:23.000Z</time>
      </trkpt>
      <trkpt lat="42.44186" lon="0.0386">
        <ele>942.7</ele>
        <time>2010-04-09T11:01:26.000Z</time>
      </trkpt>
      <trkpt lat="42.44192" lon="0.03865">
        <ele>941.3</ele>
        <time>2010-04-09T11:01:27.000Z</time>
      </trkpt>
      <trkpt lat="42.44201" lon="0.0388">
        <ele>938.9</ele>
        <time>2010-04-09T11:01:31.000Z</time>
      </trkpt>
      <trkpt lat="42.442" lon="0.03879">
        <ele>939.3</ele>
        <time>2010-04-09T11:01:42.000Z</time>
      </trkpt>
      <trkpt lat="42.44199" lon="0.03881">
        <ele>937.9</ele>
        <time>2010-04-09T11:02:01.000Z</time>
      </trkpt>
      <trkpt lat="42.44194" lon="0.03889">
        <ele>935</ele>
        <time>2010-04-09T11:02:04.000Z</time>
      </trkpt>
      <trkpt lat="42.44178" lon="0.03905">
        <ele>931.7</ele>
        <time>2010-04-09T11:02:11.000Z</time>
      </trkpt>
      <trkpt lat="42.44187" lon="0.0392">
        <ele>927.3</ele>
        <time>2010-04-09T11:02:16.000Z</time>
      </trkpt>
      <trkpt lat="42.44189" lon="0.03925">
        <ele>925.4</ele>
        <time>2010-04-09T11:02:18.000Z</time>
      </trkpt>
      <trkpt lat="42.44204" lon="0.03936">
        <ele>922</ele>
        <time>2010-04-09T11:02:24.000Z</time>
      </trkpt>
      <trkpt lat="42.44206" lon="0.0394">
        <ele>922</ele>
        <time>2010-04-09T11:02:25.000Z</time>
      </trkpt>
      <trkpt lat="42.44211" lon="0.03949">
        <ele>919.2</ele>
        <time>2010-04-09T11:02:28.000Z</time>
      </trkpt>
      <trkpt lat="42.44227" lon="0.03964">
        <ele>914.8</ele>
        <time>2010-04-09T11:02:32.000Z</time>
      </trkpt>
      <trkpt lat="42.44221" lon="0.03978">
        <ele>910.5</ele>
        <time>2010-04-09T11:02:37.000Z</time>
      </trkpt>
      <trkpt lat="42.44224" lon="0.03988">
        <ele>908.1</ele>
        <time>2010-04-09T11:02:41.000Z</time>
      </trkpt>
      <trkpt lat="42.44223" lon="0.03997">
        <ele>904.7</ele>
        <time>2010-04-09T11:02:46.000Z</time>
      </trkpt>
      <trkpt lat="42.44226" lon="0.03999">
        <ele>904.3</ele>
        <time>2010-04-09T11:02:47.000Z</time>
      </trkpt>
      <trkpt lat="42.44228" lon="0.04002">
        <ele>904.3</ele>
        <time>2010-04-09T11:02:55.000Z</time>
      </trkpt>
      <trkpt lat="42.44239" lon="0.04009">
        <ele>900.9</ele>
        <time>2010-04-09T11:03:13.000Z</time>
      </trkpt>
      <trkpt lat="42.44257" lon="0.0402">
        <ele>897.5</ele>
        <time>2010-04-09T11:03:17.000Z</time>
      </trkpt>
      <trkpt lat="42.44267" lon="0.0403">
        <ele>895.1</ele>
        <time>2010-04-09T11:03:21.000Z</time>
      </trkpt>
      <trkpt lat="42.44272" lon="0.04042">
        <ele>891.3</ele>
        <time>2010-04-09T11:03:25.000Z</time>
      </trkpt>
      <trkpt lat="42.44301" lon="0.04051">
        <ele>887.9</ele>
        <time>2010-04-09T11:03:33.000Z</time>
      </trkpt>
      <trkpt lat="42.44304" lon="0.04053">
        <ele>887.9</ele>
        <time>2010-04-09T11:03:35.000Z</time>
      </trkpt>
      <trkpt lat="42.44302" lon="0.04055">
        <ele>886.5</ele>
        <time>2010-04-09T11:03:46.000Z</time>
      </trkpt>
      <trkpt lat="42.44293" lon="0.04062">
        <ele>884.1</ele>
        <time>2010-04-09T11:04:00.000Z</time>
      </trkpt>
      <trkpt lat="42.44284" lon="0.04066">
        <ele>883.1</ele>
        <time>2010-04-09T11:04:05.000Z</time>
      </trkpt>
      <trkpt lat="42.44286" lon="0.04073">
        <ele>881.2</ele>
        <time>2010-04-09T11:04:13.000Z</time>
      </trkpt>
      <trkpt lat="42.44293" lon="0.04077">
        <ele>878.8</ele>
        <time>2010-04-09T11:04:45.000Z</time>
      </trkpt>
      <trkpt lat="42.44295" lon="0.0408">
        <ele>877.3</ele>
        <time>2010-04-09T11:04:46.000Z</time>
      </trkpt>
      <trkpt lat="42.44298" lon="0.04091">
        <ele>874</ele>
        <time>2010-04-09T11:04:51.000Z</time>
      </trkpt>
      <trkpt lat="42.44295" lon="0.0411">
        <ele>869.2</ele>
        <time>2010-04-09T11:04:57.000Z</time>
      </trkpt>
      <trkpt lat="42.443" lon="0.04113">
        <ele>868.7</ele>
        <time>2010-04-09T11:05:03.000Z</time>
      </trkpt>
      <trkpt lat="42.44305" lon="0.04117">
        <ele>867.2</ele>
        <time>2010-04-09T11:05:26.000Z</time>
      </trkpt>
      <trkpt lat="42.44309" lon="0.04119">
        <ele>866.3</ele>
        <time>2010-04-09T11:05:28.000Z</time>
      </trkpt>
      <trkpt lat="42.44313" lon="0.04121">
        <ele>865.8</ele>
        <time>2010-04-09T11:05:30.000Z</time>
      </trkpt>
      <trkpt lat="42.4433" lon="0.04133">
        <ele>860</ele>
        <time>2010-04-09T11:05:35.000Z</time>
      </trkpt>
      <trkpt lat="42.44347" lon="0.04148">
        <ele>856.2</ele>
        <time>2010-04-09T11:05:38.000Z</time>
      </trkpt>
      <trkpt lat="42.44355" lon="0.04152">
        <ele>855.2</ele>
        <time>2010-04-09T11:05:40.000Z</time>
      </trkpt>
      <trkpt lat="42.44354" lon="0.04154">
        <ele>855.2</ele>
        <time>2010-04-09T11:05:45.000Z</time>
      </trkpt>
      <trkpt lat="42.44351" lon="0.04157">
        <ele>854.3</ele>
        <time>2010-04-09T11:06:16.000Z</time>
      </trkpt>
      <trkpt lat="42.44354" lon="0.04167">
        <ele>850.9</ele>
        <time>2010-04-09T11:06:22.000Z</time>
      </trkpt>
      <trkpt lat="42.4435" lon="0.04171">
        <ele>849.5</ele>
        <time>2010-04-09T11:06:24.000Z</time>
      </trkpt>
      <trkpt lat="42.44354" lon="0.04177">
        <ele>847.5</ele>
        <time>2010-04-09T11:06:28.000Z</time>
      </trkpt>
      <trkpt lat="42.44361" lon="0.04181">
        <ele>845.6</ele>
        <time>2010-04-09T11:06:30.000Z</time>
      </trkpt>
      <trkpt lat="42.44376" lon="0.0419">
        <ele>842.7</ele>
        <time>2010-04-09T11:06:33.000Z</time>
      </trkpt>
      <trkpt lat="42.44375" lon="0.04194">
        <ele>841.8</ele>
        <time>2010-04-09T11:06:35.000Z</time>
      </trkpt>
      <trkpt lat="42.44376" lon="0.04199">
        <ele>840.8</ele>
        <time>2010-04-09T11:06:37.000Z</time>
      </trkpt>
      <trkpt lat="42.44381" lon="0.04209">
        <ele>837.4</ele>
        <time>2010-04-09T11:06:41.000Z</time>
      </trkpt>
      <trkpt lat="42.4437" lon="0.04217">
        <ele>834.1</ele>
        <time>2010-04-09T11:06:44.000Z</time>
      </trkpt>
      <trkpt lat="42.44351" lon="0.04232">
        <ele>829.8</ele>
        <time>2010-04-09T11:06:48.000Z</time>
      </trkpt>
      <trkpt lat="42.44363" lon="0.04238">
        <ele>826.9</ele>
        <time>2010-04-09T11:06:51.000Z</time>
      </trkpt>
      <trkpt lat="42.44379" lon="0.04248">
        <ele>823.5</ele>
        <time>2010-04-09T11:06:54.000Z</time>
      </trkpt>
      <trkpt lat="42.44384" lon="0.04249">
        <ele>824</ele>
        <time>2010-04-09T11:06:55.000Z</time>
      </trkpt>
      <trkpt lat="42.44382" lon="0.04255">
        <ele>822.1</ele>
        <time>2010-04-09T11:06:58.000Z</time>
      </trkpt>
      <trkpt lat="42.44384" lon="0.04262">
        <ele>818.7</ele>
        <time>2010-04-09T11:07:02.000Z</time>
      </trkpt>
      <trkpt lat="42.4439" lon="0.04277">
        <ele>813.4</ele>
        <time>2010-04-09T11:07:07.000Z</time>
      </trkpt>
      <trkpt lat="42.44384" lon="0.04287">
        <ele>810</ele>
        <time>2010-04-09T11:07:10.000Z</time>
      </trkpt>
      <trkpt lat="42.44401" lon="0.04297">
        <ele>805.7</ele>
        <time>2010-04-09T11:07:13.000Z</time>
      </trkpt>
      <trkpt lat="42.4441" lon="0.04306">
        <ele>803.8</ele>
        <time>2010-04-09T11:07:15.000Z</time>
      </trkpt>
      <trkpt lat="42.44411" lon="0.04316">
        <ele>800.9</ele>
        <time>2010-04-09T11:07:20.000Z</time>
      </trkpt>
      <trkpt lat="42.44411" lon="0.04316">
        <ele>800.9</ele>
        <time>2010-04-09T11:07:30.000Z</time>
      </trkpt>
      <trkpt lat="42.44403" lon="0.0432">
        <ele>798.5</ele>
        <time>2010-04-09T11:11:45.000Z</time>
      </trkpt>
      <trkpt lat="42.44402" lon="0.04331">
        <ele>796.1</ele>
        <time>2010-04-09T11:11:50.000Z</time>
      </trkpt>
      <trkpt lat="42.44399" lon="0.04333">
        <ele>794.7</ele>
        <time>2010-04-09T11:11:52.000Z</time>
      </trkpt>
      <trkpt lat="42.44367" lon="0.04334">
        <ele>793.2</ele>
        <time>2010-04-09T11:12:01.000Z</time>
      </trkpt>
      <trkpt lat="42.44363" lon="0.04334">
        <ele>792.7</ele>
        <time>2010-04-09T11:12:03.000Z</time>
      </trkpt>
      <trkpt lat="42.44354" lon="0.04348">
        <ele>792.3</ele>
        <time>2010-04-09T11:12:09.000Z</time>
      </trkpt>
      <trkpt lat="42.44355" lon="0.04349">
        <ele>791.3</ele>
        <time>2010-04-09T11:12:20.000Z</time>
      </trkpt>
      <trkpt lat="42.44364" lon="0.04361">
        <ele>788.4</ele>
        <time>2010-04-09T11:12:26.000Z</time>
      </trkpt>
      <trkpt lat="42.44357" lon="0.04373">
        <ele>786</ele>
        <time>2010-04-09T11:12:31.000Z</time>
      </trkpt>
      <trkpt lat="42.44365" lon="0.04384">
        <ele>782.7</ele>
        <time>2010-04-09T11:12:36.000Z</time>
      </trkpt>
      <trkpt lat="42.44368" lon="0.04386">
        <ele>782.2</ele>
        <time>2010-04-09T11:12:37.000Z</time>
      </trkpt>
      <trkpt lat="42.4437" lon="0.04389">
        <ele>781.7</ele>
        <time>2010-04-09T11:12:39.000Z</time>
      </trkpt>
      <trkpt lat="42.44371" lon="0.044">
        <ele>777.4</ele>
        <time>2010-04-09T11:12:46.000Z</time>
      </trkpt>
      <trkpt lat="42.44378" lon="0.04406">
        <ele>775.4</ele>
        <time>2010-04-09T11:12:49.000Z</time>
      </trkpt>
      <trkpt lat="42.4437" lon="0.04411">
        <ele>773.5</ele>
        <time>2010-04-09T11:12:54.000Z</time>
      </trkpt>
      <trkpt lat="42.44367" lon="0.04414">
        <ele>772.1</ele>
        <time>2010-04-09T11:12:56.000Z</time>
      </trkpt>
      <trkpt lat="42.44367" lon="0.04419">
        <ele>770.2</ele>
        <time>2010-04-09T11:13:01.000Z</time>
      </trkpt>
      <trkpt lat="42.44359" lon="0.04423">
        <ele>767.8</ele>
        <time>2010-04-09T11:13:05.000Z</time>
      </trkpt>
      <trkpt lat="42.44356" lon="0.04427">
        <ele>767.8</ele>
        <time>2010-04-09T11:13:07.000Z</time>
      </trkpt>
      <trkpt lat="42.44356" lon="0.04427">
        <ele>767.8</ele>
        <time>2010-04-09T11:13:07.000Z</time>
      </trkpt>
      <trkpt lat="42.44358" lon="0.04428">
        <ele>767.3</ele>
        <time>2010-04-09T11:13:22.000Z</time>
      </trkpt>
      <trkpt lat="42.44361" lon="0.04429">
        <ele>767.3</ele>
        <time>2010-04-09T11:15:00.000Z</time>
      </trkpt>
      <trkpt lat="42.44369" lon="0.0443">
        <ele>766.3</ele>
        <time>2010-04-09T11:15:04.000Z</time>
      </trkpt>
      <trkpt lat="42.44393" lon="0.04419">
        <ele>764.4</ele>
        <time>2010-04-09T11:15:12.000Z</time>
      </trkpt>
      <trkpt lat="42.44397" lon="0.04415">
        <ele>764.4</ele>
        <time>2010-04-09T11:15:13.000Z</time>
      </trkpt>
      <trkpt lat="42.44434" lon="0.04412">
        <ele>760.1</ele>
        <time>2010-04-09T11:15:21.000Z</time>
      </trkpt>
      <trkpt lat="42.44443" lon="0.04437">
        <ele>758.1</ele>
        <time>2010-04-09T11:15:24.000Z</time>
      </trkpt>
      <trkpt lat="42.44427" lon="0.04468">
        <ele>755.3</ele>
        <time>2010-04-09T11:15:28.000Z</time>
      </trkpt>
      <trkpt lat="42.4441" lon="0.04469">
        <ele>752.8</ele>
        <time>2010-04-09T11:15:30.000Z</time>
      </trkpt>
      <trkpt lat="42.44393" lon="0.04469">
        <ele>751.9</ele>
        <time>2010-04-09T11:15:32.000Z</time>
      </trkpt>
      <trkpt lat="42.44349" lon="0.04474">
        <ele>748.5</ele>
        <time>2010-04-09T11:15:37.000Z</time>
      </trkpt>
      <trkpt lat="42.44332" lon="0.04476">
        <ele>747.1</ele>
        <time>2010-04-09T11:15:39.000Z</time>
      </trkpt>
      <trkpt lat="42.44332" lon="0.04476">
        <ele>747.1</ele>
        <time>2010-04-09T11:15:39.000Z</time>
      </trkpt>
      <trkpt lat="42.44329" lon="0.04486">
        <ele>747.6</ele>
        <time>2010-04-09T11:15:44.000Z</time>
      </trkpt>
      <trkpt lat="42.4433" lon="0.04484">
        <ele>747.6</ele>
        <time>2010-04-09T11:15:51.000Z</time>
      </trkpt>
      <trkpt lat="42.44342" lon="0.04488">
        <ele>745.2</ele>
        <time>2010-04-09T11:15:55.000Z</time>
      </trkpt>
      <trkpt lat="42.44352" lon="0.04491">
        <ele>744.7</ele>
        <time>2010-04-09T11:15:58.000Z</time>
      </trkpt>
      <trkpt lat="42.4436" lon="0.04494">
        <ele>743.7</ele>
        <time>2010-04-09T11:16:00.000Z</time>
      </trkpt>
      <trkpt lat="42.44368" lon="0.04497">
        <ele>743.2</ele>
        <time>2010-04-09T11:16:03.000Z</time>
      </trkpt>
      <trkpt lat="42.44374" lon="0.04503">
        <ele>741.3</ele>
        <time>2010-04-09T11:16:06.000Z</time>
      </trkpt>
      <trkpt lat="42.44378" lon="0.04507">
        <ele>739.4</ele>
        <time>2010-04-09T11:16:12.000Z</time>
      </trkpt>
      <trkpt lat="42.44376" lon="0.04506">
        <ele>738.9</ele>
        <time>2010-04-09T11:16:58.000Z</time>
      </trkpt>
      <trkpt lat="42.44366" lon="0.04514">
        <ele>736</ele>
        <time>2010-04-09T11:17:02.000Z</time>
      </trkpt>
      <trkpt lat="42.44354" lon="0.04523">
        <ele>732.7</ele>
        <time>2010-04-09T11:17:05.000Z</time>
      </trkpt>
      <trkpt lat="42.44343" lon="0.04528">
        <ele>730.7</ele>
        <time>2010-04-09T11:17:07.000Z</time>
      </trkpt>
      <trkpt lat="42.44335" lon="0.04529">
        <ele>729.8</ele>
        <time>2010-04-09T11:17:09.000Z</time>
      </trkpt>
      <trkpt lat="42.44334" lon="0.04531">
        <ele>729.3</ele>
        <time>2010-04-09T11:17:13.000Z</time>
      </trkpt>
      <trkpt lat="42.44351" lon="0.04542">
        <ele>725.5</ele>
        <time>2010-04-09T11:17:20.000Z</time>
      </trkpt>
      <trkpt lat="42.44354" lon="0.04544">
        <ele>725</ele>
        <time>2010-04-09T11:17:21.000Z</time>
      </trkpt>
      <trkpt lat="42.44365" lon="0.04554">
        <ele>721.6</ele>
        <time>2010-04-09T11:17:25.000Z</time>
      </trkpt>
      <trkpt lat="42.44366" lon="0.04562">
        <ele>719.2</ele>
        <time>2010-04-09T11:17:31.000Z</time>
      </trkpt>
      <trkpt lat="42.44366" lon="0.04562">
        <ele>719.7</ele>
        <time>2010-04-09T11:17:48.000Z</time>
      </trkpt>
      <trkpt lat="42.44356" lon="0.04561">
        <ele>717.8</ele>
        <time>2010-04-09T11:17:52.000Z</time>
      </trkpt>
      <trkpt lat="42.44347" lon="0.04561">
        <ele>716.3</ele>
        <time>2010-04-09T11:17:54.000Z</time>
      </trkpt>
      <trkpt lat="42.44332" lon="0.04566">
        <ele>712.5</ele>
        <time>2010-04-09T11:17:57.000Z</time>
      </trkpt>
      <trkpt lat="42.44332" lon="0.04572">
        <ele>711</ele>
        <time>2010-04-09T11:17:59.000Z</time>
      </trkpt>
      <trkpt lat="42.44335" lon="0.0458">
        <ele>708.1</ele>
        <time>2010-04-09T11:18:01.000Z</time>
      </trkpt>
      <trkpt lat="42.44328" lon="0.04593">
        <ele>705.3</ele>
        <time>2010-04-09T11:18:06.000Z</time>
      </trkpt>
      <trkpt lat="42.44332" lon="0.04598">
        <ele>704.3</ele>
        <time>2010-04-09T11:18:08.000Z</time>
      </trkpt>
      <trkpt lat="42.4433" lon="0.04604">
        <ele>701.9</ele>
        <time>2010-04-09T11:18:13.000Z</time>
      </trkpt>
      <trkpt lat="42.44346" lon="0.04613">
        <ele>698.1</ele>
        <time>2010-04-09T11:18:18.000Z</time>
      </trkpt>
      <trkpt lat="42.44355" lon="0.04616">
        <ele>696.1</ele>
        <time>2010-04-09T11:18:20.000Z</time>
      </trkpt>
      <trkpt lat="42.44376" lon="0.04634">
        <ele>691.8</ele>
        <time>2010-04-09T11:18:24.000Z</time>
      </trkpt>
      <trkpt lat="42.44402" lon="0.04655">
        <ele>686.5</ele>
        <time>2010-04-09T11:18:29.000Z</time>
      </trkpt>
      <trkpt lat="42.44405" lon="0.04658">
        <ele>686.5</ele>
        <time>2010-04-09T11:18:30.000Z</time>
      </trkpt>
      <trkpt lat="42.44409" lon="0.0466">
        <ele>686.5</ele>
        <time>2010-04-09T11:18:35.000Z</time>
      </trkpt>
      <trkpt lat="42.44412" lon="0.0466">
        <ele>686</ele>
        <time>2010-04-09T11:18:39.000Z</time>
      </trkpt>
      <trkpt lat="42.44416" lon="0.0466">
        <ele>686</ele>
        <time>2010-04-09T11:18:45.000Z</time>
      </trkpt>
      <trkpt lat="42.44422" lon="0.04659">
        <ele>684.6</ele>
        <time>2010-04-09T11:18:54.000Z</time>
      </trkpt>
      <trkpt lat="42.44427" lon="0.04659">
        <ele>681.7</ele>
        <time>2010-04-09T11:19:06.000Z</time>
      </trkpt>
      <trkpt lat="42.4443" lon="0.04655">
        <ele>679.8</ele>
        <time>2010-04-09T11:19:11.000Z</time>
      </trkpt>
      <trkpt lat="42.44436" lon="0.0466">
        <ele>679.3</ele>
        <time>2010-04-09T11:19:19.000Z</time>
      </trkpt>
      <trkpt lat="42.44438" lon="0.0466">
        <ele>678.3</ele>
        <time>2010-04-09T11:19:28.000Z</time>
      </trkpt>
      <trkpt lat="42.44439" lon="0.04662">
        <ele>678.8</ele>
        <time>2010-04-09T11:22:13.000Z</time>
      </trkpt>
      <trkpt lat="42.44439" lon="0.04662">
        <ele>678.8</ele>
        <time>2010-04-09T11:22:13.000Z</time>
      </trkpt>
      <trkpt lat="42.44461" lon="0.04661">
        <ele>675.5</ele>
        <time>2010-04-09T11:22:20.000Z</time>
      </trkpt>
      <trkpt lat="42.44485" lon="0.04668">
        <ele>674</ele>
        <time>2010-04-09T11:22:24.000Z</time>
      </trkpt>
      <trkpt lat="42.44499" lon="0.04673">
        <ele>673.1</ele>
        <time>2010-04-09T11:22:26.000Z</time>
      </trkpt>
      <trkpt lat="42.44563" lon="0.0469">
        <ele>673.1</ele>
        <time>2010-04-09T11:22:36.000Z</time>
      </trkpt>
      <trkpt lat="42.44581" lon="0.04693">
        <ele>672.1</ele>
        <time>2010-04-09T11:22:39.000Z</time>
      </trkpt>
      <trkpt lat="42.4461" lon="0.0471">
        <ele>672.1</ele>
        <time>2010-04-09T11:22:45.000Z</time>
      </trkpt>
      <trkpt lat="42.4463" lon="0.04712">
        <ele>675</ele>
        <time>2010-04-09T11:22:52.000Z</time>
      </trkpt>
      <trkpt lat="42.44634" lon="0.04719">
        <ele>675.5</ele>
        <time>2010-04-09T11:22:56.000Z</time>
      </trkpt>
      <trkpt lat="42.44635" lon="0.04742">
        <ele>675.9</ele>
        <time>2010-04-09T11:23:07.000Z</time>
      </trkpt>
      <trkpt lat="42.44635" lon="0.04751">
        <ele>676.9</ele>
        <time>2010-04-09T11:23:12.000Z</time>
      </trkpt>
      <trkpt lat="42.44636" lon="0.04768">
        <ele>679.3</ele>
        <time>2010-04-09T11:23:21.000Z</time>
      </trkpt>
      <trkpt lat="42.44637" lon="0.04773">
        <ele>679.8</ele>
        <time>2010-04-09T11:23:24.000Z</time>
      </trkpt>
      <trkpt lat="42.44638" lon="0.04795">
        <ele>681.7</ele>
        <time>2010-04-09T11:23:35.000Z</time>
      </trkpt>
      <trkpt lat="42.44643" lon="0.048">
        <ele>682.7</ele>
        <time>2010-04-09T11:23:39.000Z</time>
      </trkpt>
      <trkpt lat="42.44653" lon="0.04787">
        <ele>684.6</ele>
        <time>2010-04-09T11:23:49.000Z</time>
      </trkpt>
      <trkpt lat="42.44656" lon="0.04759">
        <ele>686.5</ele>
        <time>2010-04-09T11:24:01.000Z</time>
      </trkpt>
      <trkpt lat="42.44658" lon="0.04728">
        <ele>688.4</ele>
        <time>2010-04-09T11:24:14.000Z</time>
      </trkpt>
      <trkpt lat="42.44663" lon="0.04702">
        <ele>691.3</ele>
        <time>2010-04-09T11:24:27.000Z</time>
      </trkpt>
      <trkpt lat="42.44667" lon="0.04696">
        <ele>692.3</ele>
        <time>2010-04-09T11:24:31.000Z</time>
      </trkpt>
      <trkpt lat="42.44678" lon="0.04715">
        <ele>694.2</ele>
        <time>2010-04-09T11:24:42.000Z</time>
      </trkpt>
      <trkpt lat="42.44677" lon="0.04747">
        <ele>696.1</ele>
        <time>2010-04-09T11:24:55.000Z</time>
      </trkpt>
      <trkpt lat="42.4469" lon="0.04744">
        <ele>697.6</ele>
        <time>2010-04-09T11:25:03.000Z</time>
      </trkpt>
      <trkpt lat="42.44688" lon="0.04719">
        <ele>699</ele>
        <time>2010-04-09T11:25:14.000Z</time>
      </trkpt>
      <trkpt lat="42.44689" lon="0.04695">
        <ele>700.5</ele>
        <time>2010-04-09T11:25:24.000Z</time>
      </trkpt>
      <trkpt lat="42.44695" lon="0.04673">
        <ele>702.4</ele>
        <time>2010-04-09T11:25:34.000Z</time>
      </trkpt>
      <trkpt lat="42.44701" lon="0.04673">
        <ele>702.9</ele>
        <time>2010-04-09T11:25:37.000Z</time>
      </trkpt>
      <trkpt lat="42.44705" lon="0.04686">
        <ele>703.8</ele>
        <time>2010-04-09T11:25:42.000Z</time>
      </trkpt>
      <trkpt lat="42.44705" lon="0.04716">
        <ele>706.2</ele>
        <time>2010-04-09T11:25:55.000Z</time>
      </trkpt>
      <trkpt lat="42.44705" lon="0.04726">
        <ele>707.2</ele>
        <time>2010-04-09T11:25:59.000Z</time>
      </trkpt>
      <trkpt lat="42.44715" lon="0.04728">
        <ele>708.6</ele>
        <time>2010-04-09T11:26:05.000Z</time>
      </trkpt>
      <trkpt lat="42.44721" lon="0.04718">
        <ele>710.1</ele>
        <time>2010-04-09T11:26:11.000Z</time>
      </trkpt>
      <trkpt lat="42.44724" lon="0.04686">
        <ele>712</ele>
        <time>2010-04-09T11:26:24.000Z</time>
      </trkpt>
      <trkpt lat="42.44728" lon="0.04666">
        <ele>713</ele>
        <time>2010-04-09T11:26:33.000Z</time>
      </trkpt>
      <trkpt lat="42.44726" lon="0.04644">
        <ele>714.4</ele>
        <time>2010-04-09T11:26:43.000Z</time>
      </trkpt>
      <trkpt lat="42.44728" lon="0.04623">
        <ele>715.4</ele>
        <time>2010-04-09T11:26:52.000Z</time>
      </trkpt>
      <trkpt lat="42.44713" lon="0.04608">
        <ele>717.8</ele>
        <time>2010-04-09T11:27:02.000Z</time>
      </trkpt>
      <trkpt lat="42.44708" lon="0.04604">
        <ele>718.2</ele>
        <time>2010-04-09T11:27:05.000Z</time>
      </trkpt>
      <trkpt lat="42.44697" lon="0.04591">
        <ele>720.2</ele>
        <time>2010-04-09T11:27:15.000Z</time>
      </trkpt>
      <trkpt lat="42.4469" lon="0.04571">
        <ele>721.1</ele>
        <time>2010-04-09T11:27:25.000Z</time>
      </trkpt>
      <trkpt lat="42.44692" lon="0.04567">
        <ele>721.6</ele>
        <time>2010-04-09T11:27:27.000Z</time>
      </trkpt>
      <trkpt lat="42.44713" lon="0.0456">
        <ele>721.1</ele>
        <time>2010-04-09T11:27:38.000Z</time>
      </trkpt>
      <trkpt lat="42.44733" lon="0.04545">
        <ele>722.1</ele>
        <time>2010-04-09T11:27:48.000Z</time>
      </trkpt>
      <trkpt lat="42.44743" lon="0.04533">
        <ele>723.5</ele>
        <time>2010-04-09T11:27:55.000Z</time>
      </trkpt>
      <trkpt lat="42.44748" lon="0.04525">
        <ele>725</ele>
        <time>2010-04-09T11:28:00.000Z</time>
      </trkpt>
      <trkpt lat="42.44758" lon="0.04511">
        <ele>726.4</ele>
        <time>2010-04-09T11:28:08.000Z</time>
      </trkpt>
      <trkpt lat="42.44763" lon="0.04497">
        <ele>728.3</ele>
        <time>2010-04-09T11:28:17.000Z</time>
      </trkpt>
      <trkpt lat="42.44768" lon="0.0448">
        <ele>730.7</ele>
        <time>2010-04-09T11:28:28.000Z</time>
      </trkpt>
      <trkpt lat="42.4477" lon="0.04463">
        <ele>733.1</ele>
        <time>2010-04-09T11:28:39.000Z</time>
      </trkpt>
      <trkpt lat="42.44773" lon="0.04442">
        <ele>736</ele>
        <time>2010-04-09T11:28:51.000Z</time>
      </trkpt>
      <trkpt lat="42.44778" lon="0.04424">
        <ele>738.9</ele>
        <time>2010-04-09T11:29:02.000Z</time>
      </trkpt>
      <trkpt lat="42.44783" lon="0.04423">
        <ele>739.4</ele>
        <time>2010-04-09T11:29:07.000Z</time>
      </trkpt>
      <trkpt lat="42.44792" lon="0.04442">
        <ele>742.3</ele>
        <time>2010-04-09T11:29:19.000Z</time>
      </trkpt>
      <trkpt lat="42.44797" lon="0.04461">
        <ele>744.7</ele>
        <time>2010-04-09T11:29:29.000Z</time>
      </trkpt>
      <trkpt lat="42.44807" lon="0.04462">
        <ele>747.1</ele>
        <time>2010-04-09T11:29:38.000Z</time>
      </trkpt>
      <trkpt lat="42.4481" lon="0.04446">
        <ele>748.5</ele>
        <time>2010-04-09T11:29:47.000Z</time>
      </trkpt>
      <trkpt lat="42.44804" lon="0.04421">
        <ele>750</ele>
        <time>2010-04-09T11:30:00.000Z</time>
      </trkpt>
      <trkpt lat="42.4481" lon="0.04395">
        <ele>752.4</ele>
        <time>2010-04-09T11:30:13.000Z</time>
      </trkpt>
      <trkpt lat="42.44813" lon="0.0439">
        <ele>752.8</ele>
        <time>2010-04-09T11:30:17.000Z</time>
      </trkpt>
      <trkpt lat="42.4482" lon="0.04376">
        <ele>754.3</ele>
        <time>2010-04-09T11:30:26.000Z</time>
      </trkpt>
      <trkpt lat="42.4483" lon="0.04364">
        <ele>755.7</ele>
        <time>2010-04-09T11:30:33.000Z</time>
      </trkpt>
      <trkpt lat="42.44844" lon="0.04347">
        <ele>757.7</ele>
        <time>2010-04-09T11:30:44.000Z</time>
      </trkpt>
      <trkpt lat="42.44855" lon="0.04336">
        <ele>759.6</ele>
        <time>2010-04-09T11:30:52.000Z</time>
      </trkpt>
      <trkpt lat="42.4486" lon="0.04331">
        <ele>760.1</ele>
        <time>2010-04-09T11:30:56.000Z</time>
      </trkpt>
      <trkpt lat="42.44873" lon="0.04313">
        <ele>762.5</ele>
        <time>2010-04-09T11:31:09.000Z</time>
      </trkpt>
      <trkpt lat="42.44884" lon="0.04299">
        <ele>763.9</ele>
        <time>2010-04-09T11:31:18.000Z</time>
      </trkpt>
      <trkpt lat="42.44889" lon="0.04277">
        <ele>765.8</ele>
        <time>2010-04-09T11:31:29.000Z</time>
      </trkpt>
      <trkpt lat="42.44895" lon="0.04258">
        <ele>767.8</ele>
        <time>2010-04-09T11:31:40.000Z</time>
      </trkpt>
      <trkpt lat="42.44895" lon="0.04229">
        <ele>769.7</ele>
        <time>2010-04-09T11:31:53.000Z</time>
      </trkpt>
      <trkpt lat="42.44898" lon="0.04206">
        <ele>772.1</ele>
        <time>2010-04-09T11:32:04.000Z</time>
      </trkpt>
      <trkpt lat="42.44894" lon="0.04183">
        <ele>773.5</ele>
        <time>2010-04-09T11:32:14.000Z</time>
      </trkpt>
      <trkpt lat="42.44882" lon="0.04166">
        <ele>774.5</ele>
        <time>2010-04-09T11:32:23.000Z</time>
      </trkpt>
      <trkpt lat="42.4487" lon="0.04147">
        <ele>775.4</ele>
        <time>2010-04-09T11:32:32.000Z</time>
      </trkpt>
      <trkpt lat="42.44871" lon="0.04125">
        <ele>778.3</ele>
        <time>2010-04-09T11:32:43.000Z</time>
      </trkpt>
      <trkpt lat="42.44871" lon="0.04121">
        <ele>778.3</ele>
        <time>2010-04-09T11:32:46.000Z</time>
      </trkpt>
      <trkpt lat="42.44867" lon="0.04111">
        <ele>778.8</ele>
        <time>2010-04-09T11:32:51.000Z</time>
      </trkpt>
      <trkpt lat="42.44848" lon="0.04098">
        <ele>781.2</ele>
        <time>2010-04-09T11:33:03.000Z</time>
      </trkpt>
      <trkpt lat="42.44833" lon="0.04091">
        <ele>782.2</ele>
        <time>2010-04-09T11:33:12.000Z</time>
      </trkpt>
      <trkpt lat="42.44826" lon="0.04062">
        <ele>784.6</ele>
        <time>2010-04-09T11:33:27.000Z</time>
      </trkpt>
      <trkpt lat="42.4483" lon="0.0404">
        <ele>786.5</ele>
        <time>2010-04-09T11:33:38.000Z</time>
      </trkpt>
      <trkpt lat="42.44836" lon="0.04018">
        <ele>788.9</ele>
        <time>2010-04-09T11:33:49.000Z</time>
      </trkpt>
      <trkpt lat="42.44839" lon="0.03995">
        <ele>790.8</ele>
        <time>2010-04-09T11:34:00.000Z</time>
      </trkpt>
      <trkpt lat="42.44833" lon="0.03975">
        <ele>791.8</ele>
        <time>2010-04-09T11:34:08.000Z</time>
      </trkpt>
      <trkpt lat="42.4483" lon="0.03951">
        <ele>792.7</ele>
        <time>2010-04-09T11:34:19.000Z</time>
      </trkpt>
      <trkpt lat="42.44829" lon="0.03927">
        <ele>794.2</ele>
        <time>2010-04-09T11:34:28.000Z</time>
      </trkpt>
      <trkpt lat="42.44827" lon="0.03915">
        <ele>794.7</ele>
        <time>2010-04-09T11:34:33.000Z</time>
      </trkpt>
      <trkpt lat="42.44826" lon="0.039">
        <ele>795.1</ele>
        <time>2010-04-09T11:34:39.000Z</time>
      </trkpt>
      <trkpt lat="42.44832" lon="0.03865">
        <ele>796.6</ele>
        <time>2010-04-09T11:34:52.000Z</time>
      </trkpt>
      <trkpt lat="42.4482" lon="0.03842">
        <ele>798.5</ele>
        <time>2010-04-09T11:35:02.000Z</time>
      </trkpt>
      <trkpt lat="42.44814" lon="0.03823">
        <ele>800</ele>
        <time>2010-04-09T11:35:11.000Z</time>
      </trkpt>
      <trkpt lat="42.44827" lon="0.03811">
        <ele>801.4</ele>
        <time>2010-04-09T11:35:20.000Z</time>
      </trkpt>
      <trkpt lat="42.44858" lon="0.03812">
        <ele>802.8</ele>
        <time>2010-04-09T11:35:34.000Z</time>
      </trkpt>
      <trkpt lat="42.44868" lon="0.03813">
        <ele>803.3</ele>
        <time>2010-04-09T11:35:39.000Z</time>
      </trkpt>
      <trkpt lat="42.44887" lon="0.03799">
        <ele>805.7</ele>
        <time>2010-04-09T11:35:50.000Z</time>
      </trkpt>
      <trkpt lat="42.44903" lon="0.03787">
        <ele>807.2</ele>
        <time>2010-04-09T11:35:59.000Z</time>
      </trkpt>
      <trkpt lat="42.4492" lon="0.03769">
        <ele>809.6</ele>
        <time>2010-04-09T11:36:11.000Z</time>
      </trkpt>
      <trkpt lat="42.44921" lon="0.03748">
        <ele>811</ele>
        <time>2010-04-09T11:36:21.000Z</time>
      </trkpt>
      <trkpt lat="42.44915" lon="0.0374">
        <ele>812</ele>
        <time>2010-04-09T11:36:26.000Z</time>
      </trkpt>
      <trkpt lat="42.44909" lon="0.03736">
        <ele>812.5</ele>
        <time>2010-04-09T11:36:30.000Z</time>
      </trkpt>
      <trkpt lat="42.44894" lon="0.03716">
        <ele>814.4</ele>
        <time>2010-04-09T11:36:43.000Z</time>
      </trkpt>
      <trkpt lat="42.4489" lon="0.03698">
        <ele>816.3</ele>
        <time>2010-04-09T11:36:54.000Z</time>
      </trkpt>
      <trkpt lat="42.44895" lon="0.03684">
        <ele>817.7</ele>
        <time>2010-04-09T11:37:02.000Z</time>
      </trkpt>
      <trkpt lat="42.44899" lon="0.03672">
        <ele>818.7</ele>
        <time>2010-04-09T11:37:09.000Z</time>
      </trkpt>
      <trkpt lat="42.4491" lon="0.03652">
        <ele>821.6</ele>
        <time>2010-04-09T11:37:21.000Z</time>
      </trkpt>
      <trkpt lat="42.44926" lon="0.03637">
        <ele>823.5</ele>
        <time>2010-04-09T11:37:34.000Z</time>
      </trkpt>
      <trkpt lat="42.44944" lon="0.03632">
        <ele>825.4</ele>
        <time>2010-04-09T11:37:45.000Z</time>
      </trkpt>
      <trkpt lat="42.4495" lon="0.03631">
        <ele>825.9</ele>
        <time>2010-04-09T11:37:49.000Z</time>
      </trkpt>
      <trkpt lat="42.44958" lon="0.03646">
        <ele>827.4</ele>
        <time>2010-04-09T11:37:57.000Z</time>
      </trkpt>
      <trkpt lat="42.44955" lon="0.03652">
        <ele>827.8</ele>
        <time>2010-04-09T11:38:00.000Z</time>
      </trkpt>
      <trkpt lat="42.44938" lon="0.03662">
        <ele>829.8</ele>
        <time>2010-04-09T11:38:11.000Z</time>
      </trkpt>
      <trkpt lat="42.44926" lon="0.03684">
        <ele>831.7</ele>
        <time>2010-04-09T11:38:21.000Z</time>
      </trkpt>
      <trkpt lat="42.44934" lon="0.03701">
        <ele>831.7</ele>
        <time>2010-04-09T11:38:29.000Z</time>
      </trkpt>
      <trkpt lat="42.44961" lon="0.03709">
        <ele>832.6</ele>
        <time>2010-04-09T11:38:40.000Z</time>
      </trkpt>
      <trkpt lat="42.44993" lon="0.03732">
        <ele>834.6</ele>
        <time>2010-04-09T11:38:53.000Z</time>
      </trkpt>
      <trkpt lat="42.45007" lon="0.03757">
        <ele>836</ele>
        <time>2010-04-09T11:39:03.000Z</time>
      </trkpt>
      <trkpt lat="42.45004" lon="0.03787">
        <ele>836.5</ele>
        <time>2010-04-09T11:39:13.000Z</time>
      </trkpt>
      <trkpt lat="42.44988" lon="0.03814">
        <ele>838.4</ele>
        <time>2010-04-09T11:39:24.000Z</time>
      </trkpt>
      <trkpt lat="42.44964" lon="0.03842">
        <ele>840.3</ele>
        <time>2010-04-09T11:39:38.000Z</time>
      </trkpt>
      <trkpt lat="42.44946" lon="0.03865">
        <ele>841.3</ele>
        <time>2010-04-09T11:39:50.000Z</time>
      </trkpt>
      <trkpt lat="42.44942" lon="0.03892">
        <ele>842.7</ele>
        <time>2010-04-09T11:40:00.000Z</time>
      </trkpt>
      <trkpt lat="42.44942" lon="0.03926">
        <ele>844.2</ele>
        <time>2010-04-09T11:40:12.000Z</time>
      </trkpt>
      <trkpt lat="42.44942" lon="0.0394">
        <ele>845.1</ele>
        <time>2010-04-09T11:40:18.000Z</time>
      </trkpt>
      <trkpt lat="42.44952" lon="0.03941">
        <ele>847.5</ele>
        <time>2010-04-09T11:40:27.000Z</time>
      </trkpt>
      <trkpt lat="42.44954" lon="0.03936">
        <ele>848</ele>
        <time>2010-04-09T11:40:30.000Z</time>
      </trkpt>
      <trkpt lat="42.44954" lon="0.03929">
        <ele>848.5</ele>
        <time>2010-04-09T11:40:34.000Z</time>
      </trkpt>
      <trkpt lat="42.44954" lon="0.03926">
        <ele>848.5</ele>
        <time>2010-04-09T11:40:36.000Z</time>
      </trkpt>
      <trkpt lat="42.44956" lon="0.03902">
        <ele>850.9</ele>
        <time>2010-04-09T11:40:49.000Z</time>
      </trkpt>
      <trkpt lat="42.44958" lon="0.03895">
        <ele>851.4</ele>
        <time>2010-04-09T11:40:53.000Z</time>
      </trkpt>
      <trkpt lat="42.44949" lon="0.039">
        <ele>846.6</ele>
        <time>2007-02-22T16:50:58.000Z</time>
      </trkpt>
      <trkpt lat="42.44953" lon="0.03881">
        <ele>849.9</ele>
        <time>2007-02-22T16:51:00.000Z</time>
      </trkpt>
      <trkpt lat="42.44987" lon="0.03851">
        <ele>854.7</ele>
        <time>2007-02-22T16:51:06.000Z</time>
      </trkpt>
      <trkpt lat="42.45009" lon="0.03845">
        <ele>855.7</ele>
        <time>2007-02-22T16:51:09.000Z</time>
      </trkpt>
      <trkpt lat="42.45041" lon="0.03819">
        <ele>856.2</ele>
        <time>2007-02-22T16:51:14.000Z</time>
      </trkpt>
      <trkpt lat="42.45058" lon="0.0378">
        <ele>857.6</ele>
        <time>2007-02-22T16:51:18.000Z</time>
      </trkpt>
      <trkpt lat="42.45062" lon="0.0377">
        <ele>858.1</ele>
        <time>2007-02-22T16:51:19.000Z</time>
      </trkpt>
      <trkpt lat="42.45071" lon="0.03738">
        <ele>861.5</ele>
        <time>2007-02-22T16:51:22.000Z</time>
      </trkpt>
      <trkpt lat="42.45088" lon="0.03703">
        <ele>865.3</ele>
        <time>2007-02-22T16:51:26.000Z</time>
      </trkpt>
      <trkpt lat="42.45103" lon="0.03695">
        <ele>866.3</ele>
        <time>2007-02-22T16:51:28.000Z</time>
      </trkpt>
      <trkpt lat="42.45116" lon="0.03682">
        <ele>867.7</ele>
        <time>2007-02-22T16:51:30.000Z</time>
      </trkpt>
      <trkpt lat="42.45126" lon="0.03667">
        <ele>869.2</ele>
        <time>2007-02-22T16:51:32.000Z</time>
      </trkpt>
      <trkpt lat="42.45127" lon="0.03656">
        <ele>869.2</ele>
        <time>2007-02-22T16:51:33.000Z</time>
      </trkpt>
      <trkpt lat="42.45124" lon="0.03629">
        <ele>873</ele>
        <time>2007-02-22T16:51:36.000Z</time>
      </trkpt>
      <trkpt lat="42.45125" lon="0.03575">
        <ele>874</ele>
        <time>2007-02-22T16:51:42.000Z</time>
      </trkpt>
      <trkpt lat="42.45114" lon="0.03546">
        <ele>874.5</ele>
        <time>2007-02-22T16:51:45.000Z</time>
      </trkpt>
      <trkpt lat="42.45105" lon="0.03527">
        <ele>876.4</ele>
        <time>2007-02-22T16:51:47.000Z</time>
      </trkpt>
      <trkpt lat="42.4509" lon="0.03484">
        <ele>879.3</ele>
        <time>2007-02-22T16:51:51.000Z</time>
      </trkpt>
      <trkpt lat="42.45077" lon="0.03454">
        <ele>884.1</ele>
        <time>2007-02-22T16:51:54.000Z</time>
      </trkpt>
      <trkpt lat="42.45057" lon="0.03419">
        <ele>887.9</ele>
        <time>2007-02-22T16:51:58.000Z</time>
      </trkpt>
      <trkpt lat="42.4504" lon="0.03383">
        <ele>891.8</ele>
        <time>2007-02-22T16:52:02.000Z</time>
      </trkpt>
      <trkpt lat="42.45029" lon="0.0336">
        <ele>895.6</ele>
        <time>2007-02-22T16:52:05.000Z</time>
      </trkpt>
      <trkpt lat="42.45017" lon="0.0333">
        <ele>899</ele>
        <time>2007-02-22T16:52:10.000Z</time>
      </trkpt>
      <trkpt lat="42.45012" lon="0.03304">
        <ele>901.9</ele>
        <time>2007-02-22T16:52:19.000Z</time>
      </trkpt>
      <trkpt lat="42.45018" lon="0.03282">
        <ele>903.3</ele>
        <time>2007-02-22T16:52:24.000Z</time>
      </trkpt>
      <trkpt lat="42.45026" lon="0.03278">
        <ele>903.8</ele>
        <time>2007-02-22T16:52:26.000Z</time>
      </trkpt>
      <trkpt lat="42.45047" lon="0.03282">
        <ele>904.7</ele>
        <time>2007-02-22T16:52:33.000Z</time>
      </trkpt>
      <trkpt lat="42.45052" lon="0.03285">
        <ele>905.7</ele>
        <time>2007-02-22T16:52:34.000Z</time>
      </trkpt>
      <trkpt lat="42.45068" lon="0.03276">
        <ele>906.7</ele>
        <time>2007-02-22T16:52:37.000Z</time>
      </trkpt>
      <trkpt lat="42.4507" lon="0.03256">
        <ele>908.1</ele>
        <time>2007-02-22T16:52:39.000Z</time>
      </trkpt>
      <trkpt lat="42.45069" lon="0.03234">
        <ele>911</ele>
        <time>2007-02-22T16:52:41.000Z</time>
      </trkpt>
      <trkpt lat="42.45074" lon="0.03205">
        <ele>913.9</ele>
        <time>2007-02-22T16:52:44.000Z</time>
      </trkpt>
      <trkpt lat="42.45094" lon="0.03173">
        <ele>917.7</ele>
        <time>2007-02-22T16:52:48.000Z</time>
      </trkpt>
      <trkpt lat="42.45129" lon="0.03137">
        <ele>920.1</ele>
        <time>2007-02-22T16:52:54.000Z</time>
      </trkpt>
      <trkpt lat="42.45134" lon="0.03131">
        <ele>920.1</ele>
        <time>2007-02-22T16:52:55.000Z</time>
      </trkpt>
      <trkpt lat="42.45151" lon="0.03092">
        <ele>922.5</ele>
        <time>2007-02-22T16:53:00.000Z</time>
      </trkpt>
      <trkpt lat="42.45133" lon="0.03068">
        <ele>925.4</ele>
        <time>2007-02-22T16:53:05.000Z</time>
      </trkpt>
      <trkpt lat="42.45126" lon="0.03067">
        <ele>926.4</ele>
        <time>2007-02-22T16:53:06.000Z</time>
      </trkpt>
      <trkpt lat="42.45105" lon="0.03062">
        <ele>929.3</ele>
        <time>2007-02-22T16:53:09.000Z</time>
      </trkpt>
      <trkpt lat="42.45098" lon="0.03061">
        <ele>929.3</ele>
        <time>2007-02-22T16:53:10.000Z</time>
      </trkpt>
      <trkpt lat="42.45051" lon="0.0305">
        <ele>931.7</ele>
        <time>2007-02-22T16:53:17.000Z</time>
      </trkpt>
      <trkpt lat="42.4498" lon="0.0305">
        <ele>931.7</ele>
        <time>2007-02-22T16:53:27.000Z</time>
      </trkpt>
      <trkpt lat="42.44955" lon="0.03049">
        <ele>933.6</ele>
        <time>2007-02-22T16:53:30.000Z</time>
      </trkpt>
      <trkpt lat="42.44939" lon="0.03045">
        <ele>936</ele>
        <time>2007-02-22T16:53:32.000Z</time>
      </trkpt>
      <trkpt lat="42.44917" lon="0.03034">
        <ele>938.4</ele>
        <time>2007-02-22T16:53:35.000Z</time>
      </trkpt>
      <trkpt lat="42.44892" lon="0.03009">
        <ele>937.4</ele>
        <time>2007-02-22T16:53:39.000Z</time>
      </trkpt>
      <trkpt lat="42.44884" lon="0.02989">
        <ele>939.3</ele>
        <time>2007-02-22T16:53:41.000Z</time>
      </trkpt>
      <trkpt lat="42.4488" lon="0.02978">
        <ele>939.8</ele>
        <time>2007-02-22T16:53:42.000Z</time>
      </trkpt>
      <trkpt lat="42.44864" lon="0.02951">
        <ele>942.7</ele>
        <time>2007-02-22T16:53:45.000Z</time>
      </trkpt>
      <trkpt lat="42.44851" lon="0.02939">
        <ele>944.2</ele>
        <time>2007-02-22T16:53:47.000Z</time>
      </trkpt>
      <trkpt lat="42.44813" lon="0.02908">
        <ele>948</ele>
        <time>2007-02-22T16:53:53.000Z</time>
      </trkpt>
      <trkpt lat="42.44807" lon="0.02889">
        <ele>950.4</ele>
        <time>2007-02-22T16:53:55.000Z</time>
      </trkpt>
      <trkpt lat="42.44796" lon="0.02826">
        <ele>952.3</ele>
        <time>2007-02-22T16:54:01.000Z</time>
      </trkpt>
      <trkpt lat="42.44792" lon="0.02816">
        <ele>953.3</ele>
        <time>2007-02-22T16:54:02.000Z</time>
      </trkpt>
      <trkpt lat="42.44776" lon="0.0278">
        <ele>955.2</ele>
        <time>2007-02-22T16:54:06.000Z</time>
      </trkpt>
      <trkpt lat="42.44768" lon="0.02764">
        <ele>957.6</ele>
        <time>2007-02-22T16:54:08.000Z</time>
      </trkpt>
      <trkpt lat="42.44764" lon="0.02756">
        <ele>958.6</ele>
        <time>2007-02-22T16:54:09.000Z</time>
      </trkpt>
      <trkpt lat="42.44758" lon="0.02722">
        <ele>961.5</ele>
        <time>2007-02-22T16:54:13.000Z</time>
      </trkpt>
      <trkpt lat="42.44765" lon="0.02698">
        <ele>963.4</ele>
        <time>2007-02-22T16:54:16.000Z</time>
      </trkpt>
      <trkpt lat="42.44768" lon="0.02691">
        <ele>963.9</ele>
        <time>2007-02-22T16:54:17.000Z</time>
      </trkpt>
      <trkpt lat="42.44801" lon="0.02647">
        <ele>965.8</ele>
        <time>2007-02-22T16:54:25.000Z</time>
      </trkpt>
      <trkpt lat="42.44821" lon="0.02612">
        <ele>967.2</ele>
        <time>2007-02-22T16:54:31.000Z</time>
      </trkpt>
      <trkpt lat="42.44822" lon="0.02597">
        <ele>966.7</ele>
        <time>2007-02-22T16:54:33.000Z</time>
      </trkpt>
      <trkpt lat="42.44825" lon="0.0256">
        <ele>968.2</ele>
        <time>2007-02-22T16:54:38.000Z</time>
      </trkpt>
      <trkpt lat="42.44814" lon="0.02533">
        <ele>967.7</ele>
        <time>2007-02-22T16:54:43.000Z</time>
      </trkpt>
      <trkpt lat="42.44777" lon="0.02521">
        <ele>967.7</ele>
        <time>2007-02-22T16:54:50.000Z</time>
      </trkpt>
      <trkpt lat="42.44766" lon="0.02516">
        <ele>968.2</ele>
        <time>2007-02-22T16:54:52.000Z</time>
      </trkpt>
      <trkpt lat="42.44753" lon="0.02498">
        <ele>969.1</ele>
        <time>2007-02-22T16:54:55.000Z</time>
      </trkpt>
      <trkpt lat="42.44748" lon="0.02481">
        <ele>970.1</ele>
        <time>2007-02-22T16:54:57.000Z</time>
      </trkpt>
      <trkpt lat="42.4474" lon="0.02467">
        <ele>970.1</ele>
        <time>2007-02-22T16:54:59.000Z</time>
      </trkpt>
      <trkpt lat="42.44714" lon="0.02455">
        <ele>973</ele>
        <time>2007-02-22T16:55:03.000Z</time>
      </trkpt>
      <trkpt lat="42.44707" lon="0.02454">
        <ele>973</ele>
        <time>2007-02-22T16:55:04.000Z</time>
      </trkpt>
      <trkpt lat="42.44687" lon="0.02427">
        <ele>975.4</ele>
        <time>2007-02-22T16:55:09.000Z</time>
      </trkpt>
      <trkpt lat="42.44687" lon="0.0242">
        <ele>975.9</ele>
        <time>2007-02-22T16:55:10.000Z</time>
      </trkpt>
      <trkpt lat="42.44689" lon="0.02338">
        <ele>977.8</ele>
        <time>2007-02-22T16:55:24.000Z</time>
      </trkpt>
      <trkpt lat="42.44688" lon="0.02315">
        <ele>977.8</ele>
        <time>2007-02-22T16:55:28.000Z</time>
      </trkpt>
      <trkpt lat="42.44659" lon="0.02274">
        <ele>977.8</ele>
        <time>2007-02-22T16:55:36.000Z</time>
      </trkpt>
      <trkpt lat="42.44619" lon="0.02261">
        <ele>980.2</ele>
        <time>2007-02-22T16:55:42.000Z</time>
      </trkpt>
      <trkpt lat="42.44605" lon="0.02261">
        <ele>980.7</ele>
        <time>2007-02-22T16:55:44.000Z</time>
      </trkpt>
      <trkpt lat="42.44584" lon="0.02272">
        <ele>983.6</ele>
        <time>2007-02-22T16:55:47.000Z</time>
      </trkpt>
      <trkpt lat="42.44571" lon="0.02279">
        <ele>985</ele>
        <time>2007-02-22T16:55:49.000Z</time>
      </trkpt>
      <trkpt lat="42.4454" lon="0.02257">
        <ele>988.4</ele>
        <time>2007-02-22T16:55:55.000Z</time>
      </trkpt>
      <trkpt lat="42.44533" lon="0.02241">
        <ele>989.8</ele>
        <time>2007-02-22T16:55:57.000Z</time>
      </trkpt>
      <trkpt lat="42.44524" lon="0.02221">
        <ele>993.2</ele>
        <time>2007-02-22T16:56:00.000Z</time>
      </trkpt>
      <trkpt lat="42.44513" lon="0.022">
        <ele>997</ele>
        <time>2007-02-22T16:56:06.000Z</time>
      </trkpt>
      <trkpt lat="42.4451" lon="0.02196">
        <ele>997.5</ele>
        <time>2007-02-22T16:56:12.000Z</time>
      </trkpt>
      <trkpt lat="42.44516" lon="0.02178">
        <ele>998.9</ele>
        <time>2007-02-22T16:56:17.000Z</time>
      </trkpt>
      <trkpt lat="42.44527" lon="0.02177">
        <ele>1001.8</ele>
        <time>2007-02-22T16:56:19.000Z</time>
      </trkpt>
      <trkpt lat="42.44541" lon="0.02175">
        <ele>1005.2</ele>
        <time>2007-02-22T16:56:22.000Z</time>
      </trkpt>
      <trkpt lat="42.44556" lon="0.02178">
        <ele>1008.1</ele>
        <time>2007-02-22T16:56:26.000Z</time>
      </trkpt>
      <trkpt lat="42.44561" lon="0.0218">
        <ele>1008.6</ele>
        <time>2007-02-22T16:56:27.000Z</time>
      </trkpt>
      <trkpt lat="42.44569" lon="0.02187">
        <ele>1010.5</ele>
        <time>2007-02-22T16:56:29.000Z</time>
      </trkpt>
      <trkpt lat="42.4458" lon="0.02197">
        <ele>1012.4</ele>
        <time>2007-02-22T16:56:32.000Z</time>
      </trkpt>
      <trkpt lat="42.44603" lon="0.02197">
        <ele>1012.9</ele>
        <time>2007-02-22T16:56:38.000Z</time>
      </trkpt>
      <trkpt lat="42.44634" lon="0.02192">
        <ele>1014.8</ele>
        <time>2007-02-22T16:56:44.000Z</time>
      </trkpt>
      <trkpt lat="42.44688" lon="0.02201">
        <ele>1016.3</ele>
        <time>2007-02-22T16:56:55.000Z</time>
      </trkpt>
      <trkpt lat="42.447" lon="0.02208">
        <ele>1017.2</ele>
        <time>2007-02-22T16:56:58.000Z</time>
      </trkpt>
      <trkpt lat="42.44718" lon="0.02239">
        <ele>1016.7</ele>
        <time>2007-02-22T16:57:08.000Z</time>
      </trkpt>
      <trkpt lat="42.44733" lon="0.023">
        <ele>1014.8</ele>
        <time>2007-02-22T16:57:21.000Z</time>
      </trkpt>
      <trkpt lat="42.44748" lon="0.02365">
        <ele>1011.9</ele>
        <time>2007-02-22T16:57:35.000Z</time>
      </trkpt>
      <trkpt lat="42.4477" lon="0.02402">
        <ele>1009</ele>
        <time>2007-02-22T16:57:44.000Z</time>
      </trkpt>
      <trkpt lat="42.44795" lon="0.02422">
        <ele>1010.5</ele>
        <time>2007-02-22T16:57:51.000Z</time>
      </trkpt>
      <trkpt lat="42.44809" lon="0.02433">
        <ele>1009.5</ele>
        <time>2007-02-22T16:57:55.000Z</time>
      </trkpt>
      <trkpt lat="42.44843" lon="0.02448">
        <ele>1008.6</ele>
        <time>2007-02-22T16:58:04.000Z</time>
      </trkpt>
      <trkpt lat="42.44862" lon="0.02444">
        <ele>1008.1</ele>
        <time>2007-02-22T16:58:08.000Z</time>
      </trkpt>
      <trkpt lat="42.44879" lon="0.02438">
        <ele>1008.1</ele>
        <time>2007-02-22T16:58:12.000Z</time>
      </trkpt>
      <trkpt lat="42.44898" lon="0.02442">
        <ele>1008.1</ele>
        <time>2007-02-22T16:58:16.000Z</time>
      </trkpt>
      <trkpt lat="42.44905" lon="0.02452">
        <ele>1008.6</ele>
        <time>2007-02-22T16:58:18.000Z</time>
      </trkpt>
      <trkpt lat="42.44914" lon="0.02469">
        <ele>1008.6</ele>
        <time>2007-02-22T16:58:21.000Z</time>
      </trkpt>
      <trkpt lat="42.44917" lon="0.0249">
        <ele>1010.5</ele>
        <time>2007-02-22T16:58:24.000Z</time>
      </trkpt>
      <trkpt lat="42.44913" lon="0.02498">
        <ele>1011</ele>
        <time>2007-02-22T16:58:26.000Z</time>
      </trkpt>
      <trkpt lat="42.449" lon="0.02545">
        <ele>1009.5</ele>
        <time>2007-02-22T16:58:37.000Z</time>
      </trkpt>
      <trkpt lat="42.44888" lon="0.02595">
        <ele>1009</ele>
        <time>2007-02-22T16:58:47.000Z</time>
      </trkpt>
      <trkpt lat="42.44883" lon="0.02645">
        <ele>1008.6</ele>
        <time>2007-02-22T16:58:59.000Z</time>
      </trkpt>
      <trkpt lat="42.44877" lon="0.02668">
        <ele>1008.6</ele>
        <time>2007-02-22T16:59:05.000Z</time>
      </trkpt>
      <trkpt lat="42.44869" lon="0.02681">
        <ele>1004.7</ele>
        <time>2007-02-22T16:59:11.000Z</time>
      </trkpt>
      <trkpt lat="42.44871" lon="0.02705">
        <ele>1004.7</ele>
        <time>2007-02-22T16:59:21.000Z</time>
      </trkpt>
      <trkpt lat="42.44872" lon="0.02707">
        <ele>1003.8</ele>
        <time>2007-02-22T16:59:28.000Z</time>
      </trkpt>
      <trkpt lat="42.44872" lon="0.02708">
        <ele>1004.2</ele>
        <time>2007-02-22T17:00:55.000Z</time>
      </trkpt>
      <trkpt lat="42.44873" lon="0.02711">
        <ele>1004.7</ele>
        <time>2007-02-22T17:01:07.000Z</time>
      </trkpt>
      <trkpt lat="42.44878" lon="0.02722">
        <ele>1003.8</ele>
        <time>2007-02-22T17:01:14.000Z</time>
      </trkpt>
      <trkpt lat="42.44888" lon="0.02734">
        <ele>1003.3</ele>
        <time>2007-02-22T17:01:21.000Z</time>
      </trkpt>
      <trkpt lat="42.44905" lon="0.02755">
        <ele>1002.3</ele>
        <time>2007-02-22T17:01:32.000Z</time>
      </trkpt>
      <trkpt lat="42.44929" lon="0.0278">
        <ele>999.9</ele>
        <time>2007-02-22T17:01:48.000Z</time>
      </trkpt>
      <trkpt lat="42.44947" lon="0.02799">
        <ele>997</ele>
        <time>2007-02-22T17:02:01.000Z</time>
      </trkpt>
      <trkpt lat="42.44963" lon="0.02827">
        <ele>993.7</ele>
        <time>2007-02-22T17:02:14.000Z</time>
      </trkpt>
      <trkpt lat="42.4498" lon="0.02846">
        <ele>991.3</ele>
        <time>2007-02-22T17:02:25.000Z</time>
      </trkpt>
      <trkpt lat="42.45012" lon="0.02866">
        <ele>988.4</ele>
        <time>2007-02-22T17:02:40.000Z</time>
      </trkpt>
      <trkpt lat="42.45036" lon="0.02881">
        <ele>986</ele>
        <time>2007-02-22T17:02:51.000Z</time>
      </trkpt>
      <trkpt lat="42.4507" lon="0.02896">
        <ele>984</ele>
        <time>2007-02-22T17:03:06.000Z</time>
      </trkpt>
      <trkpt lat="42.45096" lon="0.02898">
        <ele>981.6</ele>
        <time>2007-02-22T17:03:16.000Z</time>
      </trkpt>
      <trkpt lat="42.4512" lon="0.02882">
        <ele>978.8</ele>
        <time>2007-02-22T17:03:26.000Z</time>
      </trkpt>
      <trkpt lat="42.45149" lon="0.02845">
        <ele>978.3</ele>
        <time>2007-02-22T17:03:38.000Z</time>
      </trkpt>
      <trkpt lat="42.45155" lon="0.02841">
        <ele>977.8</ele>
        <time>2007-02-22T17:03:40.000Z</time>
      </trkpt>
      <trkpt lat="42.45175" lon="0.02862">
        <ele>974.9</ele>
        <time>2007-02-22T17:03:47.000Z</time>
      </trkpt>
      <trkpt lat="42.45184" lon="0.02893">
        <ele>976.4</ele>
        <time>2007-02-22T17:03:51.000Z</time>
      </trkpt>
      <trkpt lat="42.4519" lon="0.02923">
        <ele>980.2</ele>
        <time>2007-02-22T17:03:56.000Z</time>
      </trkpt>
      <trkpt lat="42.45213" lon="0.02949">
        <ele>978.8</ele>
        <time>2007-02-22T17:04:02.000Z</time>
      </trkpt>
      <trkpt lat="42.45222" lon="0.02958">
        <ele>979.7</ele>
        <time>2007-02-22T17:04:04.000Z</time>
      </trkpt>
      <trkpt lat="42.45243" lon="0.02968">
        <ele>982.1</ele>
        <time>2007-02-22T17:04:08.000Z</time>
      </trkpt>
      <trkpt lat="42.45252" lon="0.02974">
        <ele>982.1</ele>
        <time>2007-02-22T17:04:10.000Z</time>
      </trkpt>
      <trkpt lat="42.4527" lon="0.02987">
        <ele>984.5</ele>
        <time>2007-02-22T17:04:14.000Z</time>
      </trkpt>
      <trkpt lat="42.45277" lon="0.02991">
        <ele>985.5</ele>
        <time>2007-02-22T17:04:16.000Z</time>
      </trkpt>
      <trkpt lat="42.45295" lon="0.03003">
        <ele>988.9</ele>
        <time>2007-02-22T17:04:22.000Z</time>
      </trkpt>
      <trkpt lat="42.45312" lon="0.03029">
        <ele>990.3</ele>
        <time>2007-02-22T17:04:37.000Z</time>
      </trkpt>
      <trkpt lat="42.45312" lon="0.03081">
        <ele>990.3</ele>
        <time>2007-02-22T17:05:43.000Z</time>
      </trkpt>
      <trkpt lat="42.45341" lon="0.03096">
        <ele>984.5</ele>
        <time>2007-02-22T17:06:30.000Z</time>
      </trkpt>
      <trkpt lat="42.45351" lon="0.03178">
        <ele>981.2</ele>
        <time>2007-02-22T17:06:48.000Z</time>
      </trkpt>
      <trkpt lat="42.45351" lon="0.03178">
        <ele>981.2</ele>
        <time>2007-02-22T17:06:48.000Z</time>
      </trkpt>
      <trkpt lat="42.45385" lon="0.03146">
        <ele>979.2</ele>
        <time>2007-02-22T17:07:04.000Z</time>
      </trkpt>
      <trkpt lat="42.45417" lon="0.0314">
        <ele>978.3</ele>
        <time>2007-02-22T17:07:12.000Z</time>
      </trkpt>
      <trkpt lat="42.45423" lon="0.03109">
        <ele>977.8</ele>
        <time>2007-02-22T17:07:14.000Z</time>
      </trkpt>
      <trkpt lat="42.45388" lon="0.03041">
        <ele>977.8</ele>
        <time>2007-02-22T17:07:20.000Z</time>
      </trkpt>
      <trkpt lat="42.45386" lon="0.03037">
        <ele>977.3</ele>
        <time>2007-02-22T17:07:39.000Z</time>
      </trkpt>
      <trkpt lat="42.4538" lon="0.03026">
        <ele>976.8</ele>
        <time>2007-02-22T17:07:49.000Z</time>
      </trkpt>
      <trkpt lat="42.45366" lon="0.02993">
        <ele>976.4</ele>
        <time>2007-02-22T17:08:02.000Z</time>
      </trkpt>
      <trkpt lat="42.45357" lon="0.02963">
        <ele>976.4</ele>
        <time>2007-02-22T17:08:14.000Z</time>
      </trkpt>
      <trkpt lat="42.45358" lon="0.02961">
        <ele>976.4</ele>
        <time>2007-02-22T17:08:15.000Z</time>
      </trkpt>
      <trkpt lat="42.45363" lon="0.02922">
        <ele>973</ele>
        <time>2007-02-22T17:08:30.000Z</time>
      </trkpt>
      <trkpt lat="42.4537" lon="0.02876">
        <ele>974.4</ele>
        <time>2007-02-22T17:08:40.000Z</time>
      </trkpt>
      <trkpt lat="42.45372" lon="0.02866">
        <ele>974</ele>
        <time>2007-02-22T17:08:42.000Z</time>
      </trkpt>
      <trkpt lat="42.45374" lon="0.02854">
        <ele>974.9</ele>
        <time>2007-02-22T17:08:44.000Z</time>
      </trkpt>
      <trkpt lat="42.45377" lon="0.02851">
        <ele>975.9</ele>
        <time>2007-02-22T17:08:45.000Z</time>
      </trkpt>
      <trkpt lat="42.454" lon="0.02842">
        <ele>979.2</ele>
        <time>2007-02-22T17:08:53.000Z</time>
      </trkpt>
      <trkpt lat="42.45419" lon="0.0285">
        <ele>980.2</ele>
        <time>2007-02-22T17:08:59.000Z</time>
      </trkpt>
      <trkpt lat="42.45428" lon="0.02852">
        <ele>982.1</ele>
        <time>2007-02-22T17:09:02.000Z</time>
      </trkpt>
      <trkpt lat="42.45461" lon="0.0286">
        <ele>982.6</ele>
        <time>2007-02-22T17:09:13.000Z</time>
      </trkpt>
      <trkpt lat="42.45495" lon="0.02856">
        <ele>981.6</ele>
        <time>2007-02-22T17:09:28.000Z</time>
      </trkpt>
      <trkpt lat="42.45518" lon="0.02853">
        <ele>979.2</ele>
        <time>2007-02-22T17:09:41.000Z</time>
      </trkpt>
      <trkpt lat="42.4552" lon="0.02856">
        <ele>979.2</ele>
        <time>2007-02-22T17:09:43.000Z</time>
      </trkpt>
      <trkpt lat="42.45524" lon="0.02868">
        <ele>977.3</ele>
        <time>2007-02-22T17:09:51.000Z</time>
      </trkpt>
      <trkpt lat="42.45526" lon="0.02875">
        <ele>976.4</ele>
        <time>2007-02-22T17:09:56.000Z</time>
      </trkpt>
      <trkpt lat="42.45535" lon="0.02893">
        <ele>974</ele>
        <time>2007-02-22T17:10:09.000Z</time>
      </trkpt>
      <trkpt lat="42.45545" lon="0.02904">
        <ele>971.1</ele>
        <time>2007-02-22T17:10:19.000Z</time>
      </trkpt>
      <trkpt lat="42.45562" lon="0.02915">
        <ele>968.2</ele>
        <time>2007-02-22T17:10:31.000Z</time>
      </trkpt>
      <trkpt lat="42.45577" lon="0.0293">
        <ele>965.3</ele>
        <time>2007-02-22T17:10:43.000Z</time>
      </trkpt>
      <trkpt lat="42.45593" lon="0.02943">
        <ele>963.4</ele>
        <time>2007-02-22T17:10:55.000Z</time>
      </trkpt>
      <trkpt lat="42.45614" lon="0.02955">
        <ele>961.5</ele>
        <time>2007-02-22T17:11:07.000Z</time>
      </trkpt>
      <trkpt lat="42.45634" lon="0.02961">
        <ele>961.5</ele>
        <time>2007-02-22T17:11:19.000Z</time>
      </trkpt>
      <trkpt lat="42.4564" lon="0.02968">
        <ele>960.5</ele>
        <time>2007-02-22T17:11:32.000Z</time>
      </trkpt>
      <trkpt lat="42.4564" lon="0.02968">
        <ele>960.5</ele>
        <time>2007-02-22T17:11:33.000Z</time>
      </trkpt>
      <trkpt lat="42.45651" lon="0.02972">
        <ele>959.1</ele>
        <time>2007-02-22T17:11:47.000Z</time>
      </trkpt>
      <trkpt lat="42.45655" lon="0.0297">
        <ele>957.1</ele>
        <time>2007-02-22T17:11:53.000Z</time>
      </trkpt>
      <trkpt lat="42.45658" lon="0.02956">
        <ele>954.7</ele>
        <time>2007-02-22T17:12:06.000Z</time>
      </trkpt>
      <trkpt lat="42.45663" lon="0.02945">
        <ele>952.3</ele>
        <time>2007-02-22T17:12:17.000Z</time>
      </trkpt>
      <trkpt lat="42.45667" lon="0.02947">
        <ele>951.8</ele>
        <time>2007-02-22T17:12:21.000Z</time>
      </trkpt>
      <trkpt lat="42.45672" lon="0.02962">
        <ele>949.9</ele>
        <time>2007-02-22T17:12:33.000Z</time>
      </trkpt>
      <trkpt lat="42.45675" lon="0.02981">
        <ele>948</ele>
        <time>2007-02-22T17:12:48.000Z</time>
      </trkpt>
      <trkpt lat="42.45677" lon="0.02988">
        <ele>947</ele>
        <time>2007-02-22T17:12:54.000Z</time>
      </trkpt>
      <trkpt lat="42.45678" lon="0.02992">
        <ele>945.6</ele>
        <time>2007-02-22T17:12:58.000Z</time>
      </trkpt>
      <trkpt lat="42.4568" lon="0.02996">
        <ele>944.2</ele>
        <time>2007-02-22T17:13:02.000Z</time>
      </trkpt>
      <trkpt lat="42.45683" lon="0.03007">
        <ele>943.2</ele>
        <time>2007-02-22T17:13:12.000Z</time>
      </trkpt>
      <trkpt lat="42.45689" lon="0.03019">
        <ele>940.3</ele>
        <time>2007-02-22T17:13:22.000Z</time>
      </trkpt>
      <trkpt lat="42.45692" lon="0.03046">
        <ele>936.5</ele>
        <time>2007-02-22T17:13:35.000Z</time>
      </trkpt>
      <trkpt lat="42.45687" lon="0.03065">
        <ele>933.1</ele>
        <time>2007-02-22T17:13:47.000Z</time>
      </trkpt>
      <trkpt lat="42.45674" lon="0.03077">
        <ele>932.1</ele>
        <time>2007-02-22T17:13:59.000Z</time>
      </trkpt>
      <trkpt lat="42.4567" lon="0.03077">
        <ele>933.1</ele>
        <time>2007-02-22T17:15:10.000Z</time>
      </trkpt>
      <trkpt lat="42.4567" lon="0.03077">
        <ele>933.1</ele>
        <time>2007-02-22T17:15:10.000Z</time>
      </trkpt>
      <trkpt lat="42.4567" lon="0.03078">
        <ele>933.1</ele>
        <time>2007-02-22T17:15:33.000Z</time>
      </trkpt>
      <trkpt lat="42.45669" lon="0.03083">
        <ele>933.6</ele>
        <time>2007-02-22T17:15:49.000Z</time>
      </trkpt>
      <trkpt lat="42.4567" lon="0.03088">
        <ele>932.6</ele>
        <time>2007-02-22T17:15:59.000Z</time>
      </trkpt>
      <trkpt lat="42.4568" lon="0.03101">
        <ele>929.7</ele>
        <time>2007-02-22T17:16:12.000Z</time>
      </trkpt>
      <trkpt lat="42.4569" lon="0.03113">
        <ele>929.7</ele>
        <time>2007-02-22T17:16:26.000Z</time>
      </trkpt>
      <trkpt lat="42.4569" lon="0.03114">
        <ele>929.7</ele>
        <time>2007-02-22T17:16:27.000Z</time>
      </trkpt>
      <trkpt lat="42.4569" lon="0.03124">
        <ele>927.3</ele>
        <time>2007-02-22T17:16:38.000Z</time>
      </trkpt>
      <trkpt lat="42.45694" lon="0.03127">
        <ele>927.8</ele>
        <time>2007-02-22T17:16:49.000Z</time>
      </trkpt>
      <trkpt lat="42.45699" lon="0.03137">
        <ele>926.4</ele>
        <time>2007-02-22T17:17:02.000Z</time>
      </trkpt>
      <trkpt lat="42.45705" lon="0.0315">
        <ele>924.4</ele>
        <time>2007-02-22T17:17:15.000Z</time>
      </trkpt>
      <trkpt lat="42.45708" lon="0.03152">
        <ele>924</ele>
        <time>2007-02-22T17:17:18.000Z</time>
      </trkpt>
      <trkpt lat="42.45713" lon="0.03156">
        <ele>923.5</ele>
        <time>2007-02-22T17:17:25.000Z</time>
      </trkpt>
      <trkpt lat="42.45711" lon="0.03165">
        <ele>922</ele>
        <time>2007-02-22T17:17:32.000Z</time>
      </trkpt>
      <trkpt lat="42.45712" lon="0.03168">
        <ele>921.1</ele>
        <time>2007-02-22T17:17:35.000Z</time>
      </trkpt>
      <trkpt lat="42.45715" lon="0.03174">
        <ele>921.1</ele>
        <time>2007-02-22T17:17:43.000Z</time>
      </trkpt>
      <trkpt lat="42.45718" lon="0.03178">
        <ele>919.2</ele>
        <time>2007-02-22T17:17:47.000Z</time>
      </trkpt>
      <trkpt lat="42.45724" lon="0.03189">
        <ele>918.7</ele>
        <time>2007-02-22T17:17:57.000Z</time>
      </trkpt>
      <trkpt lat="42.45727" lon="0.03196">
        <ele>918.7</ele>
        <time>2007-02-22T17:18:08.000Z</time>
      </trkpt>
      <trkpt lat="42.45731" lon="0.03205">
        <ele>917.2</ele>
        <time>2007-02-22T17:18:19.000Z</time>
      </trkpt>
      <trkpt lat="42.45734" lon="0.03207">
        <ele>917.2</ele>
        <time>2007-02-22T17:18:30.000Z</time>
      </trkpt>
      <trkpt lat="42.4574" lon="0.03213">
        <ele>915.8</ele>
        <time>2007-02-22T17:18:41.000Z</time>
      </trkpt>
      <trkpt lat="42.45747" lon="0.03221">
        <ele>914.8</ele>
        <time>2007-02-22T17:18:52.000Z</time>
      </trkpt>
      <trkpt lat="42.45748" lon="0.03219">
        <ele>914.8</ele>
        <time>2007-02-22T17:19:01.000Z</time>
      </trkpt>
      <trkpt lat="42.45754" lon="0.03225">
        <ele>913.4</ele>
        <time>2007-02-22T17:19:15.000Z</time>
      </trkpt>
      <trkpt lat="42.45761" lon="0.03234">
        <ele>912.9</ele>
        <time>2007-02-22T17:19:29.000Z</time>
      </trkpt>
      <trkpt lat="42.45772" lon="0.03256">
        <ele>910</ele>
        <time>2007-02-22T17:19:46.000Z</time>
      </trkpt>
      <trkpt lat="42.45772" lon="0.03257">
        <ele>910.5</ele>
        <time>2007-02-22T17:19:47.000Z</time>
      </trkpt>
      <trkpt lat="42.45784" lon="0.03272">
        <ele>907.6</ele>
        <time>2007-02-22T17:20:03.000Z</time>
      </trkpt>
      <trkpt lat="42.45794" lon="0.03281">
        <ele>906.2</ele>
        <time>2007-02-22T17:20:14.000Z</time>
      </trkpt>
      <trkpt lat="42.45803" lon="0.03293">
        <ele>904.3</ele>
        <time>2007-02-22T17:20:28.000Z</time>
      </trkpt>
      <trkpt lat="42.45805" lon="0.03299">
        <ele>903.3</ele>
        <time>2007-02-22T17:20:33.000Z</time>
      </trkpt>
      <trkpt lat="42.4581" lon="0.03304">
        <ele>902.3</ele>
        <time>2007-02-22T17:20:40.000Z</time>
      </trkpt>
      <trkpt lat="42.45816" lon="0.03313">
        <ele>900.9</ele>
        <time>2007-02-22T17:20:51.000Z</time>
      </trkpt>
      <trkpt lat="42.45823" lon="0.03321">
        <ele>899.5</ele>
        <time>2007-02-22T17:21:00.000Z</time>
      </trkpt>
      <trkpt lat="42.45827" lon="0.03328">
        <ele>897.5</ele>
        <time>2007-02-22T17:21:10.000Z</time>
      </trkpt>
      <trkpt lat="42.45832" lon="0.03339">
        <ele>896.1</ele>
        <time>2007-02-22T17:21:19.000Z</time>
      </trkpt>
      <trkpt lat="42.45832" lon="0.0334">
        <ele>895.6</ele>
        <time>2007-02-22T17:21:20.000Z</time>
      </trkpt>
      <trkpt lat="42.45835" lon="0.03343">
        <ele>894.2</ele>
        <time>2007-02-22T17:21:40.000Z</time>
      </trkpt>
      <trkpt lat="42.45838" lon="0.03345">
        <ele>893.7</ele>
        <time>2007-02-22T17:21:50.000Z</time>
      </trkpt>
      <trkpt lat="42.45839" lon="0.03346">
        <ele>893.2</ele>
        <time>2007-02-22T17:22:01.000Z</time>
      </trkpt>
      <trkpt lat="42.45843" lon="0.0335">
        <ele>892.2</ele>
        <time>2007-02-22T17:22:13.000Z</time>
      </trkpt>
      <trkpt lat="42.4585" lon="0.03353">
        <ele>891.3</ele>
        <time>2007-02-22T17:22:21.000Z</time>
      </trkpt>
      <trkpt lat="42.45861" lon="0.03358">
        <ele>888.4</ele>
        <time>2007-02-22T17:22:35.000Z</time>
      </trkpt>
      <trkpt lat="42.45865" lon="0.03366">
        <ele>886.5</ele>
        <time>2007-02-22T17:22:45.000Z</time>
      </trkpt>
      <trkpt lat="42.45868" lon="0.03371">
        <ele>886</ele>
        <time>2007-02-22T17:22:51.000Z</time>
      </trkpt>
      <trkpt lat="42.4588" lon="0.03381">
        <ele>884.1</ele>
        <time>2007-02-22T17:23:04.000Z</time>
      </trkpt>
      <trkpt lat="42.45884" lon="0.03385">
        <ele>883.1</ele>
        <time>2007-02-22T17:23:08.000Z</time>
      </trkpt>
      <trkpt lat="42.45886" lon="0.03386">
        <ele>883.1</ele>
        <time>2007-02-22T17:23:10.000Z</time>
      </trkpt>
      <trkpt lat="42.45895" lon="0.03391">
        <ele>881.2</ele>
        <time>2007-02-22T17:23:22.000Z</time>
      </trkpt>
      <trkpt lat="42.45905" lon="0.034">
        <ele>879.3</ele>
        <time>2007-02-22T17:23:34.000Z</time>
      </trkpt>
      <trkpt lat="42.45908" lon="0.03403">
        <ele>878.8</ele>
        <time>2007-02-22T17:23:38.000Z</time>
      </trkpt>
      <trkpt lat="42.45914" lon="0.03407">
        <ele>877.8</ele>
        <time>2007-02-22T17:23:47.000Z</time>
      </trkpt>
      <trkpt lat="42.45918" lon="0.03412">
        <ele>876.9</ele>
        <time>2007-02-22T17:23:58.000Z</time>
      </trkpt>
      <trkpt lat="42.45922" lon="0.03416">
        <ele>875.9</ele>
        <time>2007-02-22T17:24:08.000Z</time>
      </trkpt>
      <trkpt lat="42.45927" lon="0.03422">
        <ele>874.9</ele>
        <time>2007-02-22T17:24:20.000Z</time>
      </trkpt>
      <trkpt lat="42.45931" lon="0.03427">
        <ele>874</ele>
        <time>2007-02-22T17:24:29.000Z</time>
      </trkpt>
      <trkpt lat="42.45931" lon="0.0343">
        <ele>873.5</ele>
        <time>2007-02-22T17:24:44.000Z</time>
      </trkpt>
      <trkpt lat="42.45933" lon="0.03432">
        <ele>873.5</ele>
        <time>2007-02-22T17:24:47.000Z</time>
      </trkpt>
      <trkpt lat="42.45935" lon="0.03434">
        <ele>872.5</ele>
        <time>2007-02-22T17:24:49.000Z</time>
      </trkpt>
      <trkpt lat="42.45941" lon="0.0344">
        <ele>872.1</ele>
        <time>2007-02-22T17:25:00.000Z</time>
      </trkpt>
      <trkpt lat="42.45947" lon="0.03443">
        <ele>872.1</ele>
        <time>2007-02-22T17:25:13.000Z</time>
      </trkpt>
      <trkpt lat="42.4595" lon="0.03444">
        <ele>871.1</ele>
        <time>2007-02-22T17:25:25.000Z</time>
      </trkpt>
      <trkpt lat="42.45952" lon="0.03447">
        <ele>871.1</ele>
        <time>2007-02-22T17:25:38.000Z</time>
      </trkpt>
      <trkpt lat="42.45954" lon="0.03452">
        <ele>870.6</ele>
        <time>2007-02-22T17:25:51.000Z</time>
      </trkpt>
      <trkpt lat="42.45957" lon="0.03454">
        <ele>868.7</ele>
        <time>2007-02-22T17:26:42.000Z</time>
      </trkpt>
      <trkpt lat="42.45961" lon="0.03453">
        <ele>869.2</ele>
        <time>2007-02-22T17:26:56.000Z</time>
      </trkpt>
      <trkpt lat="42.4597" lon="0.03459">
        <ele>868.7</ele>
        <time>2007-02-22T17:27:05.000Z</time>
      </trkpt>
      <trkpt lat="42.45972" lon="0.03458">
        <ele>868.7</ele>
        <time>2007-02-22T17:27:08.000Z</time>
      </trkpt>
      <trkpt lat="42.45979" lon="0.03457">
        <ele>868.7</ele>
        <time>2007-02-22T17:27:19.000Z</time>
      </trkpt>
      <trkpt lat="42.45983" lon="0.03459">
        <ele>867.2</ele>
        <time>2007-02-22T17:27:39.000Z</time>
      </trkpt>
      <trkpt lat="42.45983" lon="0.03458">
        <ele>866.8</ele>
        <time>2007-02-22T17:27:58.000Z</time>
      </trkpt>
      <trkpt lat="42.45983" lon="0.03447">
        <ele>864.4</ele>
        <time>2007-02-22T17:28:12.000Z</time>
      </trkpt>
      <trkpt lat="42.45982" lon="0.03442">
        <ele>863.4</ele>
        <time>2007-02-22T17:28:18.000Z</time>
      </trkpt>
      <trkpt lat="42.45982" lon="0.03435">
        <ele>861.5</ele>
        <time>2007-02-22T17:28:29.000Z</time>
      </trkpt>
      <trkpt lat="42.45989" lon="0.03428">
        <ele>858.6</ele>
        <time>2007-02-22T17:28:41.000Z</time>
      </trkpt>
      <trkpt lat="42.45993" lon="0.03425">
        <ele>856.2</ele>
        <time>2007-02-22T17:28:59.000Z</time>
      </trkpt>
      <trkpt lat="42.45993" lon="0.03419">
        <ele>853.8</ele>
        <time>2007-02-22T17:29:12.000Z</time>
      </trkpt>
      <trkpt lat="42.45993" lon="0.03414">
        <ele>851.9</ele>
        <time>2007-02-22T17:29:22.000Z</time>
      </trkpt>
      <trkpt lat="42.4599" lon="0.03403">
        <ele>849.9</ele>
        <time>2007-02-22T17:29:35.000Z</time>
      </trkpt>
      <trkpt lat="42.45985" lon="0.03388">
        <ele>846.6</ele>
        <time>2007-02-22T17:29:51.000Z</time>
      </trkpt>
      <trkpt lat="42.45983" lon="0.03375">
        <ele>843.7</ele>
        <time>2007-02-22T17:30:01.000Z</time>
      </trkpt>
      <trkpt lat="42.45983" lon="0.03374">
        <ele>844.2</ele>
        <time>2007-02-22T17:30:22.000Z</time>
      </trkpt>
      <trkpt lat="42.45983" lon="0.03373">
        <ele>844.2</ele>
        <time>2007-02-22T17:30:32.000Z</time>
      </trkpt>
      <trkpt lat="42.45981" lon="0.03367">
        <ele>842.7</ele>
        <time>2007-02-22T17:30:44.000Z</time>
      </trkpt>
      <trkpt lat="42.45975" lon="0.03354">
        <ele>841.3</ele>
        <time>2007-02-22T17:30:56.000Z</time>
      </trkpt>
      <trkpt lat="42.4597" lon="0.0334">
        <ele>839.4</ele>
        <time>2007-02-22T17:31:07.000Z</time>
      </trkpt>
      <trkpt lat="42.45969" lon="0.03338">
        <ele>838.9</ele>
        <time>2007-02-22T17:31:09.000Z</time>
      </trkpt>
      <trkpt lat="42.45967" lon="0.03326">
        <ele>836</ele>
        <time>2007-02-22T17:31:22.000Z</time>
      </trkpt>
      <trkpt lat="42.45965" lon="0.03315">
        <ele>833.6</ele>
        <time>2007-02-22T17:31:44.000Z</time>
      </trkpt>
      <trkpt lat="42.45959" lon="0.03298">
        <ele>832.2</ele>
        <time>2007-02-22T17:31:59.000Z</time>
      </trkpt>
      <trkpt lat="42.45953" lon="0.03282">
        <ele>830.7</ele>
        <time>2007-02-22T17:32:13.000Z</time>
      </trkpt>
      <trkpt lat="42.45951" lon="0.03275">
        <ele>829.8</ele>
        <time>2007-02-22T17:32:27.000Z</time>
      </trkpt>
      <trkpt lat="42.45948" lon="0.03263">
        <ele>827.4</ele>
        <time>2007-02-22T17:32:40.000Z</time>
      </trkpt>
      <trkpt lat="42.45947" lon="0.03261">
        <ele>826.4</ele>
        <time>2007-02-22T17:32:53.000Z</time>
      </trkpt>
      <trkpt lat="42.45946" lon="0.03253">
        <ele>823.5</ele>
        <time>2007-02-22T17:33:08.000Z</time>
      </trkpt>
      <trkpt lat="42.45946" lon="0.03232">
        <ele>821.1</ele>
        <time>2007-02-22T17:33:27.000Z</time>
      </trkpt>
      <trkpt lat="42.4594" lon="0.03218">
        <ele>818.7</ele>
        <time>2007-02-22T17:34:08.000Z</time>
      </trkpt>
      <trkpt lat="42.45938" lon="0.03209">
        <ele>817.3</ele>
        <time>2007-02-22T17:34:23.000Z</time>
      </trkpt>
      <trkpt lat="42.45936" lon="0.03199">
        <ele>815.3</ele>
        <time>2007-02-22T17:34:39.000Z</time>
      </trkpt>
      <trkpt lat="42.45935" lon="0.03183">
        <ele>813.4</ele>
        <time>2007-02-22T17:34:56.000Z</time>
      </trkpt>
      <trkpt lat="42.45932" lon="0.03166">
        <ele>811.5</ele>
        <time>2007-02-22T17:35:13.000Z</time>
      </trkpt>
      <trkpt lat="42.45928" lon="0.03146">
        <ele>809.1</ele>
        <time>2007-02-22T17:35:29.000Z</time>
      </trkpt>
      <trkpt lat="42.45926" lon="0.03133">
        <ele>806.2</ele>
        <time>2007-02-22T17:35:41.000Z</time>
      </trkpt>
      <trkpt lat="42.45923" lon="0.03123">
        <ele>804.3</ele>
        <time>2007-02-22T17:35:59.000Z</time>
      </trkpt>
      <trkpt lat="42.45922" lon="0.03112">
        <ele>802.4</ele>
        <time>2007-02-22T17:36:13.000Z</time>
      </trkpt>
      <trkpt lat="42.4592" lon="0.03103">
        <ele>801.4</ele>
        <time>2007-02-22T17:36:25.000Z</time>
      </trkpt>
      <trkpt lat="42.45917" lon="0.03098">
        <ele>800.9</ele>
        <time>2007-02-22T17:36:37.000Z</time>
      </trkpt>
      <trkpt lat="42.45914" lon="0.03092">
        <ele>799.5</ele>
        <time>2007-02-22T17:36:49.000Z</time>
      </trkpt>
      <trkpt lat="42.45911" lon="0.03073">
        <ele>797.6</ele>
        <time>2007-02-22T17:37:06.000Z</time>
      </trkpt>
      <trkpt lat="42.45909" lon="0.0306">
        <ele>795.1</ele>
        <time>2007-02-22T17:37:17.000Z</time>
      </trkpt>
      <trkpt lat="42.45906" lon="0.03054">
        <ele>794.2</ele>
        <time>2007-02-22T17:37:25.000Z</time>
      </trkpt>
      <trkpt lat="42.45905" lon="0.03052">
        <ele>794.7</ele>
        <time>2007-02-22T17:37:26.000Z</time>
      </trkpt>
      <trkpt lat="42.45896" lon="0.03045">
        <ele>798</ele>
        <time>2007-02-22T17:37:34.000Z</time>
      </trkpt>
      <trkpt lat="42.45893" lon="0.03043">
        <ele>798.5</ele>
        <time>2007-02-22T17:37:37.000Z</time>
      </trkpt>
      <trkpt lat="42.4589" lon="0.03034">
        <ele>797.1</ele>
        <time>2007-02-22T17:43:07.000Z</time>
      </trkpt>
      <trkpt lat="42.45893" lon="0.03036">
        <ele>798.5</ele>
        <time>2007-02-22T17:43:31.000Z</time>
      </trkpt>
      <trkpt lat="42.45907" lon="0.03051">
        <ele>796.6</ele>
        <time>2007-02-22T17:43:47.000Z</time>
      </trkpt>
      <trkpt lat="42.4591" lon="0.03054">
        <ele>795.6</ele>
        <time>2007-02-22T17:43:50.000Z</time>
      </trkpt>
      <trkpt lat="42.45916" lon="0.03059">
        <ele>793.7</ele>
        <time>2007-02-22T17:44:52.000Z</time>
      </trkpt>
      <trkpt lat="42.45916" lon="0.0306">
        <ele>794.7</ele>
        <time>2007-02-22T17:45:12.000Z</time>
      </trkpt>
      <trkpt lat="42.45926" lon="0.03064">
        <ele>792.3</ele>
        <time>2007-02-22T17:45:26.000Z</time>
      </trkpt>
      <trkpt lat="42.45931" lon="0.03072">
        <ele>790.8</ele>
        <time>2007-02-22T17:45:37.000Z</time>
      </trkpt>
      <trkpt lat="42.45942" lon="0.03081">
        <ele>788.4</ele>
        <time>2007-02-22T17:45:48.000Z</time>
      </trkpt>
      <trkpt lat="42.45951" lon="0.03093">
        <ele>786.5</ele>
        <time>2007-02-22T17:45:59.000Z</time>
      </trkpt>
      <trkpt lat="42.45955" lon="0.03098">
        <ele>785.5</ele>
        <time>2007-02-22T17:46:03.000Z</time>
      </trkpt>
      <trkpt lat="42.45968" lon="0.03116">
        <ele>784.1</ele>
        <time>2007-02-22T17:46:20.000Z</time>
      </trkpt>
      <trkpt lat="42.45979" lon="0.03133">
        <ele>780.7</ele>
        <time>2007-02-22T17:46:36.000Z</time>
      </trkpt>
      <trkpt lat="42.45987" lon="0.03143">
        <ele>778.8</ele>
        <time>2007-02-22T17:46:50.000Z</time>
      </trkpt>
      <trkpt lat="42.45991" lon="0.03149">
        <ele>778.3</ele>
        <time>2007-02-22T17:47:01.000Z</time>
      </trkpt>
      <trkpt lat="42.45998" lon="0.03161">
        <ele>775</ele>
        <time>2007-02-22T17:47:12.000Z</time>
      </trkpt>
      <trkpt lat="42.46007" lon="0.03176">
        <ele>772.6</ele>
        <time>2007-02-22T17:47:20.000Z</time>
      </trkpt>
      <trkpt lat="42.46014" lon="0.03188">
        <ele>771.6</ele>
        <time>2007-02-22T17:47:27.000Z</time>
      </trkpt>
      <trkpt lat="42.46015" lon="0.03193">
        <ele>771.6</ele>
        <time>2007-02-22T17:47:36.000Z</time>
      </trkpt>
      <trkpt lat="42.46019" lon="0.03202">
        <ele>770.2</ele>
        <time>2007-02-22T17:47:51.000Z</time>
      </trkpt>
      <trkpt lat="42.46028" lon="0.03218">
        <ele>768.7</ele>
        <time>2007-02-22T17:48:03.000Z</time>
      </trkpt>
      <trkpt lat="42.46044" lon="0.03237">
        <ele>765.8</ele>
        <time>2007-02-22T17:48:17.000Z</time>
      </trkpt>
      <trkpt lat="42.46052" lon="0.03245">
        <ele>764.4</ele>
        <time>2007-02-22T17:48:30.000Z</time>
      </trkpt>
      <trkpt lat="42.46067" lon="0.03256">
        <ele>762</ele>
        <time>2007-02-22T17:48:47.000Z</time>
      </trkpt>
      <trkpt lat="42.4607" lon="0.03258">
        <ele>761.5</ele>
        <time>2007-02-22T17:49:04.000Z</time>
      </trkpt>
      <trkpt lat="42.46078" lon="0.03262">
        <ele>761</ele>
        <time>2007-02-22T17:49:13.000Z</time>
      </trkpt>
      <trkpt lat="42.46102" lon="0.03278">
        <ele>759.1</ele>
        <time>2007-02-22T17:49:29.000Z</time>
      </trkpt>
      <trkpt lat="42.4611" lon="0.03283">
        <ele>757.7</ele>
        <time>2007-02-22T17:49:41.000Z</time>
      </trkpt>
      <trkpt lat="42.46119" lon="0.0329">
        <ele>756.7</ele>
        <time>2007-02-22T17:50:05.000Z</time>
      </trkpt>
      <trkpt lat="42.46123" lon="0.03291">
        <ele>757.7</ele>
        <time>2007-02-22T17:51:29.000Z</time>
      </trkpt>
      <trkpt lat="42.46128" lon="0.03294">
        <ele>756.7</ele>
        <time>2007-02-22T17:51:42.000Z</time>
      </trkpt>
      <trkpt lat="42.46136" lon="0.0331">
        <ele>756.2</ele>
        <time>2007-02-22T17:51:56.000Z</time>
      </trkpt>
      <trkpt lat="42.46137" lon="0.03322">
        <ele>754.8</ele>
        <time>2007-02-22T17:52:08.000Z</time>
      </trkpt>
      <trkpt lat="42.46137" lon="0.03323">
        <ele>754.8</ele>
        <time>2007-02-22T17:52:09.000Z</time>
      </trkpt>
      <trkpt lat="42.46141" lon="0.03336">
        <ele>751.4</ele>
        <time>2007-02-22T17:52:23.000Z</time>
      </trkpt>
      <trkpt lat="42.46144" lon="0.03353">
        <ele>749</ele>
        <time>2007-02-22T17:52:37.000Z</time>
      </trkpt>
      <trkpt lat="42.46146" lon="0.0337">
        <ele>747.1</ele>
        <time>2007-02-22T17:52:52.000Z</time>
      </trkpt>
      <trkpt lat="42.46147" lon="0.03393">
        <ele>744.2</ele>
        <time>2007-02-22T17:53:10.000Z</time>
      </trkpt>
      <trkpt lat="42.4615" lon="0.03413">
        <ele>741.8</ele>
        <time>2007-02-22T17:53:26.000Z</time>
      </trkpt>
      <trkpt lat="42.46151" lon="0.03419">
        <ele>741.3</ele>
        <time>2007-02-22T17:53:31.000Z</time>
      </trkpt>
      <trkpt lat="42.46153" lon="0.03425">
        <ele>740.8</ele>
        <time>2007-02-22T17:53:38.000Z</time>
      </trkpt>
      <trkpt lat="42.46156" lon="0.03439">
        <ele>737</ele>
        <time>2007-02-22T17:53:53.000Z</time>
      </trkpt>
      <trkpt lat="42.46156" lon="0.0344">
        <ele>737</ele>
        <time>2007-02-22T17:53:54.000Z</time>
      </trkpt>
      <trkpt lat="42.46161" lon="0.03447">
        <ele>735.1</ele>
        <time>2007-02-22T17:54:06.000Z</time>
      </trkpt>
      <trkpt lat="42.46171" lon="0.03466">
        <ele>732.2</ele>
        <time>2007-02-22T17:54:24.000Z</time>
      </trkpt>
      <trkpt lat="42.46179" lon="0.03482">
        <ele>729.3</ele>
        <time>2007-02-22T17:54:39.000Z</time>
      </trkpt>
      <trkpt lat="42.46186" lon="0.0349">
        <ele>729.3</ele>
        <time>2007-02-22T17:54:52.000Z</time>
      </trkpt>
      <trkpt lat="42.46187" lon="0.03496">
        <ele>728.8</ele>
        <time>2007-02-22T17:55:01.000Z</time>
      </trkpt>
      <trkpt lat="42.46199" lon="0.03518">
        <ele>726.9</ele>
        <time>2007-02-22T17:55:10.000Z</time>
      </trkpt>
      <trkpt lat="42.46216" lon="0.03546">
        <ele>724.5</ele>
        <time>2007-02-22T17:55:49.000Z</time>
      </trkpt>
      <trkpt lat="42.46221" lon="0.03559">
        <ele>722.1</ele>
        <time>2007-02-22T17:56:00.000Z</time>
      </trkpt>
      <trkpt lat="42.46225" lon="0.03611">
        <ele>720.6</ele>
        <time>2007-02-22T17:56:20.000Z</time>
      </trkpt>
      <trkpt lat="42.46189" lon="0.03775">
        <ele>713.9</ele>
        <time>2007-02-22T17:57:06.000Z</time>
      </trkpt>
      <trkpt lat="42.46185" lon="0.03786">
        <ele>715.4</ele>
        <time>2007-02-22T17:57:09.000Z</time>
      </trkpt>
      <trkpt lat="42.46186" lon="0.03816">
        <ele>719.2</ele>
        <time>2007-02-22T17:57:19.000Z</time>
      </trkpt>
      <trkpt lat="42.4619" lon="0.0382">
        <ele>719.2</ele>
        <time>2007-02-22T17:57:23.000Z</time>
      </trkpt>
      <trkpt lat="42.46193" lon="0.0383">
        <ele>718.7</ele>
        <time>2007-02-22T17:57:31.000Z</time>
      </trkpt>
      <trkpt lat="42.46194" lon="0.03844">
        <ele>719.7</ele>
        <time>2007-02-22T17:57:37.000Z</time>
      </trkpt>
      <trkpt lat="42.46203" lon="0.03865">
        <ele>719.2</ele>
        <time>2007-02-22T17:57:49.000Z</time>
      </trkpt>
      <trkpt lat="42.46206" lon="0.03895">
        <ele>715.8</ele>
        <time>2007-02-22T17:58:01.000Z</time>
      </trkpt>
      <trkpt lat="42.46204" lon="0.03925">
        <ele>713.9</ele>
        <time>2007-02-22T17:58:14.000Z</time>
      </trkpt>
      <trkpt lat="42.4621" lon="0.03959">
        <ele>710.6</ele>
        <time>2007-02-22T17:58:28.000Z</time>
      </trkpt>
      <trkpt lat="42.46211" lon="0.04001">
        <ele>708.6</ele>
        <time>2007-02-22T17:58:38.000Z</time>
      </trkpt>
      <trkpt lat="42.46211" lon="0.04061">
        <ele>708.6</ele>
        <time>2007-02-22T17:58:52.000Z</time>
      </trkpt>
      <trkpt lat="42.46211" lon="0.04088">
        <ele>710.6</ele>
        <time>2007-02-22T17:58:59.000Z</time>
      </trkpt>
      <trkpt lat="42.46211" lon="0.04143">
        <ele>710.6</ele>
        <time>2007-02-22T17:59:14.000Z</time>
      </trkpt>
      <trkpt lat="42.46213" lon="0.04177">
        <ele>711.5</ele>
        <time>2007-02-22T17:59:23.000Z</time>
      </trkpt>
      <trkpt lat="42.46213" lon="0.04187">
        <ele>712.5</ele>
        <time>2007-02-22T17:59:25.000Z</time>
      </trkpt>
      <trkpt lat="42.46216" lon="0.04213">
        <ele>713</ele>
        <time>2007-02-22T17:59:33.000Z</time>
      </trkpt>
      <trkpt lat="42.46217" lon="0.04228">
        <ele>714.9</ele>
        <time>2007-02-22T17:59:36.000Z</time>
      </trkpt>
      <trkpt lat="42.46217" lon="0.04269">
        <ele>714.4</ele>
        <time>2007-02-22T17:59:49.000Z</time>
      </trkpt>
      <trkpt lat="42.46219" lon="0.04281">
        <ele>713.4</ele>
        <time>2007-02-22T17:59:53.000Z</time>
      </trkpt>
      <trkpt lat="42.4622" lon="0.04292">
        <ele>714.9</ele>
        <time>2007-02-22T17:59:56.000Z</time>
      </trkpt>
      <trkpt lat="42.46226" lon="0.04317">
        <ele>713.9</ele>
        <time>2007-02-22T18:00:06.000Z</time>
      </trkpt>
      <trkpt lat="42.46224" lon="0.04325">
        <ele>713</ele>
        <time>2007-02-22T18:00:14.000Z</time>
      </trkpt>
      <trkpt lat="42.46206" lon="0.04332">
        <ele>711</ele>
        <time>2007-02-22T18:00:25.000Z</time>
      </trkpt>
      <trkpt lat="42.46196" lon="0.04332">
        <ele>710.6</ele>
        <time>2007-02-22T18:00:31.000Z</time>
      </trkpt>
      <trkpt lat="42.46189" lon="0.04333">
        <ele>710.6</ele>
        <time>2007-02-22T18:00:36.000Z</time>
      </trkpt>
      <trkpt lat="42.46185" lon="0.04339">
        <ele>710.1</ele>
        <time>2007-02-22T18:00:43.000Z</time>
      </trkpt>
      <trkpt lat="42.46183" lon="0.04349">
        <ele>709.1</ele>
        <time>2007-02-22T18:00:54.000Z</time>
      </trkpt>
      <trkpt lat="42.46168" lon="0.04355">
        <ele>706.7</ele>
        <time>2007-02-22T18:01:07.000Z</time>
      </trkpt>
      <trkpt lat="42.46157" lon="0.04351">
        <ele>706.2</ele>
        <time>2007-02-22T18:01:13.000Z</time>
      </trkpt>
      <trkpt lat="42.46139" lon="0.04338">
        <ele>706.7</ele>
        <time>2007-02-22T18:01:24.000Z</time>
      </trkpt>
      <trkpt lat="42.46117" lon="0.04331">
        <ele>703.8</ele>
        <time>2007-02-22T18:01:38.000Z</time>
      </trkpt>
      <trkpt lat="42.46108" lon="0.04332">
        <ele>703.3</ele>
        <time>2007-02-22T18:01:43.000Z</time>
      </trkpt>
      <trkpt lat="42.46112" lon="0.04339">
        <ele>701.4</ele>
        <time>2007-02-22T18:01:48.000Z</time>
      </trkpt>
      <trkpt lat="42.46104" lon="0.04355">
        <ele>700</ele>
        <time>2007-02-22T18:01:57.000Z</time>
      </trkpt>
      <trkpt lat="42.46096" lon="0.04372">
        <ele>699.5</ele>
        <time>2007-02-22T18:02:15.000Z</time>
      </trkpt>
      <trkpt lat="42.46095" lon="0.04373">
        <ele>699</ele>
        <time>2007-02-22T18:02:24.000Z</time>
      </trkpt>
      <trkpt lat="42.46082" lon="0.04393">
        <ele>698.1</ele>
        <time>2007-02-22T18:02:37.000Z</time>
      </trkpt>
      <trkpt lat="42.46067" lon="0.04395">
        <ele>696.1</ele>
        <time>2007-02-22T18:02:47.000Z</time>
      </trkpt>
      <trkpt lat="42.46062" lon="0.04395">
        <ele>695.2</ele>
        <time>2007-02-22T18:02:51.000Z</time>
      </trkpt>
      <trkpt lat="42.46051" lon="0.04396">
        <ele>693.2</ele>
        <time>2007-02-22T18:02:58.000Z</time>
      </trkpt>
      <trkpt lat="42.46039" lon="0.044">
        <ele>692.3</ele>
        <time>2007-02-22T18:03:05.000Z</time>
      </trkpt>
      <trkpt lat="42.46034" lon="0.04403">
        <ele>691.3</ele>
        <time>2007-02-22T18:03:10.000Z</time>
      </trkpt>
      <trkpt lat="42.4603" lon="0.04406">
        <ele>690.8</ele>
        <time>2007-02-22T18:03:14.000Z</time>
      </trkpt>
      <trkpt lat="42.46028" lon="0.04408">
        <ele>690.8</ele>
        <time>2007-02-22T18:03:25.000Z</time>
      </trkpt>
      <trkpt lat="42.46023" lon="0.04408">
        <ele>690.4</ele>
        <time>2007-02-22T18:03:34.000Z</time>
      </trkpt>
      <trkpt lat="42.46" lon="0.04407">
        <ele>689.9</ele>
        <time>2007-02-22T18:03:45.000Z</time>
      </trkpt>
      <trkpt lat="42.45975" lon="0.04401">
        <ele>690.4</ele>
        <time>2007-02-22T18:03:57.000Z</time>
      </trkpt>
      <trkpt lat="42.45971" lon="0.044">
        <ele>689.9</ele>
        <time>2007-02-22T18:04:01.000Z</time>
      </trkpt>
      <trkpt lat="42.45968" lon="0.04401">
        <ele>689.4</ele>
        <time>2007-02-22T18:04:04.000Z</time>
      </trkpt>
      <trkpt lat="42.45961" lon="0.04398">
        <ele>689.4</ele>
        <time>2007-02-22T18:04:08.000Z</time>
      </trkpt>
      <trkpt lat="42.45958" lon="0.044">
        <ele>688.9</ele>
        <time>2007-02-22T18:04:17.000Z</time>
      </trkpt>
      <trkpt lat="42.45957" lon="0.044">
        <ele>688.9</ele>
        <time>2007-02-22T18:04:18.000Z</time>
      </trkpt>
      <trkpt lat="42.45953" lon="0.04404">
        <ele>686.5</ele>
        <time>2007-02-22T18:04:28.000Z</time>
      </trkpt>
      <trkpt lat="42.45948" lon="0.04408">
        <ele>684.1</ele>
        <time>2007-02-22T18:04:38.000Z</time>
      </trkpt>
      <trkpt lat="42.45945" lon="0.04408">
        <ele>683.6</ele>
        <time>2007-02-22T18:04:48.000Z</time>
      </trkpt>
      <trkpt lat="42.45945" lon="0.04408">
        <ele>683.6</ele>
        <time>2007-02-22T18:04:48.000Z</time>
      </trkpt>
      <trkpt lat="42.4592" lon="0.04414">
        <ele>684.6</ele>
        <time>2007-02-22T18:04:59.000Z</time>
      </trkpt>
      <trkpt lat="42.45896" lon="0.04418">
        <ele>685.6</ele>
        <time>2007-02-22T18:05:09.000Z</time>
      </trkpt>
      <trkpt lat="42.45882" lon="0.04419">
        <ele>683.6</ele>
        <time>2007-02-22T18:05:19.000Z</time>
      </trkpt>
      <trkpt lat="42.45858" lon="0.04409">
        <ele>682.2</ele>
        <time>2007-02-22T18:05:26.000Z</time>
      </trkpt>
      <trkpt lat="42.45845" lon="0.04402">
        <ele>684.6</ele>
        <time>2007-02-22T18:05:29.000Z</time>
      </trkpt>
      <trkpt lat="42.45825" lon="0.04383">
        <ele>687.5</ele>
        <time>2007-02-22T18:05:39.000Z</time>
      </trkpt>
      <trkpt lat="42.45824" lon="0.04381">
        <ele>687</ele>
        <time>2007-02-22T18:05:40.000Z</time>
      </trkpt>
      <trkpt lat="42.45813" lon="0.04398">
        <ele>688.4</ele>
        <time>2007-02-22T18:05:45.000Z</time>
      </trkpt>
      <trkpt lat="42.45814" lon="0.04404">
        <ele>688.4</ele>
        <time>2007-02-22T18:05:46.000Z</time>
      </trkpt>
      <trkpt lat="42.45826" lon="0.04439">
        <ele>688.9</ele>
        <time>2007-02-22T18:05:57.000Z</time>
      </trkpt>
      <trkpt lat="42.45837" lon="0.04463">
        <ele>690.8</ele>
        <time>2007-02-22T18:06:06.000Z</time>
      </trkpt>
      <trkpt lat="42.45839" lon="0.04463">
        <ele>690.8</ele>
        <time>2007-02-22T18:06:13.000Z</time>
      </trkpt>
      <trkpt lat="42.4584" lon="0.04464">
        <ele>690.8</ele>
        <time>2007-02-22T18:06:15.000Z</time>
      </trkpt>
      <trkpt lat="42.45839" lon="0.0447">
        <ele>690.4</ele>
        <time>2007-02-22T18:06:23.000Z</time>
      </trkpt>
      <trkpt lat="42.45832" lon="0.04526">
        <ele>690.8</ele>
        <time>2007-02-22T18:06:32.000Z</time>
      </trkpt>
      <trkpt lat="42.45831" lon="0.04527">
        <ele>686.5</ele>
        <time>2012-04-20T14:52:21.000Z</time>
      </trkpt>
      <trkpt lat="42.45825" lon="0.04524">
        <ele>687.5</ele>
        <time>2012-04-20T14:52:32.000Z</time>
      </trkpt>
      <trkpt lat="42.45821" lon="0.04518">
        <ele>688.9</ele>
        <time>2012-04-20T14:52:45.000Z</time>
      </trkpt>
      <trkpt lat="42.45818" lon="0.0451">
        <ele>689.9</ele>
        <time>2012-04-20T14:52:59.000Z</time>
      </trkpt>
      <trkpt lat="42.45812" lon="0.04494">
        <ele>691.8</ele>
        <time>2012-04-20T14:53:15.000Z</time>
      </trkpt>
      <trkpt lat="42.45809" lon="0.04479">
        <ele>693.2</ele>
        <time>2012-04-20T14:53:28.000Z</time>
      </trkpt>
      <trkpt lat="42.45804" lon="0.04453">
        <ele>695.7</ele>
        <time>2012-04-20T14:53:46.000Z</time>
      </trkpt>
      <trkpt lat="42.45797" lon="0.04434">
        <ele>698</ele>
        <time>2012-04-20T14:54:02.000Z</time>
      </trkpt>
      <trkpt lat="42.45793" lon="0.04424">
        <ele>699</ele>
        <time>2012-04-20T14:54:12.000Z</time>
      </trkpt>
      <trkpt lat="42.45783" lon="0.04408">
        <ele>700.9</ele>
        <time>2012-04-20T14:54:27.000Z</time>
      </trkpt>
      <trkpt lat="42.45779" lon="0.0439">
        <ele>703.3</ele>
        <time>2012-04-20T14:54:41.000Z</time>
      </trkpt>
      <trkpt lat="42.4577" lon="0.04377">
        <ele>706.2</ele>
        <time>2012-04-20T14:54:57.000Z</time>
      </trkpt>
      <trkpt lat="42.45762" lon="0.04369">
        <ele>708.2</ele>
        <time>2012-04-20T14:55:11.000Z</time>
      </trkpt>
      <trkpt lat="42.45754" lon="0.04369">
        <ele>709.6</ele>
        <time>2012-04-20T14:55:19.000Z</time>
      </trkpt>
      <trkpt lat="42.45749" lon="0.04369">
        <ele>713.4</ele>
        <time>2012-04-20T14:55:25.000Z</time>
      </trkpt>
      <trkpt lat="42.45744" lon="0.04369">
        <ele>714.4</ele>
        <time>2012-04-20T14:55:30.000Z</time>
      </trkpt>
      <trkpt lat="42.4574" lon="0.04366">
        <ele>714.4</ele>
        <time>2012-04-20T14:55:34.000Z</time>
      </trkpt>
      <trkpt lat="42.45723" lon="0.04373">
        <ele>714.4</ele>
        <time>2012-04-20T14:55:50.000Z</time>
      </trkpt>
      <trkpt lat="42.45718" lon="0.04375">
        <ele>714.4</ele>
        <time>2012-04-20T14:55:56.000Z</time>
      </trkpt>
      <trkpt lat="42.45708" lon="0.04374">
        <ele>715.4</ele>
        <time>2012-04-20T14:56:05.000Z</time>
      </trkpt>
      <trkpt lat="42.45692" lon="0.04368">
        <ele>716.8</ele>
        <time>2012-04-20T14:56:20.000Z</time>
      </trkpt>
      <trkpt lat="42.45681" lon="0.04361">
        <ele>717.8</ele>
        <time>2012-04-20T14:56:33.000Z</time>
      </trkpt>
      <trkpt lat="42.4567" lon="0.04355">
        <ele>718.2</ele>
        <time>2012-04-20T14:56:48.000Z</time>
      </trkpt>
      <trkpt lat="42.45666" lon="0.04366">
        <ele>720.2</ele>
        <time>2012-04-20T14:57:04.000Z</time>
      </trkpt>
      <trkpt lat="42.45667" lon="0.04384">
        <ele>722.6</ele>
        <time>2012-04-20T14:57:19.000Z</time>
      </trkpt>
      <trkpt lat="42.45668" lon="0.04401">
        <ele>724.5</ele>
        <time>2012-04-20T14:57:32.000Z</time>
      </trkpt>
      <trkpt lat="42.45666" lon="0.04419">
        <ele>727.4</ele>
        <time>2012-04-20T14:57:47.000Z</time>
      </trkpt>
      <trkpt lat="42.45662" lon="0.04439">
        <ele>730.3</ele>
        <time>2012-04-20T14:58:04.000Z</time>
      </trkpt>
      <trkpt lat="42.45657" lon="0.0445">
        <ele>731.7</ele>
        <time>2012-04-20T14:58:14.000Z</time>
      </trkpt>
      <trkpt lat="42.45647" lon="0.04452">
        <ele>733.6</ele>
        <time>2012-04-20T14:58:27.000Z</time>
      </trkpt>
      <trkpt lat="42.45628" lon="0.0445">
        <ele>735.5</ele>
        <time>2012-04-20T14:58:44.000Z</time>
      </trkpt>
      <trkpt lat="42.45609" lon="0.04451">
        <ele>736.5</ele>
        <time>2012-04-20T14:59:00.000Z</time>
      </trkpt>
      <trkpt lat="42.45605" lon="0.04451">
        <ele>736.5</ele>
        <time>2012-04-20T14:59:04.000Z</time>
      </trkpt>
      <trkpt lat="42.45591" lon="0.04454">
        <ele>737.5</ele>
        <time>2012-04-20T14:59:18.000Z</time>
      </trkpt>
      <trkpt lat="42.45582" lon="0.04461">
        <ele>739.9</ele>
        <time>2012-04-20T14:59:31.000Z</time>
      </trkpt>
      <trkpt lat="42.4557" lon="0.04476">
        <ele>742.3</ele>
        <time>2012-04-20T14:59:48.000Z</time>
      </trkpt>
      <trkpt lat="42.45563" lon="0.04491">
        <ele>745.6</ele>
        <time>2012-04-20T15:00:04.000Z</time>
      </trkpt>
      <trkpt lat="42.45557" lon="0.045">
        <ele>747.1</ele>
        <time>2012-04-20T15:00:18.000Z</time>
      </trkpt>
      <trkpt lat="42.4555" lon="0.04508">
        <ele>749.5</ele>
        <time>2012-04-20T15:00:33.000Z</time>
      </trkpt>
      <trkpt lat="42.45539" lon="0.04512">
        <ele>751.4</ele>
        <time>2012-04-20T15:00:48.000Z</time>
      </trkpt>
      <trkpt lat="42.45541" lon="0.04505">
        <ele>753.3</ele>
        <time>2012-04-20T15:01:01.000Z</time>
      </trkpt>
      <trkpt lat="42.45542" lon="0.0449">
        <ele>756.2</ele>
        <time>2012-04-20T15:01:15.000Z</time>
      </trkpt>
      <trkpt lat="42.45541" lon="0.04483">
        <ele>758.1</ele>
        <time>2012-04-20T15:01:30.000Z</time>
      </trkpt>
      <trkpt lat="42.45542" lon="0.04487">
        <ele>758.6</ele>
        <time>2012-04-20T15:01:45.000Z</time>
      </trkpt>
      <trkpt lat="42.45542" lon="0.0449">
        <ele>758.6</ele>
        <time>2012-04-20T15:02:02.000Z</time>
      </trkpt>
      <trkpt lat="42.45542" lon="0.0449">
        <ele>758.6</ele>
        <time>2012-04-20T15:02:37.000Z</time>
      </trkpt>
      <trkpt lat="42.45543" lon="0.0449">
        <ele>757.7</ele>
        <time>2012-04-20T15:03:12.000Z</time>
      </trkpt>
      <trkpt lat="42.45543" lon="0.0449">
        <ele>757.2</ele>
        <time>2012-04-20T15:03:37.000Z</time>
      </trkpt>
      <trkpt lat="42.45538" lon="0.04475">
        <ele>757.2</ele>
        <time>2012-04-20T15:03:54.000Z</time>
      </trkpt>
      <trkpt lat="42.45536" lon="0.04456">
        <ele>760.1</ele>
        <time>2012-04-20T15:04:09.000Z</time>
      </trkpt>
      <trkpt lat="42.45534" lon="0.04437">
        <ele>761.5</ele>
        <time>2012-04-20T15:04:23.000Z</time>
      </trkpt>
      <trkpt lat="42.45533" lon="0.04421">
        <ele>762.9</ele>
        <time>2012-04-20T15:04:38.000Z</time>
      </trkpt>
      <trkpt lat="42.4553" lon="0.04408">
        <ele>763.9</ele>
        <time>2012-04-20T15:04:53.000Z</time>
      </trkpt>
      <trkpt lat="42.45526" lon="0.04398">
        <ele>765.3</ele>
        <time>2012-04-20T15:05:06.000Z</time>
      </trkpt>
      <trkpt lat="42.45526" lon="0.04396">
        <ele>766.3</ele>
        <time>2012-04-20T15:05:22.000Z</time>
      </trkpt>
      <trkpt lat="42.45524" lon="0.04392">
        <ele>766.8</ele>
        <time>2012-04-20T15:05:26.000Z</time>
      </trkpt>
      <trkpt lat="42.45519" lon="0.04366">
        <ele>768.7</ele>
        <time>2012-04-20T15:05:40.000Z</time>
      </trkpt>
      <trkpt lat="42.45514" lon="0.04342">
        <ele>770.6</ele>
        <time>2012-04-20T15:05:55.000Z</time>
      </trkpt>
      <trkpt lat="42.45515" lon="0.04337">
        <ele>771.1</ele>
        <time>2012-04-20T15:05:58.000Z</time>
      </trkpt>
      <trkpt lat="42.45524" lon="0.04319">
        <ele>772.6</ele>
        <time>2012-04-20T15:06:11.000Z</time>
      </trkpt>
      <trkpt lat="42.45522" lon="0.04303">
        <ele>775.9</ele>
        <time>2012-04-20T15:06:26.000Z</time>
      </trkpt>
      <trkpt lat="42.45516" lon="0.04301">
        <ele>778.3</ele>
        <time>2012-04-20T15:06:42.000Z</time>
      </trkpt>
      <trkpt lat="42.45518" lon="0.04303">
        <ele>778.3</ele>
        <time>2012-04-20T15:06:52.000Z</time>
      </trkpt>
      <trkpt lat="42.45516" lon="0.04302">
        <ele>778.8</ele>
        <time>2012-04-20T15:07:04.000Z</time>
      </trkpt>
      <trkpt lat="42.45515" lon="0.04303">
        <ele>779.3</ele>
        <time>2012-04-20T15:07:16.000Z</time>
      </trkpt>
      <trkpt lat="42.45517" lon="0.04301">
        <ele>779.8</ele>
        <time>2012-04-20T15:07:29.000Z</time>
      </trkpt>
      <trkpt lat="42.4551" lon="0.0431">
        <ele>780.2</ele>
        <time>2012-04-20T15:07:40.000Z</time>
      </trkpt>
      <trkpt lat="42.45504" lon="0.04318">
        <ele>781.7</ele>
        <time>2012-04-20T15:07:53.000Z</time>
      </trkpt>
      <trkpt lat="42.45496" lon="0.04338">
        <ele>784.1</ele>
        <time>2012-04-20T15:08:09.000Z</time>
      </trkpt>
      <trkpt lat="42.4549" lon="0.04346">
        <ele>787</ele>
        <time>2012-04-20T15:08:17.000Z</time>
      </trkpt>
      <trkpt lat="42.45487" lon="0.04352">
        <ele>790.3</ele>
        <time>2012-04-20T15:08:23.000Z</time>
      </trkpt>
      <trkpt lat="42.45487" lon="0.04353">
        <ele>788.9</ele>
        <time>2012-04-20T15:08:40.000Z</time>
      </trkpt>
      <trkpt lat="42.45481" lon="0.04368">
        <ele>787.9</ele>
        <time>2012-04-20T15:08:59.000Z</time>
      </trkpt>
      <trkpt lat="42.45474" lon="0.04374">
        <ele>787.9</ele>
        <time>2012-04-20T15:09:15.000Z</time>
      </trkpt>
      <trkpt lat="42.45469" lon="0.04367">
        <ele>788.9</ele>
        <time>2012-04-20T15:09:27.000Z</time>
      </trkpt>
      <trkpt lat="42.45469" lon="0.04357">
        <ele>789.9</ele>
        <time>2012-04-20T15:09:41.000Z</time>
      </trkpt>
      <trkpt lat="42.4547" lon="0.04336">
        <ele>791.3</ele>
        <time>2012-04-20T15:09:57.000Z</time>
      </trkpt>
      <trkpt lat="42.45472" lon="0.04324">
        <ele>793.2</ele>
        <time>2012-04-20T15:10:10.000Z</time>
      </trkpt>
      <trkpt lat="42.45474" lon="0.04318">
        <ele>793.7</ele>
        <time>2012-04-20T15:10:23.000Z</time>
      </trkpt>
      <trkpt lat="42.45475" lon="0.04296">
        <ele>794.2</ele>
        <time>2012-04-20T15:10:38.000Z</time>
      </trkpt>
      <trkpt lat="42.45468" lon="0.04292">
        <ele>795.6</ele>
        <time>2012-04-20T15:10:53.000Z</time>
      </trkpt>
      <trkpt lat="42.45467" lon="0.04294">
        <ele>796.1</ele>
        <time>2012-04-20T15:10:56.000Z</time>
      </trkpt>
      <trkpt lat="42.45456" lon="0.04312">
        <ele>796.1</ele>
        <time>2012-04-20T15:11:13.000Z</time>
      </trkpt>
      <trkpt lat="42.45446" lon="0.0432">
        <ele>798</ele>
        <time>2012-04-20T15:11:26.000Z</time>
      </trkpt>
      <trkpt lat="42.45443" lon="0.04314">
        <ele>799</ele>
        <time>2012-04-20T15:11:34.000Z</time>
      </trkpt>
      <trkpt lat="42.45439" lon="0.04297">
        <ele>801.4</ele>
        <time>2012-04-20T15:11:48.000Z</time>
      </trkpt>
      <trkpt lat="42.45435" lon="0.0428">
        <ele>804.8</ele>
        <time>2012-04-20T15:12:02.000Z</time>
      </trkpt>
      <trkpt lat="42.4543" lon="0.04263">
        <ele>807.2</ele>
        <time>2012-04-20T15:12:17.000Z</time>
      </trkpt>
      <trkpt lat="42.45426" lon="0.04249">
        <ele>809.1</ele>
        <time>2012-04-20T15:12:28.000Z</time>
      </trkpt>
      <trkpt lat="42.45419" lon="0.04233">
        <ele>811</ele>
        <time>2012-04-20T15:12:43.000Z</time>
      </trkpt>
      <trkpt lat="42.45416" lon="0.04215">
        <ele>813.9</ele>
        <time>2012-04-20T15:12:58.000Z</time>
      </trkpt>
      <trkpt lat="42.45413" lon="0.04203">
        <ele>816.8</ele>
        <time>2012-04-20T15:13:12.000Z</time>
      </trkpt>
      <trkpt lat="42.45413" lon="0.04202">
        <ele>817.3</ele>
        <time>2012-04-20T15:13:28.000Z</time>
      </trkpt>
      <trkpt lat="42.45413" lon="0.04202">
        <ele>817.3</ele>
        <time>2012-04-20T15:13:54.000Z</time>
      </trkpt>
      <trkpt lat="42.45413" lon="0.04202">
        <ele>817.3</ele>
        <time>2012-04-20T15:14:27.000Z</time>
      </trkpt>
      <trkpt lat="42.45414" lon="0.04202">
        <ele>817.3</ele>
        <time>2012-04-20T15:14:50.000Z</time>
      </trkpt>
      <trkpt lat="42.45414" lon="0.04195">
        <ele>818.7</ele>
        <time>2012-04-20T15:15:02.000Z</time>
      </trkpt>
      <trkpt lat="42.45417" lon="0.04181">
        <ele>820.6</ele>
        <time>2012-04-20T15:15:16.000Z</time>
      </trkpt>
      <trkpt lat="42.45422" lon="0.04168">
        <ele>822.5</ele>
        <time>2012-04-20T15:15:28.000Z</time>
      </trkpt>
      <trkpt lat="42.45422" lon="0.04156">
        <ele>824.5</ele>
        <time>2012-04-20T15:15:43.000Z</time>
      </trkpt>
      <trkpt lat="42.45415" lon="0.04163">
        <ele>826.4</ele>
        <time>2012-04-20T15:15:57.000Z</time>
      </trkpt>
      <trkpt lat="42.4541" lon="0.04167">
        <ele>827.3</ele>
        <time>2012-04-20T15:16:14.000Z</time>
      </trkpt>
      <trkpt lat="42.454" lon="0.04176">
        <ele>828.8</ele>
        <time>2012-04-20T15:16:30.000Z</time>
      </trkpt>
      <trkpt lat="42.45389" lon="0.04172">
        <ele>831.2</ele>
        <time>2012-04-20T15:16:44.000Z</time>
      </trkpt>
      <trkpt lat="42.45387" lon="0.04168">
        <ele>833.1</ele>
        <time>2012-04-20T15:17:01.000Z</time>
      </trkpt>
      <trkpt lat="42.45385" lon="0.04157">
        <ele>834.6</ele>
        <time>2012-04-20T15:17:13.000Z</time>
      </trkpt>
      <trkpt lat="42.45387" lon="0.04139">
        <ele>836</ele>
        <time>2012-04-20T15:17:28.000Z</time>
      </trkpt>
      <trkpt lat="42.45392" lon="0.04127">
        <ele>837</ele>
        <time>2012-04-20T15:17:39.000Z</time>
      </trkpt>
      <trkpt lat="42.45398" lon="0.0411">
        <ele>839.4</ele>
        <time>2012-04-20T15:17:54.000Z</time>
      </trkpt>
      <trkpt lat="42.45403" lon="0.04101">
        <ele>841.8</ele>
        <time>2012-04-20T15:18:06.000Z</time>
      </trkpt>
      <trkpt lat="42.45408" lon="0.04095">
        <ele>841.8</ele>
        <time>2012-04-20T15:18:19.000Z</time>
      </trkpt>
      <trkpt lat="42.4541" lon="0.04092">
        <ele>843.2</ele>
        <time>2012-04-20T15:18:38.000Z</time>
      </trkpt>
      <trkpt lat="42.45415" lon="0.04077">
        <ele>843.7</ele>
        <time>2012-04-20T15:18:49.000Z</time>
      </trkpt>
      <trkpt lat="42.45407" lon="0.04066">
        <ele>845.1</ele>
        <time>2012-04-20T15:19:04.000Z</time>
      </trkpt>
      <trkpt lat="42.45399" lon="0.04075">
        <ele>847.1</ele>
        <time>2012-04-20T15:19:21.000Z</time>
      </trkpt>
      <trkpt lat="42.45385" lon="0.04084">
        <ele>849.9</ele>
        <time>2012-04-20T15:19:40.000Z</time>
      </trkpt>
      <trkpt lat="42.45379" lon="0.04087">
        <ele>850.9</ele>
        <time>2012-04-20T15:19:55.000Z</time>
      </trkpt>
      <trkpt lat="42.45369" lon="0.04093">
        <ele>851.9</ele>
        <time>2012-04-20T15:20:08.000Z</time>
      </trkpt>
      <trkpt lat="42.45365" lon="0.04096">
        <ele>852.8</ele>
        <time>2012-04-20T15:20:22.000Z</time>
      </trkpt>
      <trkpt lat="42.45359" lon="0.04102">
        <ele>853.8</ele>
        <time>2012-04-20T15:20:35.000Z</time>
      </trkpt>
      <trkpt lat="42.45344" lon="0.04103">
        <ele>855.7</ele>
        <time>2012-04-20T15:20:50.000Z</time>
      </trkpt>
      <trkpt lat="42.45344" lon="0.04103">
        <ele>856.7</ele>
        <time>2012-04-20T15:21:09.000Z</time>
      </trkpt>
      <trkpt lat="42.45344" lon="0.04103">
        <ele>857.2</ele>
        <time>2012-04-20T15:21:27.000Z</time>
      </trkpt>
      <trkpt lat="42.45344" lon="0.04103">
        <ele>858.1</ele>
        <time>2012-04-20T15:21:42.000Z</time>
      </trkpt>
      <trkpt lat="42.45335" lon="0.04106">
        <ele>859.1</ele>
        <time>2012-04-20T15:21:55.000Z</time>
      </trkpt>
      <trkpt lat="42.45324" lon="0.04102">
        <ele>860.5</ele>
        <time>2012-04-20T15:22:08.000Z</time>
      </trkpt>
      <trkpt lat="42.45324" lon="0.041">
        <ele>861.5</ele>
        <time>2012-04-20T15:22:10.000Z</time>
      </trkpt>
      <trkpt lat="42.45334" lon="0.04086">
        <ele>863.4</ele>
        <time>2012-04-20T15:22:26.000Z</time>
      </trkpt>
      <trkpt lat="42.45345" lon="0.0407">
        <ele>865.3</ele>
        <time>2012-04-20T15:22:43.000Z</time>
      </trkpt>
      <trkpt lat="42.45353" lon="0.04058">
        <ele>866.3</ele>
        <time>2012-04-20T15:22:57.000Z</time>
      </trkpt>
      <trkpt lat="42.45359" lon="0.04043">
        <ele>867.7</ele>
        <time>2012-04-20T15:23:11.000Z</time>
      </trkpt>
      <trkpt lat="42.45358" lon="0.04025">
        <ele>869.2</ele>
        <time>2012-04-20T15:23:25.000Z</time>
      </trkpt>
      <trkpt lat="42.45359" lon="0.04008">
        <ele>870.6</ele>
        <time>2012-04-20T15:23:39.000Z</time>
      </trkpt>
      <trkpt lat="42.45359" lon="0.03993">
        <ele>871.6</ele>
        <time>2012-04-20T15:23:52.000Z</time>
      </trkpt>
      <trkpt lat="42.45359" lon="0.03993">
        <ele>871.6</ele>
        <time>2012-04-20T15:23:52.000Z</time>
      </trkpt>
      <trkpt lat="42.45365" lon="0.03976">
        <ele>873</ele>
        <time>2012-04-20T15:24:06.000Z</time>
      </trkpt>
      <trkpt lat="42.45367" lon="0.03973">
        <ele>873.5</ele>
        <time>2012-04-20T15:24:09.000Z</time>
      </trkpt>
      <trkpt lat="42.45369" lon="0.0397">
        <ele>873.5</ele>
        <time>2012-04-20T15:24:12.000Z</time>
      </trkpt>
      <trkpt lat="42.45375" lon="0.03964">
        <ele>874.5</ele>
        <time>2012-04-20T15:24:21.000Z</time>
      </trkpt>
      <trkpt lat="42.45383" lon="0.03947">
        <ele>875.4</ele>
        <time>2012-04-20T15:24:34.000Z</time>
      </trkpt>
      <trkpt lat="42.45383" lon="0.03929">
        <ele>876.9</ele>
        <time>2012-04-20T15:24:49.000Z</time>
      </trkpt>
      <trkpt lat="42.45375" lon="0.03919">
        <ele>878.8</ele>
        <time>2012-04-20T15:25:03.000Z</time>
      </trkpt>
      <trkpt lat="42.45369" lon="0.03917">
        <ele>880.2</ele>
        <time>2012-04-20T15:25:11.000Z</time>
      </trkpt>
      <trkpt lat="42.45357" lon="0.03917">
        <ele>881.7</ele>
        <time>2012-04-20T15:25:25.000Z</time>
      </trkpt>
      <trkpt lat="42.4535" lon="0.03915">
        <ele>882.6</ele>
        <time>2012-04-20T15:25:33.000Z</time>
      </trkpt>
      <trkpt lat="42.45335" lon="0.03911">
        <ele>885</ele>
        <time>2012-04-20T15:25:48.000Z</time>
      </trkpt>
      <trkpt lat="42.45328" lon="0.03909">
        <ele>886</ele>
        <time>2012-04-20T15:25:55.000Z</time>
      </trkpt>
      <trkpt lat="42.45319" lon="0.0391">
        <ele>887.4</ele>
        <time>2012-04-20T15:26:04.000Z</time>
      </trkpt>
      <trkpt lat="42.45314" lon="0.03915">
        <ele>887.9</ele>
        <time>2012-04-20T15:26:10.000Z</time>
      </trkpt>
      <trkpt lat="42.45307" lon="0.03937">
        <ele>889.8</ele>
        <time>2012-04-20T15:26:27.000Z</time>
      </trkpt>
      <trkpt lat="42.45304" lon="0.0395">
        <ele>891.3</ele>
        <time>2012-04-20T15:26:36.000Z</time>
      </trkpt>
      <trkpt lat="42.45296" lon="0.03972">
        <ele>892.2</ele>
        <time>2012-04-20T15:26:51.000Z</time>
      </trkpt>
      <trkpt lat="42.45295" lon="0.03974">
        <ele>892.2</ele>
        <time>2012-04-20T15:26:52.000Z</time>
      </trkpt>
      <trkpt lat="42.4529" lon="0.03982">
        <ele>892.7</ele>
        <time>2012-04-20T15:27:00.000Z</time>
      </trkpt>
      <trkpt lat="42.45275" lon="0.03986">
        <ele>894.2</ele>
        <time>2012-04-20T15:27:16.000Z</time>
      </trkpt>
      <trkpt lat="42.45273" lon="0.03983">
        <ele>894.6</ele>
        <time>2012-04-20T15:27:20.000Z</time>
      </trkpt>
      <trkpt lat="42.45269" lon="0.03962">
        <ele>897.5</ele>
        <time>2012-04-20T15:27:34.000Z</time>
      </trkpt>
      <trkpt lat="42.4527" lon="0.0395">
        <ele>899.5</ele>
        <time>2012-04-20T15:27:43.000Z</time>
      </trkpt>
      <trkpt lat="42.45273" lon="0.03933">
        <ele>901.8</ele>
        <time>2012-04-20T15:27:57.000Z</time>
      </trkpt>
      <trkpt lat="42.45269" lon="0.03918">
        <ele>903.3</ele>
        <time>2012-04-20T15:28:07.000Z</time>
      </trkpt>
      <trkpt lat="42.45265" lon="0.03897">
        <ele>905.7</ele>
        <time>2012-04-20T15:28:22.000Z</time>
      </trkpt>
      <trkpt lat="42.45264" lon="0.03873">
        <ele>907.6</ele>
        <time>2012-04-20T15:28:37.000Z</time>
      </trkpt>
      <trkpt lat="42.45266" lon="0.03865">
        <ele>908.6</ele>
        <time>2012-04-20T15:28:43.000Z</time>
      </trkpt>
      <trkpt lat="42.45271" lon="0.03836">
        <ele>910.5</ele>
        <time>2012-04-20T15:29:01.000Z</time>
      </trkpt>
      <trkpt lat="42.45271" lon="0.03815">
        <ele>912.4</ele>
        <time>2012-04-20T15:29:15.000Z</time>
      </trkpt>
      <trkpt lat="42.45264" lon="0.038">
        <ele>915.3</ele>
        <time>2012-04-20T15:29:30.000Z</time>
      </trkpt>
      <trkpt lat="42.45259" lon="0.03786">
        <ele>917.2</ele>
        <time>2012-04-20T15:29:42.000Z</time>
      </trkpt>
      <trkpt lat="42.45254" lon="0.03781">
        <ele>919.2</ele>
        <time>2012-04-20T15:29:50.000Z</time>
      </trkpt>
      <trkpt lat="42.45253" lon="0.03779">
        <ele>922</ele>
        <time>2012-11-12T12:06:40.000Z</time>
      </trkpt>
      <trkpt lat="42.45244" lon="0.0375">
        <ele>929.2</ele>
        <time>2012-11-12T12:06:40.000Z</time>
        <extensions>
          <gpxtpx:TrackPointExtension xmlns:gpxtpx="http://www.garmin.com/xmlschemas/TrackPointExtension/v1">
            <gpxtpx:hr>138</gpxtpx:hr>
          </gpxtpx:TrackPointExtension>
        </extensions>
      </trkpt>
      <trkpt lat="42.45243" lon="0.03729">
        <ele>933.1</ele>
        <time>2012-11-12T12:07:54.000Z</time>
        <extensions>
          <gpxtpx:TrackPointExtension xmlns:gpxtpx="http://www.garmin.com/xmlschemas/TrackPointExtension/v1">
            <gpxtpx:hr>112</gpxtpx:hr>
          </gpxtpx:TrackPointExtension>
        </extensions>
      </trkpt>
      <trkpt lat="42.45247" lon="0.03715">
        <ele>934.5</ele>
        <time>2012-11-12T12:08:26.000Z</time>
        <extensions>
          <gpxtpx:TrackPointExtension xmlns:gpxtpx="http://www.garmin.com/xmlschemas/TrackPointExtension/v1">
            <gpxtpx:hr>122</gpxtpx:hr>
          </gpxtpx:TrackPointExtension>
        </extensions>
      </trkpt>
      <trkpt lat="42.45251" lon="0.03709">
        <ele>935</ele>
        <time>2012-11-12T12:08:30.000Z</time>
        <extensions>
          <gpxtpx:TrackPointExtension xmlns:gpxtpx="http://www.garmin.com/xmlschemas/TrackPointExtension/v1">
            <gpxtpx:hr>122</gpxtpx:hr>
          </gpxtpx:TrackPointExtension>
        </extensions>
      </trkpt>
      <trkpt lat="42.45251" lon="0.03707">
        <ele>934.5</ele>
        <time>2012-11-12T12:08:37.000Z</time>
        <extensions>
          <gpxtpx:TrackPointExtension xmlns:gpxtpx="http://www.garmin.com/xmlschemas/TrackPointExtension/v1">
            <gpxtpx:hr>119</gpxtpx:hr>
          </gpxtpx:TrackPointExtension>
        </extensions>
      </trkpt>
      <trkpt lat="42.45254" lon="0.03708">
        <ele>934.5</ele>
        <time>2012-11-12T12:08:59.000Z</time>
        <extensions>
          <gpxtpx:TrackPointExtension xmlns:gpxtpx="http://www.garmin.com/xmlschemas/TrackPointExtension/v1">
            <gpxtpx:hr>121</gpxtpx:hr>
          </gpxtpx:TrackPointExtension>
        </extensions>
      </trkpt>
      <trkpt lat="42.45256" lon="0.03707">
        <ele>934.5</ele>
        <time>2012-11-12T12:09:00.000Z</time>
        <extensions>
          <gpxtpx:TrackPointExtension xmlns:gpxtpx="http://www.garmin.com/xmlschemas/TrackPointExtension/v1">
            <gpxtpx:hr>119</gpxtpx:hr>
          </gpxtpx:TrackPointExtension>
        </extensions>
      </trkpt>
      <trkpt lat="42.45258" lon="0.03706">
        <ele>934.5</ele>
        <time>2012-11-12T12:09:01.000Z</time>
        <extensions>
          <gpxtpx:TrackPointExtension xmlns:gpxtpx="http://www.garmin.com/xmlschemas/TrackPointExtension/v1">
            <gpxtpx:hr>118</gpxtpx:hr>
          </gpxtpx:TrackPointExtension>
        </extensions>
      </trkpt>
      <trkpt lat="42.45276" lon="0.03705">
        <ele>934.5</ele>
        <time>2012-11-12T12:09:08.000Z</time>
        <extensions>
          <gpxtpx:TrackPointExtension xmlns:gpxtpx="http://www.garmin.com/xmlschemas/TrackPointExtension/v1">
            <gpxtpx:hr>110</gpxtpx:hr>
          </gpxtpx:TrackPointExtension>
        </extensions>
      </trkpt>
      <trkpt lat="42.45301" lon="0.03715">
        <ele>935</ele>
        <time>2012-11-12T12:09:18.000Z</time>
        <extensions>
          <gpxtpx:TrackPointExtension xmlns:gpxtpx="http://www.garmin.com/xmlschemas/TrackPointExtension/v1">
            <gpxtpx:hr>107</gpxtpx:hr>
          </gpxtpx:TrackPointExtension>
        </extensions>
      </trkpt>
      <trkpt lat="42.45327" lon="0.03717">
        <ele>936.5</ele>
        <time>2012-11-12T12:09:27.000Z</time>
        <extensions>
          <gpxtpx:TrackPointExtension xmlns:gpxtpx="http://www.garmin.com/xmlschemas/TrackPointExtension/v1">
            <gpxtpx:hr>122</gpxtpx:hr>
          </gpxtpx:TrackPointExtension>
        </extensions>
      </trkpt>
      <trkpt lat="42.45342" lon="0.03712">
        <ele>938.4</ele>
        <time>2012-11-12T12:09:34.000Z</time>
        <extensions>
          <gpxtpx:TrackPointExtension xmlns:gpxtpx="http://www.garmin.com/xmlschemas/TrackPointExtension/v1">
            <gpxtpx:hr>127</gpxtpx:hr>
          </gpxtpx:TrackPointExtension>
        </extensions>
      </trkpt>
      <trkpt lat="42.45343" lon="0.03711">
        <ele>938.9</ele>
        <time>2012-11-12T12:09:39.000Z</time>
        <extensions>
          <gpxtpx:TrackPointExtension xmlns:gpxtpx="http://www.garmin.com/xmlschemas/TrackPointExtension/v1">
            <gpxtpx:hr>133</gpxtpx:hr>
          </gpxtpx:TrackPointExtension>
        </extensions>
      </trkpt>
      <trkpt lat="42.45342" lon="0.03711">
        <ele>937.9</ele>
        <time>2012-11-12T12:09:49.000Z</time>
        <extensions>
          <gpxtpx:TrackPointExtension xmlns:gpxtpx="http://www.garmin.com/xmlschemas/TrackPointExtension/v1">
            <gpxtpx:hr>128</gpxtpx:hr>
          </gpxtpx:TrackPointExtension>
        </extensions>
      </trkpt>
      <trkpt lat="42.45341" lon="0.03708">
        <ele>937.9</ele>
        <time>2012-11-12T12:16:05.000Z</time>
        <extensions>
          <gpxtpx:TrackPointExtension xmlns:gpxtpx="http://www.garmin.com/xmlschemas/TrackPointExtension/v1">
            <gpxtpx:hr>95</gpxtpx:hr>
          </gpxtpx:TrackPointExtension>
        </extensions>
      </trkpt>
      <trkpt lat="42.45341" lon="0.03711">
        <ele>937.4</ele>
        <time>2012-11-12T12:16:07.000Z</time>
        <extensions>
          <gpxtpx:TrackPointExtension xmlns:gpxtpx="http://www.garmin.com/xmlschemas/TrackPointExtension/v1">
            <gpxtpx:hr>97</gpxtpx:hr>
          </gpxtpx:TrackPointExtension>
        </extensions>
      </trkpt>
      <trkpt lat="42.45341" lon="0.03713">
        <ele>936.9</ele>
        <time>2012-11-12T12:16:08.000Z</time>
        <extensions>
          <gpxtpx:TrackPointExtension xmlns:gpxtpx="http://www.garmin.com/xmlschemas/TrackPointExtension/v1">
            <gpxtpx:hr>98</gpxtpx:hr>
          </gpxtpx:TrackPointExtension>
        </extensions>
      </trkpt>
      <trkpt lat="42.45342" lon="0.03716">
        <ele>935.5</ele>
        <time>2012-11-12T12:16:10.000Z</time>
        <extensions>
          <gpxtpx:TrackPointExtension xmlns:gpxtpx="http://www.garmin.com/xmlschemas/TrackPointExtension/v1">
            <gpxtpx:hr>99</gpxtpx:hr>
          </gpxtpx:TrackPointExtension>
        </extensions>
      </trkpt>
      <trkpt lat="42.45343" lon="0.03726">
        <ele>931.7</ele>
        <time>2012-11-12T12:16:16.000Z</time>
        <extensions>
          <gpxtpx:TrackPointExtension xmlns:gpxtpx="http://www.garmin.com/xmlschemas/TrackPointExtension/v1">
            <gpxtpx:hr>93</gpxtpx:hr>
          </gpxtpx:TrackPointExtension>
        </extensions>
      </trkpt>
      <trkpt lat="42.45345" lon="0.0373">
        <ele>931.2</ele>
        <time>2012-11-12T12:16:23.000Z</time>
        <extensions>
          <gpxtpx:TrackPointExtension xmlns:gpxtpx="http://www.garmin.com/xmlschemas/TrackPointExtension/v1">
            <gpxtpx:hr>92</gpxtpx:hr>
          </gpxtpx:TrackPointExtension>
        </extensions>
      </trkpt>
      <trkpt lat="42.45347" lon="0.03729">
        <ele>931.2</ele>
        <time>2012-11-12T12:16:40.000Z</time>
        <extensions>
          <gpxtpx:TrackPointExtension xmlns:gpxtpx="http://www.garmin.com/xmlschemas/TrackPointExtension/v1">
            <gpxtpx:hr>87</gpxtpx:hr>
          </gpxtpx:TrackPointExtension>
        </extensions>
      </trkpt>
      <trkpt lat="42.45348" lon="0.0373">
        <ele>931.7</ele>
        <time>2012-11-12T12:16:47.000Z</time>
        <extensions>
          <gpxtpx:TrackPointExtension xmlns:gpxtpx="http://www.garmin.com/xmlschemas/TrackPointExtension/v1">
            <gpxtpx:hr>93</gpxtpx:hr>
          </gpxtpx:TrackPointExtension>
        </extensions>
      </trkpt>
      <trkpt lat="42.45349" lon="0.03741">
        <ele>929.2</ele>
        <time>2012-11-12T12:16:52.000Z</time>
        <extensions>
          <gpxtpx:TrackPointExtension xmlns:gpxtpx="http://www.garmin.com/xmlschemas/TrackPointExtension/v1">
            <gpxtpx:hr>94</gpxtpx:hr>
          </gpxtpx:TrackPointExtension>
        </extensions>
      </trkpt>
      <trkpt lat="42.4535" lon="0.03746">
        <ele>927.3</ele>
        <time>2012-11-12T12:16:54.000Z</time>
        <extensions>
          <gpxtpx:TrackPointExtension xmlns:gpxtpx="http://www.garmin.com/xmlschemas/TrackPointExtension/v1">
            <gpxtpx:hr>94</gpxtpx:hr>
          </gpxtpx:TrackPointExtension>
        </extensions>
      </trkpt>
      <trkpt lat="42.4535" lon="0.03756">
        <ele>923.5</ele>
        <time>2012-11-12T12:16:59.000Z</time>
        <extensions>
          <gpxtpx:TrackPointExtension xmlns:gpxtpx="http://www.garmin.com/xmlschemas/TrackPointExtension/v1">
            <gpxtpx:hr>91</gpxtpx:hr>
          </gpxtpx:TrackPointExtension>
        </extensions>
      </trkpt>
      <trkpt lat="42.45355" lon="0.03763">
        <ele>921.6</ele>
        <time>2012-11-12T12:17:03.000Z</time>
        <extensions>
          <gpxtpx:TrackPointExtension xmlns:gpxtpx="http://www.garmin.com/xmlschemas/TrackPointExtension/v1">
            <gpxtpx:hr>90</gpxtpx:hr>
          </gpxtpx:TrackPointExtension>
        </extensions>
      </trkpt>
      <trkpt lat="42.4536" lon="0.03779">
        <ele>918.2</ele>
        <time>2012-11-12T12:17:07.000Z</time>
        <extensions>
          <gpxtpx:TrackPointExtension xmlns:gpxtpx="http://www.garmin.com/xmlschemas/TrackPointExtension/v1">
            <gpxtpx:hr>92</gpxtpx:hr>
          </gpxtpx:TrackPointExtension>
        </extensions>
      </trkpt>
      <trkpt lat="42.45364" lon="0.03789">
        <ele>914.8</ele>
        <time>2012-11-12T12:17:09.000Z</time>
        <extensions>
          <gpxtpx:TrackPointExtension xmlns:gpxtpx="http://www.garmin.com/xmlschemas/TrackPointExtension/v1">
            <gpxtpx:hr>94</gpxtpx:hr>
          </gpxtpx:TrackPointExtension>
        </extensions>
      </trkpt>
      <trkpt lat="42.45369" lon="0.03803">
        <ele>911</ele>
        <time>2012-11-12T12:17:12.000Z</time>
        <extensions>
          <gpxtpx:TrackPointExtension xmlns:gpxtpx="http://www.garmin.com/xmlschemas/TrackPointExtension/v1">
            <gpxtpx:hr>97</gpxtpx:hr>
          </gpxtpx:TrackPointExtension>
        </extensions>
      </trkpt>
      <trkpt lat="42.45374" lon="0.03816">
        <ele>907.6</ele>
        <time>2012-11-12T12:17:15.000Z</time>
        <extensions>
          <gpxtpx:TrackPointExtension xmlns:gpxtpx="http://www.garmin.com/xmlschemas/TrackPointExtension/v1">
            <gpxtpx:hr>98</gpxtpx:hr>
          </gpxtpx:TrackPointExtension>
        </extensions>
      </trkpt>
      <trkpt lat="42.45372" lon="0.03837">
        <ele>900.9</ele>
        <time>2012-11-12T12:17:20.000Z</time>
        <extensions>
          <gpxtpx:TrackPointExtension xmlns:gpxtpx="http://www.garmin.com/xmlschemas/TrackPointExtension/v1">
            <gpxtpx:hr>100</gpxtpx:hr>
          </gpxtpx:TrackPointExtension>
        </extensions>
      </trkpt>
      <trkpt lat="42.45374" lon="0.03845">
        <ele>898</ele>
        <time>2012-11-12T12:17:23.000Z</time>
        <extensions>
          <gpxtpx:TrackPointExtension xmlns:gpxtpx="http://www.garmin.com/xmlschemas/TrackPointExtension/v1">
            <gpxtpx:hr>102</gpxtpx:hr>
          </gpxtpx:TrackPointExtension>
        </extensions>
      </trkpt>
      <trkpt lat="42.45375" lon="0.03846">
        <ele>898</ele>
        <time>2012-11-12T12:17:27.000Z</time>
        <extensions>
          <gpxtpx:TrackPointExtension xmlns:gpxtpx="http://www.garmin.com/xmlschemas/TrackPointExtension/v1">
            <gpxtpx:hr>103</gpxtpx:hr>
          </gpxtpx:TrackPointExtension>
        </extensions>
      </trkpt>
      <trkpt lat="42.45381" lon="0.0385">
        <ele>897.5</ele>
        <time>2012-11-12T12:17:38.000Z</time>
        <extensions>
          <gpxtpx:TrackPointExtension xmlns:gpxtpx="http://www.garmin.com/xmlschemas/TrackPointExtension/v1">
            <gpxtpx:hr>105</gpxtpx:hr>
          </gpxtpx:TrackPointExtension>
        </extensions>
      </trkpt>
      <trkpt lat="42.45388" lon="0.03853">
        <ele>897.5</ele>
        <time>2012-11-12T12:17:41.000Z</time>
        <extensions>
          <gpxtpx:TrackPointExtension xmlns:gpxtpx="http://www.garmin.com/xmlschemas/TrackPointExtension/v1">
            <gpxtpx:hr>102</gpxtpx:hr>
          </gpxtpx:TrackPointExtension>
        </extensions>
      </trkpt>
      <trkpt lat="42.45385" lon="0.03865">
        <ele>893.7</ele>
        <time>2012-11-12T12:17:46.000Z</time>
        <extensions>
          <gpxtpx:TrackPointExtension xmlns:gpxtpx="http://www.garmin.com/xmlschemas/TrackPointExtension/v1">
            <gpxtpx:hr>99</gpxtpx:hr>
          </gpxtpx:TrackPointExtension>
        </extensions>
      </trkpt>
      <trkpt lat="42.45384" lon="0.03868">
        <ele>892.7</ele>
        <time>2012-11-12T12:17:47.000Z</time>
        <extensions>
          <gpxtpx:TrackPointExtension xmlns:gpxtpx="http://www.garmin.com/xmlschemas/TrackPointExtension/v1">
            <gpxtpx:hr>99</gpxtpx:hr>
          </gpxtpx:TrackPointExtension>
        </extensions>
      </trkpt>
      <trkpt lat="42.4539" lon="0.03882">
        <ele>888.4</ele>
        <time>2012-11-12T12:17:51.000Z</time>
        <extensions>
          <gpxtpx:TrackPointExtension xmlns:gpxtpx="http://www.garmin.com/xmlschemas/TrackPointExtension/v1">
            <gpxtpx:hr>93</gpxtpx:hr>
          </gpxtpx:TrackPointExtension>
        </extensions>
      </trkpt>
      <trkpt lat="42.45394" lon="0.03891">
        <ele>885</ele>
        <time>2012-11-12T12:17:54.000Z</time>
        <extensions>
          <gpxtpx:TrackPointExtension xmlns:gpxtpx="http://www.garmin.com/xmlschemas/TrackPointExtension/v1">
            <gpxtpx:hr>95</gpxtpx:hr>
          </gpxtpx:TrackPointExtension>
        </extensions>
      </trkpt>
      <trkpt lat="42.45403" lon="0.03896">
        <ele>881.7</ele>
        <time>2012-11-12T12:17:58.000Z</time>
        <extensions>
          <gpxtpx:TrackPointExtension xmlns:gpxtpx="http://www.garmin.com/xmlschemas/TrackPointExtension/v1">
            <gpxtpx:hr>95</gpxtpx:hr>
          </gpxtpx:TrackPointExtension>
        </extensions>
      </trkpt>
      <trkpt lat="42.45407" lon="0.03907">
        <ele>877.8</ele>
        <time>2012-11-12T12:18:02.000Z</time>
        <extensions>
          <gpxtpx:TrackPointExtension xmlns:gpxtpx="http://www.garmin.com/xmlschemas/TrackPointExtension/v1">
            <gpxtpx:hr>99</gpxtpx:hr>
          </gpxtpx:TrackPointExtension>
        </extensions>
      </trkpt>
      <trkpt lat="42.45406" lon="0.03911">
        <ele>877.8</ele>
        <time>2012-11-12T12:18:03.000Z</time>
        <extensions>
          <gpxtpx:TrackPointExtension xmlns:gpxtpx="http://www.garmin.com/xmlschemas/TrackPointExtension/v1">
            <gpxtpx:hr>101</gpxtpx:hr>
          </gpxtpx:TrackPointExtension>
        </extensions>
      </trkpt>
      <trkpt lat="42.45406" lon="0.03915">
        <ele>876.9</ele>
        <time>2012-11-12T12:18:04.000Z</time>
        <extensions>
          <gpxtpx:TrackPointExtension xmlns:gpxtpx="http://www.garmin.com/xmlschemas/TrackPointExtension/v1">
            <gpxtpx:hr>101</gpxtpx:hr>
          </gpxtpx:TrackPointExtension>
        </extensions>
      </trkpt>
      <trkpt lat="42.45405" lon="0.03921">
        <ele>876.4</ele>
        <time>2012-11-12T12:18:05.000Z</time>
        <extensions>
          <gpxtpx:TrackPointExtension xmlns:gpxtpx="http://www.garmin.com/xmlschemas/TrackPointExtension/v1">
            <gpxtpx:hr>103</gpxtpx:hr>
          </gpxtpx:TrackPointExtension>
        </extensions>
      </trkpt>
      <trkpt lat="42.45405" lon="0.03926">
        <ele>875.4</ele>
        <time>2012-11-12T12:18:06.000Z</time>
        <extensions>
          <gpxtpx:TrackPointExtension xmlns:gpxtpx="http://www.garmin.com/xmlschemas/TrackPointExtension/v1">
            <gpxtpx:hr>105</gpxtpx:hr>
          </gpxtpx:TrackPointExtension>
        </extensions>
      </trkpt>
      <trkpt lat="42.45407" lon="0.0393">
        <ele>874.9</ele>
        <time>2012-11-12T12:18:07.000Z</time>
        <extensions>
          <gpxtpx:TrackPointExtension xmlns:gpxtpx="http://www.garmin.com/xmlschemas/TrackPointExtension/v1">
            <gpxtpx:hr>106</gpxtpx:hr>
          </gpxtpx:TrackPointExtension>
        </extensions>
      </trkpt>
      <trkpt lat="42.45409" lon="0.03935">
        <ele>874</ele>
        <time>2012-11-12T12:18:08.000Z</time>
        <extensions>
          <gpxtpx:TrackPointExtension xmlns:gpxtpx="http://www.garmin.com/xmlschemas/TrackPointExtension/v1">
            <gpxtpx:hr>108</gpxtpx:hr>
          </gpxtpx:TrackPointExtension>
        </extensions>
      </trkpt>
      <trkpt lat="42.45412" lon="0.03941">
        <ele>873</ele>
        <time>2012-11-12T12:18:09.000Z</time>
        <extensions>
          <gpxtpx:TrackPointExtension xmlns:gpxtpx="http://www.garmin.com/xmlschemas/TrackPointExtension/v1">
            <gpxtpx:hr>110</gpxtpx:hr>
          </gpxtpx:TrackPointExtension>
        </extensions>
      </trkpt>
      <trkpt lat="42.45419" lon="0.03967">
        <ele>869.2</ele>
        <time>2012-11-12T12:18:13.000Z</time>
        <extensions>
          <gpxtpx:TrackPointExtension xmlns:gpxtpx="http://www.garmin.com/xmlschemas/TrackPointExtension/v1">
            <gpxtpx:hr>118</gpxtpx:hr>
          </gpxtpx:TrackPointExtension>
        </extensions>
      </trkpt>
      <trkpt lat="42.45427" lon="0.03983">
        <ele>865.8</ele>
        <time>2012-11-12T12:18:16.000Z</time>
        <extensions>
          <gpxtpx:TrackPointExtension xmlns:gpxtpx="http://www.garmin.com/xmlschemas/TrackPointExtension/v1">
            <gpxtpx:hr>115</gpxtpx:hr>
          </gpxtpx:TrackPointExtension>
        </extensions>
      </trkpt>
      <trkpt lat="42.45432" lon="0.03982">
        <ele>863.9</ele>
        <time>2012-11-12T12:18:19.000Z</time>
        <extensions>
          <gpxtpx:TrackPointExtension xmlns:gpxtpx="http://www.garmin.com/xmlschemas/TrackPointExtension/v1">
            <gpxtpx:hr>113</gpxtpx:hr>
          </gpxtpx:TrackPointExtension>
        </extensions>
      </trkpt>
      <trkpt lat="42.45436" lon="0.0398">
        <ele>862.4</ele>
        <time>2012-11-12T12:18:22.000Z</time>
        <extensions>
          <gpxtpx:TrackPointExtension xmlns:gpxtpx="http://www.garmin.com/xmlschemas/TrackPointExtension/v1">
            <gpxtpx:hr>115</gpxtpx:hr>
          </gpxtpx:TrackPointExtension>
        </extensions>
      </trkpt>
      <trkpt lat="42.45438" lon="0.03984">
        <ele>862.4</ele>
        <time>2012-11-12T12:18:28.000Z</time>
        <extensions>
          <gpxtpx:TrackPointExtension xmlns:gpxtpx="http://www.garmin.com/xmlschemas/TrackPointExtension/v1">
            <gpxtpx:hr>115</gpxtpx:hr>
          </gpxtpx:TrackPointExtension>
        </extensions>
      </trkpt>
      <trkpt lat="42.45438" lon="0.03986">
        <ele>862</ele>
        <time>2012-11-12T12:18:40.000Z</time>
        <extensions>
          <gpxtpx:TrackPointExtension xmlns:gpxtpx="http://www.garmin.com/xmlschemas/TrackPointExtension/v1">
            <gpxtpx:hr>105</gpxtpx:hr>
          </gpxtpx:TrackPointExtension>
        </extensions>
      </trkpt>
      <trkpt lat="42.45438" lon="0.03985">
        <ele>862</ele>
        <time>2012-11-12T12:19:01.000Z</time>
        <extensions>
          <gpxtpx:TrackPointExtension xmlns:gpxtpx="http://www.garmin.com/xmlschemas/TrackPointExtension/v1">
            <gpxtpx:hr>101</gpxtpx:hr>
          </gpxtpx:TrackPointExtension>
        </extensions>
      </trkpt>
      <trkpt lat="42.45441" lon="0.03995">
        <ele>861</ele>
        <time>2012-11-12T12:19:13.000Z</time>
        <extensions>
          <gpxtpx:TrackPointExtension xmlns:gpxtpx="http://www.garmin.com/xmlschemas/TrackPointExtension/v1">
            <gpxtpx:hr>100</gpxtpx:hr>
          </gpxtpx:TrackPointExtension>
        </extensions>
      </trkpt>
      <trkpt lat="42.45442" lon="0.0401">
        <ele>858.6</ele>
        <time>2012-11-12T12:19:17.000Z</time>
        <extensions>
          <gpxtpx:TrackPointExtension xmlns:gpxtpx="http://www.garmin.com/xmlschemas/TrackPointExtension/v1">
            <gpxtpx:hr>97</gpxtpx:hr>
          </gpxtpx:TrackPointExtension>
        </extensions>
      </trkpt>
      <trkpt lat="42.45443" lon="0.04011">
        <ele>858.1</ele>
        <time>2012-11-12T12:19:18.000Z</time>
        <extensions>
          <gpxtpx:TrackPointExtension xmlns:gpxtpx="http://www.garmin.com/xmlschemas/TrackPointExtension/v1">
            <gpxtpx:hr>94</gpxtpx:hr>
          </gpxtpx:TrackPointExtension>
        </extensions>
      </trkpt>
      <trkpt lat="42.4545" lon="0.04006">
        <ele>856.7</ele>
        <time>2012-11-12T12:19:24.000Z</time>
        <extensions>
          <gpxtpx:TrackPointExtension xmlns:gpxtpx="http://www.garmin.com/xmlschemas/TrackPointExtension/v1">
            <gpxtpx:hr>93</gpxtpx:hr>
          </gpxtpx:TrackPointExtension>
        </extensions>
      </trkpt>
      <trkpt lat="42.45447" lon="0.04022">
        <ele>854.8</ele>
        <time>2012-11-12T12:19:28.000Z</time>
        <extensions>
          <gpxtpx:TrackPointExtension xmlns:gpxtpx="http://www.garmin.com/xmlschemas/TrackPointExtension/v1">
            <gpxtpx:hr>95</gpxtpx:hr>
          </gpxtpx:TrackPointExtension>
        </extensions>
      </trkpt>
      <trkpt lat="42.45448" lon="0.04029">
        <ele>852.8</ele>
        <time>2012-11-12T12:19:31.000Z</time>
        <extensions>
          <gpxtpx:TrackPointExtension xmlns:gpxtpx="http://www.garmin.com/xmlschemas/TrackPointExtension/v1">
            <gpxtpx:hr>97</gpxtpx:hr>
          </gpxtpx:TrackPointExtension>
        </extensions>
      </trkpt>
      <trkpt lat="42.45452" lon="0.04035">
        <ele>850.4</ele>
        <time>2012-11-12T12:19:35.000Z</time>
        <extensions>
          <gpxtpx:TrackPointExtension xmlns:gpxtpx="http://www.garmin.com/xmlschemas/TrackPointExtension/v1">
            <gpxtpx:hr>100</gpxtpx:hr>
          </gpxtpx:TrackPointExtension>
        </extensions>
      </trkpt>
      <trkpt lat="42.45453" lon="0.04041">
        <ele>849</ele>
        <time>2012-11-12T12:19:39.000Z</time>
        <extensions>
          <gpxtpx:TrackPointExtension xmlns:gpxtpx="http://www.garmin.com/xmlschemas/TrackPointExtension/v1">
            <gpxtpx:hr>102</gpxtpx:hr>
          </gpxtpx:TrackPointExtension>
        </extensions>
      </trkpt>
      <trkpt lat="42.45468" lon="0.04043">
        <ele>845.6</ele>
        <time>2012-11-12T12:19:43.000Z</time>
        <extensions>
          <gpxtpx:TrackPointExtension xmlns:gpxtpx="http://www.garmin.com/xmlschemas/TrackPointExtension/v1">
            <gpxtpx:hr>105</gpxtpx:hr>
          </gpxtpx:TrackPointExtension>
        </extensions>
      </trkpt>
      <trkpt lat="42.45482" lon="0.04031">
        <ele>842.7</ele>
        <time>2012-11-12T12:19:47.000Z</time>
        <extensions>
          <gpxtpx:TrackPointExtension xmlns:gpxtpx="http://www.garmin.com/xmlschemas/TrackPointExtension/v1">
            <gpxtpx:hr>108</gpxtpx:hr>
          </gpxtpx:TrackPointExtension>
        </extensions>
      </trkpt>
      <trkpt lat="42.45487" lon="0.04028">
        <ele>840.3</ele>
        <time>2012-11-12T12:19:50.000Z</time>
        <extensions>
          <gpxtpx:TrackPointExtension xmlns:gpxtpx="http://www.garmin.com/xmlschemas/TrackPointExtension/v1">
            <gpxtpx:hr>110</gpxtpx:hr>
          </gpxtpx:TrackPointExtension>
        </extensions>
      </trkpt>
      <trkpt lat="42.45487" lon="0.0403">
        <ele>839.8</ele>
        <time>2012-11-12T12:19:57.000Z</time>
        <extensions>
          <gpxtpx:TrackPointExtension xmlns:gpxtpx="http://www.garmin.com/xmlschemas/TrackPointExtension/v1">
            <gpxtpx:hr>106</gpxtpx:hr>
          </gpxtpx:TrackPointExtension>
        </extensions>
      </trkpt>
      <trkpt lat="42.45486" lon="0.04031">
        <ele>839.8</ele>
        <time>2012-11-12T12:20:05.000Z</time>
        <extensions>
          <gpxtpx:TrackPointExtension xmlns:gpxtpx="http://www.garmin.com/xmlschemas/TrackPointExtension/v1">
            <gpxtpx:hr>104</gpxtpx:hr>
          </gpxtpx:TrackPointExtension>
        </extensions>
      </trkpt>
      <trkpt lat="42.45487" lon="0.04031">
        <ele>839.8</ele>
        <time>2012-11-12T12:20:06.000Z</time>
        <extensions>
          <gpxtpx:TrackPointExtension xmlns:gpxtpx="http://www.garmin.com/xmlschemas/TrackPointExtension/v1">
            <gpxtpx:hr>103</gpxtpx:hr>
          </gpxtpx:TrackPointExtension>
        </extensions>
      </trkpt>
      <trkpt lat="42.4549" lon="0.04041">
        <ele>837.9</ele>
        <time>2012-11-12T12:20:11.000Z</time>
        <extensions>
          <gpxtpx:TrackPointExtension xmlns:gpxtpx="http://www.garmin.com/xmlschemas/TrackPointExtension/v1">
            <gpxtpx:hr>106</gpxtpx:hr>
          </gpxtpx:TrackPointExtension>
        </extensions>
      </trkpt>
      <trkpt lat="42.4549" lon="0.04046">
        <ele>837</ele>
        <time>2012-11-12T12:20:13.000Z</time>
        <extensions>
          <gpxtpx:TrackPointExtension xmlns:gpxtpx="http://www.garmin.com/xmlschemas/TrackPointExtension/v1">
            <gpxtpx:hr>105</gpxtpx:hr>
          </gpxtpx:TrackPointExtension>
        </extensions>
      </trkpt>
      <trkpt lat="42.45495" lon="0.04049">
        <ele>835</ele>
        <time>2012-11-12T12:20:18.000Z</time>
        <extensions>
          <gpxtpx:TrackPointExtension xmlns:gpxtpx="http://www.garmin.com/xmlschemas/TrackPointExtension/v1">
            <gpxtpx:hr>102</gpxtpx:hr>
          </gpxtpx:TrackPointExtension>
        </extensions>
      </trkpt>
      <trkpt lat="42.45503" lon="0.04047">
        <ele>831.7</ele>
        <time>2012-11-12T12:20:23.000Z</time>
        <extensions>
          <gpxtpx:TrackPointExtension xmlns:gpxtpx="http://www.garmin.com/xmlschemas/TrackPointExtension/v1">
            <gpxtpx:hr>96</gpxtpx:hr>
          </gpxtpx:TrackPointExtension>
        </extensions>
      </trkpt>
      <trkpt lat="42.45505" lon="0.04051">
        <ele>831.2</ele>
        <time>2012-11-12T12:20:24.000Z</time>
        <extensions>
          <gpxtpx:TrackPointExtension xmlns:gpxtpx="http://www.garmin.com/xmlschemas/TrackPointExtension/v1">
            <gpxtpx:hr>96</gpxtpx:hr>
          </gpxtpx:TrackPointExtension>
        </extensions>
      </trkpt>
      <trkpt lat="42.45515" lon="0.04079">
        <ele>824.5</ele>
        <time>2012-11-12T12:20:29.000Z</time>
        <extensions>
          <gpxtpx:TrackPointExtension xmlns:gpxtpx="http://www.garmin.com/xmlschemas/TrackPointExtension/v1">
            <gpxtpx:hr>98</gpxtpx:hr>
          </gpxtpx:TrackPointExtension>
        </extensions>
      </trkpt>
      <trkpt lat="42.45514" lon="0.04084">
        <ele>824.5</ele>
        <time>2012-11-12T12:20:30.000Z</time>
        <extensions>
          <gpxtpx:TrackPointExtension xmlns:gpxtpx="http://www.garmin.com/xmlschemas/TrackPointExtension/v1">
            <gpxtpx:hr>99</gpxtpx:hr>
          </gpxtpx:TrackPointExtension>
        </extensions>
      </trkpt>
      <trkpt lat="42.4552" lon="0.04087">
        <ele>822.1</ele>
        <time>2012-11-12T12:20:33.000Z</time>
        <extensions>
          <gpxtpx:TrackPointExtension xmlns:gpxtpx="http://www.garmin.com/xmlschemas/TrackPointExtension/v1">
            <gpxtpx:hr>102</gpxtpx:hr>
          </gpxtpx:TrackPointExtension>
        </extensions>
      </trkpt>
      <trkpt lat="42.45522" lon="0.04085">
        <ele>822.1</ele>
        <time>2012-11-12T12:20:34.000Z</time>
        <extensions>
          <gpxtpx:TrackPointExtension xmlns:gpxtpx="http://www.garmin.com/xmlschemas/TrackPointExtension/v1">
            <gpxtpx:hr>103</gpxtpx:hr>
          </gpxtpx:TrackPointExtension>
        </extensions>
      </trkpt>
      <trkpt lat="42.45526" lon="0.04086">
        <ele>820.1</ele>
        <time>2012-11-12T12:20:37.000Z</time>
        <extensions>
          <gpxtpx:TrackPointExtension xmlns:gpxtpx="http://www.garmin.com/xmlschemas/TrackPointExtension/v1">
            <gpxtpx:hr>104</gpxtpx:hr>
          </gpxtpx:TrackPointExtension>
        </extensions>
      </trkpt>
      <trkpt lat="42.45527" lon="0.04084">
        <ele>819.7</ele>
        <time>2012-11-12T12:20:39.000Z</time>
        <extensions>
          <gpxtpx:TrackPointExtension xmlns:gpxtpx="http://www.garmin.com/xmlschemas/TrackPointExtension/v1">
            <gpxtpx:hr>106</gpxtpx:hr>
          </gpxtpx:TrackPointExtension>
        </extensions>
      </trkpt>
      <trkpt lat="42.45527" lon="0.04085">
        <ele>820.6</ele>
        <time>2012-11-12T12:20:49.000Z</time>
        <extensions>
          <gpxtpx:TrackPointExtension xmlns:gpxtpx="http://www.garmin.com/xmlschemas/TrackPointExtension/v1">
            <gpxtpx:hr>129</gpxtpx:hr>
          </gpxtpx:TrackPointExtension>
        </extensions>
      </trkpt>
      <trkpt lat="42.45527" lon="0.04087">
        <ele>820.6</ele>
        <time>2012-11-12T12:21:00.000Z</time>
        <extensions>
          <gpxtpx:TrackPointExtension xmlns:gpxtpx="http://www.garmin.com/xmlschemas/TrackPointExtension/v1">
            <gpxtpx:hr>118</gpxtpx:hr>
          </gpxtpx:TrackPointExtension>
        </extensions>
      </trkpt>
      <trkpt lat="42.45527" lon="0.04088">
        <ele>820.1</ele>
        <time>2012-11-12T12:21:07.000Z</time>
        <extensions>
          <gpxtpx:TrackPointExtension xmlns:gpxtpx="http://www.garmin.com/xmlschemas/TrackPointExtension/v1">
            <gpxtpx:hr>121</gpxtpx:hr>
          </gpxtpx:TrackPointExtension>
        </extensions>
      </trkpt>
      <trkpt lat="42.45527" lon="0.0409">
        <ele>820.1</ele>
        <time>2012-11-12T12:21:09.000Z</time>
        <extensions>
          <gpxtpx:TrackPointExtension xmlns:gpxtpx="http://www.garmin.com/xmlschemas/TrackPointExtension/v1">
            <gpxtpx:hr>120</gpxtpx:hr>
          </gpxtpx:TrackPointExtension>
        </extensions>
      </trkpt>
      <trkpt lat="42.45529" lon="0.04098">
        <ele>818.7</ele>
        <time>2012-11-12T12:21:14.000Z</time>
        <extensions>
          <gpxtpx:TrackPointExtension xmlns:gpxtpx="http://www.garmin.com/xmlschemas/TrackPointExtension/v1">
            <gpxtpx:hr>117</gpxtpx:hr>
          </gpxtpx:TrackPointExtension>
        </extensions>
      </trkpt>
      <trkpt lat="42.45533" lon="0.04094">
        <ele>817.3</ele>
        <time>2012-11-12T12:21:17.000Z</time>
        <extensions>
          <gpxtpx:TrackPointExtension xmlns:gpxtpx="http://www.garmin.com/xmlschemas/TrackPointExtension/v1">
            <gpxtpx:hr>115</gpxtpx:hr>
          </gpxtpx:TrackPointExtension>
        </extensions>
      </trkpt>
      <trkpt lat="42.45534" lon="0.04094">
        <ele>817.3</ele>
        <time>2012-11-12T12:21:18.000Z</time>
        <extensions>
          <gpxtpx:TrackPointExtension xmlns:gpxtpx="http://www.garmin.com/xmlschemas/TrackPointExtension/v1">
            <gpxtpx:hr>113</gpxtpx:hr>
          </gpxtpx:TrackPointExtension>
        </extensions>
      </trkpt>
      <trkpt lat="42.45538" lon="0.04111">
        <ele>813.4</ele>
        <time>2012-11-12T12:21:23.000Z</time>
        <extensions>
          <gpxtpx:TrackPointExtension xmlns:gpxtpx="http://www.garmin.com/xmlschemas/TrackPointExtension/v1">
            <gpxtpx:hr>110</gpxtpx:hr>
          </gpxtpx:TrackPointExtension>
        </extensions>
      </trkpt>
      <trkpt lat="42.45537" lon="0.0413">
        <ele>810</ele>
        <time>2012-11-12T12:21:27.000Z</time>
        <extensions>
          <gpxtpx:TrackPointExtension xmlns:gpxtpx="http://www.garmin.com/xmlschemas/TrackPointExtension/v1">
            <gpxtpx:hr>110</gpxtpx:hr>
          </gpxtpx:TrackPointExtension>
        </extensions>
      </trkpt>
      <trkpt lat="42.45545" lon="0.04129">
        <ele>808.1</ele>
        <time>2012-11-12T12:21:32.000Z</time>
        <extensions>
          <gpxtpx:TrackPointExtension xmlns:gpxtpx="http://www.garmin.com/xmlschemas/TrackPointExtension/v1">
            <gpxtpx:hr>110</gpxtpx:hr>
          </gpxtpx:TrackPointExtension>
        </extensions>
      </trkpt>
      <trkpt lat="42.45548" lon="0.0414">
        <ele>805.7</ele>
        <time>2012-11-12T12:21:35.000Z</time>
        <extensions>
          <gpxtpx:TrackPointExtension xmlns:gpxtpx="http://www.garmin.com/xmlschemas/TrackPointExtension/v1">
            <gpxtpx:hr>109</gpxtpx:hr>
          </gpxtpx:TrackPointExtension>
        </extensions>
      </trkpt>
      <trkpt lat="42.45548" lon="0.04149">
        <ele>802.8</ele>
        <time>2012-11-12T12:21:38.000Z</time>
        <extensions>
          <gpxtpx:TrackPointExtension xmlns:gpxtpx="http://www.garmin.com/xmlschemas/TrackPointExtension/v1">
            <gpxtpx:hr>109</gpxtpx:hr>
          </gpxtpx:TrackPointExtension>
        </extensions>
      </trkpt>
      <trkpt lat="42.45553" lon="0.04153">
        <ele>800.9</ele>
        <time>2012-11-12T12:21:42.000Z</time>
        <extensions>
          <gpxtpx:TrackPointExtension xmlns:gpxtpx="http://www.garmin.com/xmlschemas/TrackPointExtension/v1">
            <gpxtpx:hr>111</gpxtpx:hr>
          </gpxtpx:TrackPointExtension>
        </extensions>
      </trkpt>
      <trkpt lat="42.45554" lon="0.04157">
        <ele>800</ele>
        <time>2012-11-12T12:21:45.000Z</time>
        <extensions>
          <gpxtpx:TrackPointExtension xmlns:gpxtpx="http://www.garmin.com/xmlschemas/TrackPointExtension/v1">
            <gpxtpx:hr>115</gpxtpx:hr>
          </gpxtpx:TrackPointExtension>
        </extensions>
      </trkpt>
      <trkpt lat="42.45557" lon="0.04157">
        <ele>799</ele>
        <time>2012-11-12T12:21:52.000Z</time>
        <extensions>
          <gpxtpx:TrackPointExtension xmlns:gpxtpx="http://www.garmin.com/xmlschemas/TrackPointExtension/v1">
            <gpxtpx:hr>116</gpxtpx:hr>
          </gpxtpx:TrackPointExtension>
        </extensions>
      </trkpt>
      <trkpt lat="42.45557" lon="0.04157">
        <ele>799</ele>
        <time>2012-11-12T12:21:53.000Z</time>
        <extensions>
          <gpxtpx:TrackPointExtension xmlns:gpxtpx="http://www.garmin.com/xmlschemas/TrackPointExtension/v1">
            <gpxtpx:hr>116</gpxtpx:hr>
          </gpxtpx:TrackPointExtension>
        </extensions>
      </trkpt>
      <trkpt lat="42.45559" lon="0.04167">
        <ele>796.6</ele>
        <time>2012-11-12T12:21:58.000Z</time>
        <extensions>
          <gpxtpx:TrackPointExtension xmlns:gpxtpx="http://www.garmin.com/xmlschemas/TrackPointExtension/v1">
            <gpxtpx:hr>116</gpxtpx:hr>
          </gpxtpx:TrackPointExtension>
        </extensions>
      </trkpt>
      <trkpt lat="42.45564" lon="0.04163">
        <ele>795.6</ele>
        <time>2012-11-12T12:22:02.000Z</time>
        <extensions>
          <gpxtpx:TrackPointExtension xmlns:gpxtpx="http://www.garmin.com/xmlschemas/TrackPointExtension/v1">
            <gpxtpx:hr>112</gpxtpx:hr>
          </gpxtpx:TrackPointExtension>
        </extensions>
      </trkpt>
      <trkpt lat="42.45565" lon="0.04163">
        <ele>795.2</ele>
        <time>2012-11-12T12:22:03.000Z</time>
        <extensions>
          <gpxtpx:TrackPointExtension xmlns:gpxtpx="http://www.garmin.com/xmlschemas/TrackPointExtension/v1">
            <gpxtpx:hr>109</gpxtpx:hr>
          </gpxtpx:TrackPointExtension>
        </extensions>
      </trkpt>
      <trkpt lat="42.45567" lon="0.04172">
        <ele>793.2</ele>
        <time>2012-11-12T12:22:08.000Z</time>
        <extensions>
          <gpxtpx:TrackPointExtension xmlns:gpxtpx="http://www.garmin.com/xmlschemas/TrackPointExtension/v1">
            <gpxtpx:hr>112</gpxtpx:hr>
          </gpxtpx:TrackPointExtension>
        </extensions>
      </trkpt>
      <trkpt lat="42.4557" lon="0.04169">
        <ele>792.3</ele>
        <time>2012-11-12T12:22:10.000Z</time>
        <extensions>
          <gpxtpx:TrackPointExtension xmlns:gpxtpx="http://www.garmin.com/xmlschemas/TrackPointExtension/v1">
            <gpxtpx:hr>112</gpxtpx:hr>
          </gpxtpx:TrackPointExtension>
        </extensions>
      </trkpt>
      <trkpt lat="42.45576" lon="0.04158">
        <ele>788.9</ele>
        <time>2012-11-12T12:22:13.000Z</time>
        <extensions>
          <gpxtpx:TrackPointExtension xmlns:gpxtpx="http://www.garmin.com/xmlschemas/TrackPointExtension/v1">
            <gpxtpx:hr>117</gpxtpx:hr>
          </gpxtpx:TrackPointExtension>
        </extensions>
      </trkpt>
      <trkpt lat="42.45581" lon="0.04159">
        <ele>784.6</ele>
        <time>2012-11-12T12:22:18.000Z</time>
        <extensions>
          <gpxtpx:TrackPointExtension xmlns:gpxtpx="http://www.garmin.com/xmlschemas/TrackPointExtension/v1">
            <gpxtpx:hr>121</gpxtpx:hr>
          </gpxtpx:TrackPointExtension>
        </extensions>
      </trkpt>
      <trkpt lat="42.45582" lon="0.04172">
        <ele>781.7</ele>
        <time>2012-11-12T12:22:22.000Z</time>
        <extensions>
          <gpxtpx:TrackPointExtension xmlns:gpxtpx="http://www.garmin.com/xmlschemas/TrackPointExtension/v1">
            <gpxtpx:hr>122</gpxtpx:hr>
          </gpxtpx:TrackPointExtension>
        </extensions>
      </trkpt>
      <trkpt lat="42.45582" lon="0.04172">
        <ele>780.2</ele>
        <time>2012-11-12T12:22:28.000Z</time>
        <extensions>
          <gpxtpx:TrackPointExtension xmlns:gpxtpx="http://www.garmin.com/xmlschemas/TrackPointExtension/v1">
            <gpxtpx:hr>121</gpxtpx:hr>
          </gpxtpx:TrackPointExtension>
        </extensions>
      </trkpt>
      <trkpt lat="42.45584" lon="0.04175">
        <ele>780.2</ele>
        <time>2012-11-12T12:22:49.000Z</time>
        <extensions>
          <gpxtpx:TrackPointExtension xmlns:gpxtpx="http://www.garmin.com/xmlschemas/TrackPointExtension/v1">
            <gpxtpx:hr>105</gpxtpx:hr>
          </gpxtpx:TrackPointExtension>
        </extensions>
      </trkpt>
      <trkpt lat="42.45584" lon="0.04178">
        <ele>780.2</ele>
        <time>2012-11-12T12:23:15.000Z</time>
        <extensions>
          <gpxtpx:TrackPointExtension xmlns:gpxtpx="http://www.garmin.com/xmlschemas/TrackPointExtension/v1">
            <gpxtpx:hr>95</gpxtpx:hr>
          </gpxtpx:TrackPointExtension>
        </extensions>
      </trkpt>
      <trkpt lat="42.45586" lon="0.04179">
        <ele>780.7</ele>
        <time>2012-11-12T12:23:25.000Z</time>
        <extensions>
          <gpxtpx:TrackPointExtension xmlns:gpxtpx="http://www.garmin.com/xmlschemas/TrackPointExtension/v1">
            <gpxtpx:hr>89</gpxtpx:hr>
          </gpxtpx:TrackPointExtension>
        </extensions>
      </trkpt>
      <trkpt lat="42.45587" lon="0.0418">
        <ele>779.3</ele>
        <time>2012-11-12T12:23:34.000Z</time>
        <extensions>
          <gpxtpx:TrackPointExtension xmlns:gpxtpx="http://www.garmin.com/xmlschemas/TrackPointExtension/v1">
            <gpxtpx:hr>89</gpxtpx:hr>
          </gpxtpx:TrackPointExtension>
        </extensions>
      </trkpt>
      <trkpt lat="42.45589" lon="0.04179">
        <ele>778.3</ele>
        <time>2012-11-12T12:23:38.000Z</time>
        <extensions>
          <gpxtpx:TrackPointExtension xmlns:gpxtpx="http://www.garmin.com/xmlschemas/TrackPointExtension/v1">
            <gpxtpx:hr>89</gpxtpx:hr>
          </gpxtpx:TrackPointExtension>
        </extensions>
      </trkpt>
      <trkpt lat="42.45591" lon="0.04184">
        <ele>776.9</ele>
        <time>2012-11-12T12:23:41.000Z</time>
        <extensions>
          <gpxtpx:TrackPointExtension xmlns:gpxtpx="http://www.garmin.com/xmlschemas/TrackPointExtension/v1">
            <gpxtpx:hr>85</gpxtpx:hr>
          </gpxtpx:TrackPointExtension>
        </extensions>
      </trkpt>
      <trkpt lat="42.45593" lon="0.04192">
        <ele>774.5</ele>
        <time>2012-11-12T12:23:45.000Z</time>
        <extensions>
          <gpxtpx:TrackPointExtension xmlns:gpxtpx="http://www.garmin.com/xmlschemas/TrackPointExtension/v1">
            <gpxtpx:hr>87</gpxtpx:hr>
          </gpxtpx:TrackPointExtension>
        </extensions>
      </trkpt>
      <trkpt lat="42.45598" lon="0.04193">
        <ele>772.6</ele>
        <time>2012-11-12T12:23:49.000Z</time>
        <extensions>
          <gpxtpx:TrackPointExtension xmlns:gpxtpx="http://www.garmin.com/xmlschemas/TrackPointExtension/v1">
            <gpxtpx:hr>91</gpxtpx:hr>
          </gpxtpx:TrackPointExtension>
        </extensions>
      </trkpt>
      <trkpt lat="42.45597" lon="0.04202">
        <ele>770.6</ele>
        <time>2012-11-12T12:23:52.000Z</time>
        <extensions>
          <gpxtpx:TrackPointExtension xmlns:gpxtpx="http://www.garmin.com/xmlschemas/TrackPointExtension/v1">
            <gpxtpx:hr>96</gpxtpx:hr>
          </gpxtpx:TrackPointExtension>
        </extensions>
      </trkpt>
      <trkpt lat="42.45606" lon="0.04205">
        <ele>768.2</ele>
        <time>2012-11-12T12:23:57.000Z</time>
        <extensions>
          <gpxtpx:TrackPointExtension xmlns:gpxtpx="http://www.garmin.com/xmlschemas/TrackPointExtension/v1">
            <gpxtpx:hr>104</gpxtpx:hr>
          </gpxtpx:TrackPointExtension>
        </extensions>
      </trkpt>
      <trkpt lat="42.45607" lon="0.04212">
        <ele>766.8</ele>
        <time>2012-11-12T12:24:00.000Z</time>
        <extensions>
          <gpxtpx:TrackPointExtension xmlns:gpxtpx="http://www.garmin.com/xmlschemas/TrackPointExtension/v1">
            <gpxtpx:hr>101</gpxtpx:hr>
          </gpxtpx:TrackPointExtension>
        </extensions>
      </trkpt>
      <trkpt lat="42.45613" lon="0.04209">
        <ele>764.9</ele>
        <time>2012-11-12T12:24:03.000Z</time>
        <extensions>
          <gpxtpx:TrackPointExtension xmlns:gpxtpx="http://www.garmin.com/xmlschemas/TrackPointExtension/v1">
            <gpxtpx:hr>100</gpxtpx:hr>
          </gpxtpx:TrackPointExtension>
        </extensions>
      </trkpt>
      <trkpt lat="42.45615" lon="0.04218">
        <ele>763.4</ele>
        <time>2012-11-12T12:24:06.000Z</time>
        <extensions>
          <gpxtpx:TrackPointExtension xmlns:gpxtpx="http://www.garmin.com/xmlschemas/TrackPointExtension/v1">
            <gpxtpx:hr>100</gpxtpx:hr>
          </gpxtpx:TrackPointExtension>
        </extensions>
      </trkpt>
      <trkpt lat="42.45622" lon="0.04235">
        <ele>758.6</ele>
        <time>2012-11-12T12:24:11.000Z</time>
        <extensions>
          <gpxtpx:TrackPointExtension xmlns:gpxtpx="http://www.garmin.com/xmlschemas/TrackPointExtension/v1">
            <gpxtpx:hr>103</gpxtpx:hr>
          </gpxtpx:TrackPointExtension>
        </extensions>
      </trkpt>
      <trkpt lat="42.45634" lon="0.04247">
        <ele>754.8</ele>
        <time>2012-11-12T12:24:15.000Z</time>
        <extensions>
          <gpxtpx:TrackPointExtension xmlns:gpxtpx="http://www.garmin.com/xmlschemas/TrackPointExtension/v1">
            <gpxtpx:hr>109</gpxtpx:hr>
          </gpxtpx:TrackPointExtension>
        </extensions>
      </trkpt>
      <trkpt lat="42.45637" lon="0.04247">
        <ele>754.3</ele>
        <time>2012-11-12T12:24:16.000Z</time>
        <extensions>
          <gpxtpx:TrackPointExtension xmlns:gpxtpx="http://www.garmin.com/xmlschemas/TrackPointExtension/v1">
            <gpxtpx:hr>110</gpxtpx:hr>
          </gpxtpx:TrackPointExtension>
        </extensions>
      </trkpt>
      <trkpt lat="42.45641" lon="0.04255">
        <ele>751.9</ele>
        <time>2012-11-12T12:24:19.000Z</time>
        <extensions>
          <gpxtpx:TrackPointExtension xmlns:gpxtpx="http://www.garmin.com/xmlschemas/TrackPointExtension/v1">
            <gpxtpx:hr>109</gpxtpx:hr>
          </gpxtpx:TrackPointExtension>
        </extensions>
      </trkpt>
      <trkpt lat="42.45648" lon="0.04263">
        <ele>749.5</ele>
        <time>2012-11-12T12:24:23.000Z</time>
        <extensions>
          <gpxtpx:TrackPointExtension xmlns:gpxtpx="http://www.garmin.com/xmlschemas/TrackPointExtension/v1">
            <gpxtpx:hr>109</gpxtpx:hr>
          </gpxtpx:TrackPointExtension>
        </extensions>
      </trkpt>
      <trkpt lat="42.45651" lon="0.0427">
        <ele>748</ele>
        <time>2012-11-12T12:24:26.000Z</time>
        <extensions>
          <gpxtpx:TrackPointExtension xmlns:gpxtpx="http://www.garmin.com/xmlschemas/TrackPointExtension/v1">
            <gpxtpx:hr>110</gpxtpx:hr>
          </gpxtpx:TrackPointExtension>
        </extensions>
      </trkpt>
      <trkpt lat="42.45649" lon="0.04272">
        <ele>747.6</ele>
        <time>2012-11-12T12:24:41.000Z</time>
        <extensions>
          <gpxtpx:TrackPointExtension xmlns:gpxtpx="http://www.garmin.com/xmlschemas/TrackPointExtension/v1">
            <gpxtpx:hr>102</gpxtpx:hr>
          </gpxtpx:TrackPointExtension>
        </extensions>
      </trkpt>
      <trkpt lat="42.45655" lon="0.04281">
        <ele>746.1</ele>
        <time>2012-11-12T12:24:49.000Z</time>
        <extensions>
          <gpxtpx:TrackPointExtension xmlns:gpxtpx="http://www.garmin.com/xmlschemas/TrackPointExtension/v1">
            <gpxtpx:hr>99</gpxtpx:hr>
          </gpxtpx:TrackPointExtension>
        </extensions>
      </trkpt>
      <trkpt lat="42.45658" lon="0.04283">
        <ele>745.6</ele>
        <time>2012-11-12T12:24:50.000Z</time>
        <extensions>
          <gpxtpx:TrackPointExtension xmlns:gpxtpx="http://www.garmin.com/xmlschemas/TrackPointExtension/v1">
            <gpxtpx:hr>99</gpxtpx:hr>
          </gpxtpx:TrackPointExtension>
        </extensions>
      </trkpt>
      <trkpt lat="42.45671" lon="0.04305">
        <ele>740.8</ele>
        <time>2012-11-12T12:24:55.000Z</time>
        <extensions>
          <gpxtpx:TrackPointExtension xmlns:gpxtpx="http://www.garmin.com/xmlschemas/TrackPointExtension/v1">
            <gpxtpx:hr>94</gpxtpx:hr>
          </gpxtpx:TrackPointExtension>
        </extensions>
      </trkpt>
      <trkpt lat="42.45677" lon="0.0432">
        <ele>737</ele>
        <time>2012-11-12T12:24:58.000Z</time>
        <extensions>
          <gpxtpx:TrackPointExtension xmlns:gpxtpx="http://www.garmin.com/xmlschemas/TrackPointExtension/v1">
            <gpxtpx:hr>90</gpxtpx:hr>
          </gpxtpx:TrackPointExtension>
        </extensions>
      </trkpt>
      <trkpt lat="42.45688" lon="0.04327">
        <ele>734.1</ele>
        <time>2012-11-12T12:25:01.000Z</time>
        <extensions>
          <gpxtpx:TrackPointExtension xmlns:gpxtpx="http://www.garmin.com/xmlschemas/TrackPointExtension/v1">
            <gpxtpx:hr>90</gpxtpx:hr>
          </gpxtpx:TrackPointExtension>
        </extensions>
      </trkpt>
      <trkpt lat="42.45693" lon="0.04337">
        <ele>732.2</ele>
        <time>2012-11-12T12:25:03.000Z</time>
        <extensions>
          <gpxtpx:TrackPointExtension xmlns:gpxtpx="http://www.garmin.com/xmlschemas/TrackPointExtension/v1">
            <gpxtpx:hr>93</gpxtpx:hr>
          </gpxtpx:TrackPointExtension>
        </extensions>
      </trkpt>
      <trkpt lat="42.45698" lon="0.04343">
        <ele>729.8</ele>
        <time>2012-11-12T12:25:07.000Z</time>
        <extensions>
          <gpxtpx:TrackPointExtension xmlns:gpxtpx="http://www.garmin.com/xmlschemas/TrackPointExtension/v1">
            <gpxtpx:hr>95</gpxtpx:hr>
          </gpxtpx:TrackPointExtension>
        </extensions>
      </trkpt>
      <trkpt lat="42.45701" lon="0.04341">
        <ele>728.8</ele>
        <time>2012-11-12T12:25:08.000Z</time>
        <extensions>
          <gpxtpx:TrackPointExtension xmlns:gpxtpx="http://www.garmin.com/xmlschemas/TrackPointExtension/v1">
            <gpxtpx:hr>96</gpxtpx:hr>
          </gpxtpx:TrackPointExtension>
        </extensions>
      </trkpt>
      <trkpt lat="42.45705" lon="0.0435">
        <ele>725</ele>
        <time>2012-11-12T12:25:12.000Z</time>
        <extensions>
          <gpxtpx:TrackPointExtension xmlns:gpxtpx="http://www.garmin.com/xmlschemas/TrackPointExtension/v1">
            <gpxtpx:hr>97</gpxtpx:hr>
          </gpxtpx:TrackPointExtension>
        </extensions>
      </trkpt>
      <trkpt lat="42.45704" lon="0.04359">
        <ele>722.1</ele>
        <time>2012-11-12T12:25:19.000Z</time>
        <extensions>
          <gpxtpx:TrackPointExtension xmlns:gpxtpx="http://www.garmin.com/xmlschemas/TrackPointExtension/v1">
            <gpxtpx:hr>97</gpxtpx:hr>
          </gpxtpx:TrackPointExtension>
        </extensions>
      </trkpt>
      <trkpt lat="42.45705" lon="0.0436">
        <ele>722.1</ele>
        <time>2012-11-12T12:25:23.000Z</time>
        <extensions>
          <gpxtpx:TrackPointExtension xmlns:gpxtpx="http://www.garmin.com/xmlschemas/TrackPointExtension/v1">
            <gpxtpx:hr>102</gpxtpx:hr>
          </gpxtpx:TrackPointExtension>
        </extensions>
      </trkpt>
      <trkpt lat="42.45712" lon="0.04368">
        <ele>718.2</ele>
        <time>2012-11-12T12:25:28.000Z</time>
        <extensions>
          <gpxtpx:TrackPointExtension xmlns:gpxtpx="http://www.garmin.com/xmlschemas/TrackPointExtension/v1">
            <gpxtpx:hr>106</gpxtpx:hr>
          </gpxtpx:TrackPointExtension>
        </extensions>
      </trkpt>
      <trkpt lat="42.45721" lon="0.04379">
        <ele>714.9</ele>
        <time>2012-11-12T12:25:31.000Z</time>
        <extensions>
          <gpxtpx:TrackPointExtension xmlns:gpxtpx="http://www.garmin.com/xmlschemas/TrackPointExtension/v1">
            <gpxtpx:hr>105</gpxtpx:hr>
          </gpxtpx:TrackPointExtension>
        </extensions>
      </trkpt>
      <trkpt lat="42.45724" lon="0.04382">
        <ele>714.4</ele>
        <time>2012-11-12T12:25:32.000Z</time>
        <extensions>
          <gpxtpx:TrackPointExtension xmlns:gpxtpx="http://www.garmin.com/xmlschemas/TrackPointExtension/v1">
            <gpxtpx:hr>105</gpxtpx:hr>
          </gpxtpx:TrackPointExtension>
        </extensions>
      </trkpt>
      <trkpt lat="42.45733" lon="0.04397">
        <ele>713.9</ele>
        <time>2012-11-12T12:25:36.000Z</time>
        <extensions>
          <gpxtpx:TrackPointExtension xmlns:gpxtpx="http://www.garmin.com/xmlschemas/TrackPointExtension/v1">
            <gpxtpx:hr>105</gpxtpx:hr>
          </gpxtpx:TrackPointExtension>
        </extensions>
      </trkpt>
      <trkpt lat="42.45741" lon="0.04408">
        <ele>713.9</ele>
        <time>2012-11-12T12:25:40.000Z</time>
        <extensions>
          <gpxtpx:TrackPointExtension xmlns:gpxtpx="http://www.garmin.com/xmlschemas/TrackPointExtension/v1">
            <gpxtpx:hr>106</gpxtpx:hr>
          </gpxtpx:TrackPointExtension>
        </extensions>
      </trkpt>
      <trkpt lat="42.45742" lon="0.04416">
        <ele>713.9</ele>
        <time>2012-11-12T12:25:42.000Z</time>
        <extensions>
          <gpxtpx:TrackPointExtension xmlns:gpxtpx="http://www.garmin.com/xmlschemas/TrackPointExtension/v1">
            <gpxtpx:hr>107</gpxtpx:hr>
          </gpxtpx:TrackPointExtension>
        </extensions>
      </trkpt>
      <trkpt lat="42.45759" lon="0.04437">
        <ele>711</ele>
        <time>2012-11-12T12:25:48.000Z</time>
        <extensions>
          <gpxtpx:TrackPointExtension xmlns:gpxtpx="http://www.garmin.com/xmlschemas/TrackPointExtension/v1">
            <gpxtpx:hr>114</gpxtpx:hr>
          </gpxtpx:TrackPointExtension>
        </extensions>
      </trkpt>
      <trkpt lat="42.45766" lon="0.04446">
        <ele>710.1</ele>
        <time>2012-11-12T12:25:51.000Z</time>
        <extensions>
          <gpxtpx:TrackPointExtension xmlns:gpxtpx="http://www.garmin.com/xmlschemas/TrackPointExtension/v1">
            <gpxtpx:hr>118</gpxtpx:hr>
          </gpxtpx:TrackPointExtension>
        </extensions>
      </trkpt>
      <trkpt lat="42.45776" lon="0.04458">
        <ele>706.2</ele>
        <time>2012-11-12T12:25:54.000Z</time>
        <extensions>
          <gpxtpx:TrackPointExtension xmlns:gpxtpx="http://www.garmin.com/xmlschemas/TrackPointExtension/v1">
            <gpxtpx:hr>118</gpxtpx:hr>
          </gpxtpx:TrackPointExtension>
        </extensions>
      </trkpt>
      <trkpt lat="42.45781" lon="0.04461">
        <ele>704.3</ele>
        <time>2012-11-12T12:25:57.000Z</time>
        <extensions>
          <gpxtpx:TrackPointExtension xmlns:gpxtpx="http://www.garmin.com/xmlschemas/TrackPointExtension/v1">
            <gpxtpx:hr>118</gpxtpx:hr>
          </gpxtpx:TrackPointExtension>
        </extensions>
      </trkpt>
      <trkpt lat="42.45789" lon="0.04456">
        <ele>702.4</ele>
        <time>2012-11-12T12:26:00.000Z</time>
        <extensions>
          <gpxtpx:TrackPointExtension xmlns:gpxtpx="http://www.garmin.com/xmlschemas/TrackPointExtension/v1">
            <gpxtpx:hr>118</gpxtpx:hr>
          </gpxtpx:TrackPointExtension>
        </extensions>
      </trkpt>
      <trkpt lat="42.45792" lon="0.04459">
        <ele>700.9</ele>
        <time>2012-11-12T12:26:01.000Z</time>
        <extensions>
          <gpxtpx:TrackPointExtension xmlns:gpxtpx="http://www.garmin.com/xmlschemas/TrackPointExtension/v1">
            <gpxtpx:hr>118</gpxtpx:hr>
          </gpxtpx:TrackPointExtension>
        </extensions>
      </trkpt>
      <trkpt lat="42.45794" lon="0.04462">
        <ele>700.5</ele>
        <time>2012-11-12T12:26:02.000Z</time>
        <extensions>
          <gpxtpx:TrackPointExtension xmlns:gpxtpx="http://www.garmin.com/xmlschemas/TrackPointExtension/v1">
            <gpxtpx:hr>119</gpxtpx:hr>
          </gpxtpx:TrackPointExtension>
        </extensions>
      </trkpt>
      <trkpt lat="42.45795" lon="0.04467">
        <ele>699.5</ele>
        <time>2012-11-12T12:26:03.000Z</time>
        <extensions>
          <gpxtpx:TrackPointExtension xmlns:gpxtpx="http://www.garmin.com/xmlschemas/TrackPointExtension/v1">
            <gpxtpx:hr>120</gpxtpx:hr>
          </gpxtpx:TrackPointExtension>
        </extensions>
      </trkpt>
      <trkpt lat="42.45797" lon="0.0447">
        <ele>698.5</ele>
        <time>2012-11-12T12:26:04.000Z</time>
        <extensions>
          <gpxtpx:TrackPointExtension xmlns:gpxtpx="http://www.garmin.com/xmlschemas/TrackPointExtension/v1">
            <gpxtpx:hr>120</gpxtpx:hr>
          </gpxtpx:TrackPointExtension>
        </extensions>
      </trkpt>
      <trkpt lat="42.45801" lon="0.04472">
        <ele>697.6</ele>
        <time>2012-11-12T12:26:05.000Z</time>
        <extensions>
          <gpxtpx:TrackPointExtension xmlns:gpxtpx="http://www.garmin.com/xmlschemas/TrackPointExtension/v1">
            <gpxtpx:hr>121</gpxtpx:hr>
          </gpxtpx:TrackPointExtension>
        </extensions>
      </trkpt>
      <trkpt lat="42.45804" lon="0.04475">
        <ele>696.6</ele>
        <time>2012-11-12T12:26:06.000Z</time>
        <extensions>
          <gpxtpx:TrackPointExtension xmlns:gpxtpx="http://www.garmin.com/xmlschemas/TrackPointExtension/v1">
            <gpxtpx:hr>121</gpxtpx:hr>
          </gpxtpx:TrackPointExtension>
        </extensions>
      </trkpt>
      <trkpt lat="42.45806" lon="0.0448">
        <ele>696.1</ele>
        <time>2012-11-12T12:26:07.000Z</time>
        <extensions>
          <gpxtpx:TrackPointExtension xmlns:gpxtpx="http://www.garmin.com/xmlschemas/TrackPointExtension/v1">
            <gpxtpx:hr>122</gpxtpx:hr>
          </gpxtpx:TrackPointExtension>
        </extensions>
      </trkpt>
      <trkpt lat="42.45806" lon="0.04487">
        <ele>695.7</ele>
        <time>2012-11-12T12:26:11.000Z</time>
        <extensions>
          <gpxtpx:TrackPointExtension xmlns:gpxtpx="http://www.garmin.com/xmlschemas/TrackPointExtension/v1">
            <gpxtpx:hr>124</gpxtpx:hr>
          </gpxtpx:TrackPointExtension>
        </extensions>
      </trkpt>
      <trkpt lat="42.45807" lon="0.04487">
        <ele>696.1</ele>
        <time>2012-11-12T12:26:24.000Z</time>
        <extensions>
          <gpxtpx:TrackPointExtension xmlns:gpxtpx="http://www.garmin.com/xmlschemas/TrackPointExtension/v1">
            <gpxtpx:hr>119</gpxtpx:hr>
          </gpxtpx:TrackPointExtension>
        </extensions>
      </trkpt>
      <trkpt lat="42.45807" lon="0.04486">
        <ele>696.1</ele>
        <time>2012-11-12T12:26:40.000Z</time>
        <extensions>
          <gpxtpx:TrackPointExtension xmlns:gpxtpx="http://www.garmin.com/xmlschemas/TrackPointExtension/v1">
            <gpxtpx:hr>98</gpxtpx:hr>
          </gpxtpx:TrackPointExtension>
        </extensions>
      </trkpt>
      <trkpt lat="42.45806" lon="0.04487">
        <ele>695.7</ele>
        <time>2012-11-12T12:26:53.000Z</time>
        <extensions>
          <gpxtpx:TrackPointExtension xmlns:gpxtpx="http://www.garmin.com/xmlschemas/TrackPointExtension/v1">
            <gpxtpx:hr>90</gpxtpx:hr>
          </gpxtpx:TrackPointExtension>
        </extensions>
      </trkpt>
      <trkpt lat="42.45807" lon="0.04487">
        <ele>696.1</ele>
        <time>2012-11-12T12:27:09.000Z</time>
        <extensions>
          <gpxtpx:TrackPointExtension xmlns:gpxtpx="http://www.garmin.com/xmlschemas/TrackPointExtension/v1">
            <gpxtpx:hr>89</gpxtpx:hr>
          </gpxtpx:TrackPointExtension>
        </extensions>
      </trkpt>
      <trkpt lat="42.45807" lon="0.04493">
        <ele>695.2</ele>
        <time>2012-11-12T12:27:19.000Z</time>
        <extensions>
          <gpxtpx:TrackPointExtension xmlns:gpxtpx="http://www.garmin.com/xmlschemas/TrackPointExtension/v1">
            <gpxtpx:hr>88</gpxtpx:hr>
          </gpxtpx:TrackPointExtension>
        </extensions>
      </trkpt>
      <trkpt lat="42.45811" lon="0.04506">
        <ele>693.7</ele>
        <time>2012-11-12T12:27:23.000Z</time>
        <extensions>
          <gpxtpx:TrackPointExtension xmlns:gpxtpx="http://www.garmin.com/xmlschemas/TrackPointExtension/v1">
            <gpxtpx:hr>90</gpxtpx:hr>
          </gpxtpx:TrackPointExtension>
        </extensions>
      </trkpt>
      <trkpt lat="42.45817" lon="0.04523">
        <ele>690.8</ele>
        <time>2012-11-12T12:27:29.000Z</time>
        <extensions>
          <gpxtpx:TrackPointExtension xmlns:gpxtpx="http://www.garmin.com/xmlschemas/TrackPointExtension/v1">
            <gpxtpx:hr>86</gpxtpx:hr>
          </gpxtpx:TrackPointExtension>
        </extensions>
      </trkpt>
      <trkpt lat="42.45826" lon="0.0454">
        <ele>687</ele>
        <time>2012-11-12T12:27:32.000Z</time>
        <extensions>
          <gpxtpx:TrackPointExtension xmlns:gpxtpx="http://www.garmin.com/xmlschemas/TrackPointExtension/v1">
            <gpxtpx:hr>80</gpxtpx:hr>
          </gpxtpx:TrackPointExtension>
        </extensions>
      </trkpt>
      <trkpt lat="42.45826" lon="0.0454">
        <ele>687</ele>
        <time>2012-11-12T12:27:32.000Z</time>
        <extensions>
          <gpxtpx:TrackPointExtension xmlns:gpxtpx="http://www.garmin.com/xmlschemas/TrackPointExtension/v1">
            <gpxtpx:hr>80</gpxtpx:hr>
          </gpxtpx:TrackPointExtension>
        </extensions>
      </trkpt>
      <trkpt lat="42.45828" lon="0.04547">
        <ele>686</ele>
        <time>2012-11-12T12:27:33.000Z</time>
        <extensions>
          <gpxtpx:TrackPointExtension xmlns:gpxtpx="http://www.garmin.com/xmlschemas/TrackPointExtension/v1">
            <gpxtpx:hr>80</gpxtpx:hr>
          </gpxtpx:TrackPointExtension>
        </extensions>
      </trkpt>
      <trkpt lat="42.45828" lon="0.04552">
        <ele>685.6</ele>
        <time>2012-11-12T12:27:34.000Z</time>
        <extensions>
          <gpxtpx:TrackPointExtension xmlns:gpxtpx="http://www.garmin.com/xmlschemas/TrackPointExtension/v1">
            <gpxtpx:hr>82</gpxtpx:hr>
          </gpxtpx:TrackPointExtension>
        </extensions>
      </trkpt>
      <trkpt lat="42.45828" lon="0.04556">
        <ele>685.6</ele>
        <time>2012-11-12T12:27:35.000Z</time>
        <extensions>
          <gpxtpx:TrackPointExtension xmlns:gpxtpx="http://www.garmin.com/xmlschemas/TrackPointExtension/v1">
            <gpxtpx:hr>83</gpxtpx:hr>
          </gpxtpx:TrackPointExtension>
        </extensions>
      </trkpt>
      <trkpt lat="42.45828" lon="0.04566">
        <ele>685.1</ele>
        <time>2012-11-12T12:27:39.000Z</time>
        <extensions>
          <gpxtpx:TrackPointExtension xmlns:gpxtpx="http://www.garmin.com/xmlschemas/TrackPointExtension/v1">
            <gpxtpx:hr>86</gpxtpx:hr>
          </gpxtpx:TrackPointExtension>
        </extensions>
      </trkpt>
      <trkpt lat="42.45828" lon="0.04568">
        <ele>685.6</ele>
        <time>2012-11-12T12:27:44.000Z</time>
        <extensions>
          <gpxtpx:TrackPointExtension xmlns:gpxtpx="http://www.garmin.com/xmlschemas/TrackPointExtension/v1">
            <gpxtpx:hr>92</gpxtpx:hr>
          </gpxtpx:TrackPointExtension>
        </extensions>
      </trkpt>
      <trkpt lat="42.45828" lon="0.04583">
        <ele>684.1</ele>
        <time>2012-11-12T12:27:49.000Z</time>
        <extensions>
          <gpxtpx:TrackPointExtension xmlns:gpxtpx="http://www.garmin.com/xmlschemas/TrackPointExtension/v1">
            <gpxtpx:hr>97</gpxtpx:hr>
          </gpxtpx:TrackPointExtension>
        </extensions>
      </trkpt>
      <trkpt lat="42.45827" lon="0.04595">
        <ele>683.2</ele>
        <time>2012-11-12T12:27:51.000Z</time>
        <extensions>
          <gpxtpx:TrackPointExtension xmlns:gpxtpx="http://www.garmin.com/xmlschemas/TrackPointExtension/v1">
            <gpxtpx:hr>94</gpxtpx:hr>
          </gpxtpx:TrackPointExtension>
        </extensions>
      </trkpt>
      <trkpt lat="42.45824" lon="0.04601">
        <ele>682.7</ele>
        <time>2012-11-12T12:27:52.000Z</time>
        <extensions>
          <gpxtpx:TrackPointExtension xmlns:gpxtpx="http://www.garmin.com/xmlschemas/TrackPointExtension/v1">
            <gpxtpx:hr>94</gpxtpx:hr>
          </gpxtpx:TrackPointExtension>
        </extensions>
      </trkpt>
      <trkpt lat="42.45821" lon="0.04606">
        <ele>682.2</ele>
        <time>2012-11-12T12:27:53.000Z</time>
        <extensions>
          <gpxtpx:TrackPointExtension xmlns:gpxtpx="http://www.garmin.com/xmlschemas/TrackPointExtension/v1">
            <gpxtpx:hr>91</gpxtpx:hr>
          </gpxtpx:TrackPointExtension>
        </extensions>
      </trkpt>
      <trkpt lat="42.45816" lon="0.04608">
        <ele>681.2</ele>
        <time>2012-11-12T12:27:54.000Z</time>
        <extensions>
          <gpxtpx:TrackPointExtension xmlns:gpxtpx="http://www.garmin.com/xmlschemas/TrackPointExtension/v1">
            <gpxtpx:hr>91</gpxtpx:hr>
          </gpxtpx:TrackPointExtension>
        </extensions>
      </trkpt>
      <trkpt lat="42.4581" lon="0.04607">
        <ele>680.8</ele>
        <time>2012-11-12T12:27:55.000Z</time>
        <extensions>
          <gpxtpx:TrackPointExtension xmlns:gpxtpx="http://www.garmin.com/xmlschemas/TrackPointExtension/v1">
            <gpxtpx:hr>91</gpxtpx:hr>
          </gpxtpx:TrackPointExtension>
        </extensions>
      </trkpt>
      <trkpt lat="42.45804" lon="0.04605">
        <ele>679.8</ele>
        <time>2012-11-12T12:27:56.000Z</time>
        <extensions>
          <gpxtpx:TrackPointExtension xmlns:gpxtpx="http://www.garmin.com/xmlschemas/TrackPointExtension/v1">
            <gpxtpx:hr>92</gpxtpx:hr>
          </gpxtpx:TrackPointExtension>
        </extensions>
      </trkpt>
      <trkpt lat="42.45798" lon="0.04603">
        <ele>678.8</ele>
        <time>2012-11-12T12:27:57.000Z</time>
        <extensions>
          <gpxtpx:TrackPointExtension xmlns:gpxtpx="http://www.garmin.com/xmlschemas/TrackPointExtension/v1">
            <gpxtpx:hr>92</gpxtpx:hr>
          </gpxtpx:TrackPointExtension>
        </extensions>
      </trkpt>
      <trkpt lat="42.45792" lon="0.04603">
        <ele>677.9</ele>
        <time>2012-11-12T12:27:58.000Z</time>
        <extensions>
          <gpxtpx:TrackPointExtension xmlns:gpxtpx="http://www.garmin.com/xmlschemas/TrackPointExtension/v1">
            <gpxtpx:hr>93</gpxtpx:hr>
          </gpxtpx:TrackPointExtension>
        </extensions>
      </trkpt>
      <trkpt lat="42.45787" lon="0.04608">
        <ele>676.9</ele>
        <time>2012-11-12T12:27:59.000Z</time>
        <extensions>
          <gpxtpx:TrackPointExtension xmlns:gpxtpx="http://www.garmin.com/xmlschemas/TrackPointExtension/v1">
            <gpxtpx:hr>93</gpxtpx:hr>
          </gpxtpx:TrackPointExtension>
        </extensions>
      </trkpt>
      <trkpt lat="42.45785" lon="0.04614">
        <ele>676.4</ele>
        <time>2012-11-12T12:28:00.000Z</time>
        <extensions>
          <gpxtpx:TrackPointExtension xmlns:gpxtpx="http://www.garmin.com/xmlschemas/TrackPointExtension/v1">
            <gpxtpx:hr>93</gpxtpx:hr>
          </gpxtpx:TrackPointExtension>
        </extensions>
      </trkpt>
      <trkpt lat="42.45785" lon="0.0462">
        <ele>676.9</ele>
        <time>2012-11-12T12:28:01.000Z</time>
        <extensions>
          <gpxtpx:TrackPointExtension xmlns:gpxtpx="http://www.garmin.com/xmlschemas/TrackPointExtension/v1">
            <gpxtpx:hr>93</gpxtpx:hr>
          </gpxtpx:TrackPointExtension>
        </extensions>
      </trkpt>
      <trkpt lat="42.45787" lon="0.04625">
        <ele>677.4</ele>
        <time>2012-11-12T12:28:02.000Z</time>
        <extensions>
          <gpxtpx:TrackPointExtension xmlns:gpxtpx="http://www.garmin.com/xmlschemas/TrackPointExtension/v1">
            <gpxtpx:hr>93</gpxtpx:hr>
          </gpxtpx:TrackPointExtension>
        </extensions>
      </trkpt>
      <trkpt lat="42.45789" lon="0.0463">
        <ele>677.4</ele>
        <time>2012-11-12T12:28:03.000Z</time>
        <extensions>
          <gpxtpx:TrackPointExtension xmlns:gpxtpx="http://www.garmin.com/xmlschemas/TrackPointExtension/v1">
            <gpxtpx:hr>95</gpxtpx:hr>
          </gpxtpx:TrackPointExtension>
        </extensions>
      </trkpt>
      <trkpt lat="42.4579" lon="0.04635">
        <ele>678.3</ele>
        <time>2012-11-12T12:28:04.000Z</time>
        <extensions>
          <gpxtpx:TrackPointExtension xmlns:gpxtpx="http://www.garmin.com/xmlschemas/TrackPointExtension/v1">
            <gpxtpx:hr>96</gpxtpx:hr>
          </gpxtpx:TrackPointExtension>
        </extensions>
      </trkpt>
      <trkpt lat="42.45792" lon="0.04639">
        <ele>678.3</ele>
        <time>2012-11-12T12:28:05.000Z</time>
        <extensions>
          <gpxtpx:TrackPointExtension xmlns:gpxtpx="http://www.garmin.com/xmlschemas/TrackPointExtension/v1">
            <gpxtpx:hr>98</gpxtpx:hr>
          </gpxtpx:TrackPointExtension>
        </extensions>
      </trkpt>
      <trkpt lat="42.45792" lon="0.04642">
        <ele>678.3</ele>
        <time>2012-11-12T12:28:06.000Z</time>
        <extensions>
          <gpxtpx:TrackPointExtension xmlns:gpxtpx="http://www.garmin.com/xmlschemas/TrackPointExtension/v1">
            <gpxtpx:hr>99</gpxtpx:hr>
          </gpxtpx:TrackPointExtension>
        </extensions>
      </trkpt>
      <trkpt lat="42.45793" lon="0.04646">
        <ele>677.9</ele>
        <time>2012-11-12T12:28:07.000Z</time>
        <extensions>
          <gpxtpx:TrackPointExtension xmlns:gpxtpx="http://www.garmin.com/xmlschemas/TrackPointExtension/v1">
            <gpxtpx:hr>100</gpxtpx:hr>
          </gpxtpx:TrackPointExtension>
        </extensions>
      </trkpt>
      <trkpt lat="42.45793" lon="0.0465">
        <ele>677.4</ele>
        <time>2012-11-12T12:28:08.000Z</time>
        <extensions>
          <gpxtpx:TrackPointExtension xmlns:gpxtpx="http://www.garmin.com/xmlschemas/TrackPointExtension/v1">
            <gpxtpx:hr>101</gpxtpx:hr>
          </gpxtpx:TrackPointExtension>
        </extensions>
      </trkpt>
      <trkpt lat="42.45792" lon="0.04654">
        <ele>677.4</ele>
        <time>2012-11-12T12:28:09.000Z</time>
        <extensions>
          <gpxtpx:TrackPointExtension xmlns:gpxtpx="http://www.garmin.com/xmlschemas/TrackPointExtension/v1">
            <gpxtpx:hr>106</gpxtpx:hr>
          </gpxtpx:TrackPointExtension>
        </extensions>
      </trkpt>
      <trkpt lat="42.45791" lon="0.0466">
        <ele>676.9</ele>
        <time>2012-11-12T12:28:10.000Z</time>
        <extensions>
          <gpxtpx:TrackPointExtension xmlns:gpxtpx="http://www.garmin.com/xmlschemas/TrackPointExtension/v1">
            <gpxtpx:hr>106</gpxtpx:hr>
          </gpxtpx:TrackPointExtension>
        </extensions>
      </trkpt>
      <trkpt lat="42.45789" lon="0.04665">
        <ele>676.4</ele>
        <time>2012-11-12T12:28:11.000Z</time>
        <extensions>
          <gpxtpx:TrackPointExtension xmlns:gpxtpx="http://www.garmin.com/xmlschemas/TrackPointExtension/v1">
            <gpxtpx:hr>106</gpxtpx:hr>
          </gpxtpx:TrackPointExtension>
        </extensions>
      </trkpt>
      <trkpt lat="42.45787" lon="0.04671">
        <ele>675.9</ele>
        <time>2012-11-12T12:28:12.000Z</time>
        <extensions>
          <gpxtpx:TrackPointExtension xmlns:gpxtpx="http://www.garmin.com/xmlschemas/TrackPointExtension/v1">
            <gpxtpx:hr>106</gpxtpx:hr>
          </gpxtpx:TrackPointExtension>
        </extensions>
      </trkpt>
      <trkpt lat="42.45786" lon="0.04678">
        <ele>675</ele>
        <time>2012-11-12T12:28:13.000Z</time>
        <extensions>
          <gpxtpx:TrackPointExtension xmlns:gpxtpx="http://www.garmin.com/xmlschemas/TrackPointExtension/v1">
            <gpxtpx:hr>104</gpxtpx:hr>
          </gpxtpx:TrackPointExtension>
        </extensions>
      </trkpt>
      <trkpt lat="42.4578" lon="0.04692">
        <ele>674</ele>
        <time>2012-11-12T12:28:15.000Z</time>
        <extensions>
          <gpxtpx:TrackPointExtension xmlns:gpxtpx="http://www.garmin.com/xmlschemas/TrackPointExtension/v1">
            <gpxtpx:hr>102</gpxtpx:hr>
          </gpxtpx:TrackPointExtension>
        </extensions>
      </trkpt>
      <trkpt lat="42.45777" lon="0.04698">
        <ele>673.5</ele>
        <time>2012-11-12T12:28:16.000Z</time>
        <extensions>
          <gpxtpx:TrackPointExtension xmlns:gpxtpx="http://www.garmin.com/xmlschemas/TrackPointExtension/v1">
            <gpxtpx:hr>101</gpxtpx:hr>
          </gpxtpx:TrackPointExtension>
        </extensions>
      </trkpt>
      <trkpt lat="42.45772" lon="0.04705">
        <ele>672.6</ele>
        <time>2012-11-12T12:28:17.000Z</time>
        <extensions>
          <gpxtpx:TrackPointExtension xmlns:gpxtpx="http://www.garmin.com/xmlschemas/TrackPointExtension/v1">
            <gpxtpx:hr>100</gpxtpx:hr>
          </gpxtpx:TrackPointExtension>
        </extensions>
      </trkpt>
      <trkpt lat="42.45766" lon="0.0471">
        <ele>672.1</ele>
        <time>2012-11-12T12:28:18.000Z</time>
        <extensions>
          <gpxtpx:TrackPointExtension xmlns:gpxtpx="http://www.garmin.com/xmlschemas/TrackPointExtension/v1">
            <gpxtpx:hr>99</gpxtpx:hr>
          </gpxtpx:TrackPointExtension>
        </extensions>
      </trkpt>
      <trkpt lat="42.4576" lon="0.04712">
        <ele>670.7</ele>
        <time>2012-11-12T12:28:19.000Z</time>
        <extensions>
          <gpxtpx:TrackPointExtension xmlns:gpxtpx="http://www.garmin.com/xmlschemas/TrackPointExtension/v1">
            <gpxtpx:hr>97</gpxtpx:hr>
          </gpxtpx:TrackPointExtension>
        </extensions>
      </trkpt>
      <trkpt lat="42.45753" lon="0.04712">
        <ele>670.2</ele>
        <time>2012-11-12T12:28:20.000Z</time>
        <extensions>
          <gpxtpx:TrackPointExtension xmlns:gpxtpx="http://www.garmin.com/xmlschemas/TrackPointExtension/v1">
            <gpxtpx:hr>93</gpxtpx:hr>
          </gpxtpx:TrackPointExtension>
        </extensions>
      </trkpt>
      <trkpt lat="42.45747" lon="0.04708">
        <ele>669.7</ele>
        <time>2012-11-12T12:28:21.000Z</time>
        <extensions>
          <gpxtpx:TrackPointExtension xmlns:gpxtpx="http://www.garmin.com/xmlschemas/TrackPointExtension/v1">
            <gpxtpx:hr>92</gpxtpx:hr>
          </gpxtpx:TrackPointExtension>
        </extensions>
      </trkpt>
      <trkpt lat="42.4574" lon="0.04704">
        <ele>669.2</ele>
        <time>2012-11-12T12:28:22.000Z</time>
        <extensions>
          <gpxtpx:TrackPointExtension xmlns:gpxtpx="http://www.garmin.com/xmlschemas/TrackPointExtension/v1">
            <gpxtpx:hr>92</gpxtpx:hr>
          </gpxtpx:TrackPointExtension>
        </extensions>
      </trkpt>
      <trkpt lat="42.45717" lon="0.04689">
        <ele>669.2</ele>
        <time>2012-11-12T12:28:26.000Z</time>
        <extensions>
          <gpxtpx:TrackPointExtension xmlns:gpxtpx="http://www.garmin.com/xmlschemas/TrackPointExtension/v1">
            <gpxtpx:hr>93</gpxtpx:hr>
          </gpxtpx:TrackPointExtension>
        </extensions>
      </trkpt>
      <trkpt lat="42.45711" lon="0.04687">
        <ele>669.2</ele>
        <time>2012-11-12T12:28:27.000Z</time>
        <extensions>
          <gpxtpx:TrackPointExtension xmlns:gpxtpx="http://www.garmin.com/xmlschemas/TrackPointExtension/v1">
            <gpxtpx:hr>94</gpxtpx:hr>
          </gpxtpx:TrackPointExtension>
        </extensions>
      </trkpt>
      <trkpt lat="42.45704" lon="0.04687">
        <ele>667.8</ele>
        <time>2012-11-12T12:28:28.000Z</time>
        <extensions>
          <gpxtpx:TrackPointExtension xmlns:gpxtpx="http://www.garmin.com/xmlschemas/TrackPointExtension/v1">
            <gpxtpx:hr>94</gpxtpx:hr>
          </gpxtpx:TrackPointExtension>
        </extensions>
      </trkpt>
      <trkpt lat="42.45699" lon="0.04691">
        <ele>666.8</ele>
        <time>2012-11-12T12:28:29.000Z</time>
        <extensions>
          <gpxtpx:TrackPointExtension xmlns:gpxtpx="http://www.garmin.com/xmlschemas/TrackPointExtension/v1">
            <gpxtpx:hr>95</gpxtpx:hr>
          </gpxtpx:TrackPointExtension>
        </extensions>
      </trkpt>
      <trkpt lat="42.45696" lon="0.04698">
        <ele>666.8</ele>
        <time>2012-11-12T12:28:30.000Z</time>
        <extensions>
          <gpxtpx:TrackPointExtension xmlns:gpxtpx="http://www.garmin.com/xmlschemas/TrackPointExtension/v1">
            <gpxtpx:hr>96</gpxtpx:hr>
          </gpxtpx:TrackPointExtension>
        </extensions>
      </trkpt>
      <trkpt lat="42.45697" lon="0.04706">
        <ele>666.8</ele>
        <time>2012-11-12T12:28:31.000Z</time>
        <extensions>
          <gpxtpx:TrackPointExtension xmlns:gpxtpx="http://www.garmin.com/xmlschemas/TrackPointExtension/v1">
            <gpxtpx:hr>96</gpxtpx:hr>
          </gpxtpx:TrackPointExtension>
        </extensions>
      </trkpt>
      <trkpt lat="42.45699" lon="0.04714">
        <ele>666.3</ele>
        <time>2012-11-12T12:28:32.000Z</time>
        <extensions>
          <gpxtpx:TrackPointExtension xmlns:gpxtpx="http://www.garmin.com/xmlschemas/TrackPointExtension/v1">
            <gpxtpx:hr>100</gpxtpx:hr>
          </gpxtpx:TrackPointExtension>
        </extensions>
      </trkpt>
      <trkpt lat="42.45699" lon="0.04722">
        <ele>665.4</ele>
        <time>2012-11-12T12:28:33.000Z</time>
        <extensions>
          <gpxtpx:TrackPointExtension xmlns:gpxtpx="http://www.garmin.com/xmlschemas/TrackPointExtension/v1">
            <gpxtpx:hr>100</gpxtpx:hr>
          </gpxtpx:TrackPointExtension>
        </extensions>
      </trkpt>
      <trkpt lat="42.45696" lon="0.04731">
        <ele>663.9</ele>
        <time>2012-11-12T12:28:34.000Z</time>
        <extensions>
          <gpxtpx:TrackPointExtension xmlns:gpxtpx="http://www.garmin.com/xmlschemas/TrackPointExtension/v1">
            <gpxtpx:hr>100</gpxtpx:hr>
          </gpxtpx:TrackPointExtension>
        </extensions>
      </trkpt>
      <trkpt lat="42.45691" lon="0.04739">
        <ele>662.5</ele>
        <time>2012-11-12T12:28:35.000Z</time>
        <extensions>
          <gpxtpx:TrackPointExtension xmlns:gpxtpx="http://www.garmin.com/xmlschemas/TrackPointExtension/v1">
            <gpxtpx:hr>100</gpxtpx:hr>
          </gpxtpx:TrackPointExtension>
        </extensions>
      </trkpt>
      <trkpt lat="42.45684" lon="0.04746">
        <ele>661</ele>
        <time>2012-11-12T12:28:36.000Z</time>
        <extensions>
          <gpxtpx:TrackPointExtension xmlns:gpxtpx="http://www.garmin.com/xmlschemas/TrackPointExtension/v1">
            <gpxtpx:hr>101</gpxtpx:hr>
          </gpxtpx:TrackPointExtension>
        </extensions>
      </trkpt>
      <trkpt lat="42.45677" lon="0.04753">
        <ele>659.6</ele>
        <time>2012-11-12T12:28:37.000Z</time>
        <extensions>
          <gpxtpx:TrackPointExtension xmlns:gpxtpx="http://www.garmin.com/xmlschemas/TrackPointExtension/v1">
            <gpxtpx:hr>102</gpxtpx:hr>
          </gpxtpx:TrackPointExtension>
        </extensions>
      </trkpt>
      <trkpt lat="42.45635" lon="0.0479">
        <ele>659.1</ele>
        <time>2012-11-12T12:28:43.000Z</time>
        <extensions>
          <gpxtpx:TrackPointExtension xmlns:gpxtpx="http://www.garmin.com/xmlschemas/TrackPointExtension/v1">
            <gpxtpx:hr>105</gpxtpx:hr>
          </gpxtpx:TrackPointExtension>
        </extensions>
      </trkpt>
      <trkpt lat="42.45617" lon="0.0481">
        <ele>661</ele>
        <time>2012-11-12T12:28:47.000Z</time>
        <extensions>
          <gpxtpx:TrackPointExtension xmlns:gpxtpx="http://www.garmin.com/xmlschemas/TrackPointExtension/v1">
            <gpxtpx:hr>108</gpxtpx:hr>
          </gpxtpx:TrackPointExtension>
        </extensions>
      </trkpt>
      <trkpt lat="42.45614" lon="0.04815">
        <ele>661.5</ele>
        <time>2012-11-12T12:28:48.000Z</time>
        <extensions>
          <gpxtpx:TrackPointExtension xmlns:gpxtpx="http://www.garmin.com/xmlschemas/TrackPointExtension/v1">
            <gpxtpx:hr>109</gpxtpx:hr>
          </gpxtpx:TrackPointExtension>
        </extensions>
      </trkpt>
      <trkpt lat="42.45604" lon="0.04833">
        <ele>661</ele>
        <time>2012-11-12T12:28:52.000Z</time>
        <extensions>
          <gpxtpx:TrackPointExtension xmlns:gpxtpx="http://www.garmin.com/xmlschemas/TrackPointExtension/v1">
            <gpxtpx:hr>109</gpxtpx:hr>
          </gpxtpx:TrackPointExtension>
        </extensions>
      </trkpt>
      <trkpt lat="42.45601" lon="0.04838">
        <ele>659.1</ele>
        <time>2012-11-12T12:28:53.000Z</time>
        <extensions>
          <gpxtpx:TrackPointExtension xmlns:gpxtpx="http://www.garmin.com/xmlschemas/TrackPointExtension/v1">
            <gpxtpx:hr>109</gpxtpx:hr>
          </gpxtpx:TrackPointExtension>
        </extensions>
      </trkpt>
      <trkpt lat="42.45591" lon="0.04848">
        <ele>657.7</ele>
        <time>2012-11-12T12:28:55.000Z</time>
        <extensions>
          <gpxtpx:TrackPointExtension xmlns:gpxtpx="http://www.garmin.com/xmlschemas/TrackPointExtension/v1">
            <gpxtpx:hr>107</gpxtpx:hr>
          </gpxtpx:TrackPointExtension>
        </extensions>
      </trkpt>
      <trkpt lat="42.45587" lon="0.04856">
        <ele>656.7</ele>
        <time>2012-11-12T12:28:56.000Z</time>
        <extensions>
          <gpxtpx:TrackPointExtension xmlns:gpxtpx="http://www.garmin.com/xmlschemas/TrackPointExtension/v1">
            <gpxtpx:hr>107</gpxtpx:hr>
          </gpxtpx:TrackPointExtension>
        </extensions>
      </trkpt>
      <trkpt lat="42.45584" lon="0.04865">
        <ele>656.2</ele>
        <time>2012-11-12T12:28:57.000Z</time>
        <extensions>
          <gpxtpx:TrackPointExtension xmlns:gpxtpx="http://www.garmin.com/xmlschemas/TrackPointExtension/v1">
            <gpxtpx:hr>105</gpxtpx:hr>
          </gpxtpx:TrackPointExtension>
        </extensions>
      </trkpt>
      <trkpt lat="42.45583" lon="0.04874">
        <ele>656.2</ele>
        <time>2012-11-12T12:28:58.000Z</time>
        <extensions>
          <gpxtpx:TrackPointExtension xmlns:gpxtpx="http://www.garmin.com/xmlschemas/TrackPointExtension/v1">
            <gpxtpx:hr>105</gpxtpx:hr>
          </gpxtpx:TrackPointExtension>
        </extensions>
      </trkpt>
      <trkpt lat="42.45582" lon="0.04884">
        <ele>655.8</ele>
        <time>2012-11-12T12:28:59.000Z</time>
        <extensions>
          <gpxtpx:TrackPointExtension xmlns:gpxtpx="http://www.garmin.com/xmlschemas/TrackPointExtension/v1">
            <gpxtpx:hr>105</gpxtpx:hr>
          </gpxtpx:TrackPointExtension>
        </extensions>
      </trkpt>
      <trkpt lat="42.45581" lon="0.04894">
        <ele>654.3</ele>
        <time>2012-11-12T12:29:00.000Z</time>
        <extensions>
          <gpxtpx:TrackPointExtension xmlns:gpxtpx="http://www.garmin.com/xmlschemas/TrackPointExtension/v1">
            <gpxtpx:hr>105</gpxtpx:hr>
          </gpxtpx:TrackPointExtension>
        </extensions>
      </trkpt>
      <trkpt lat="42.45579" lon="0.04905">
        <ele>652.9</ele>
        <time>2012-11-12T12:29:01.000Z</time>
        <extensions>
          <gpxtpx:TrackPointExtension xmlns:gpxtpx="http://www.garmin.com/xmlschemas/TrackPointExtension/v1">
            <gpxtpx:hr>105</gpxtpx:hr>
          </gpxtpx:TrackPointExtension>
        </extensions>
      </trkpt>
      <trkpt lat="42.45578" lon="0.04914">
        <ele>651.9</ele>
        <time>2012-11-12T12:29:02.000Z</time>
        <extensions>
          <gpxtpx:TrackPointExtension xmlns:gpxtpx="http://www.garmin.com/xmlschemas/TrackPointExtension/v1">
            <gpxtpx:hr>106</gpxtpx:hr>
          </gpxtpx:TrackPointExtension>
        </extensions>
      </trkpt>
      <trkpt lat="42.4558" lon="0.04921">
        <ele>651.4</ele>
        <time>2012-11-12T12:29:03.000Z</time>
        <extensions>
          <gpxtpx:TrackPointExtension xmlns:gpxtpx="http://www.garmin.com/xmlschemas/TrackPointExtension/v1">
            <gpxtpx:hr>106</gpxtpx:hr>
          </gpxtpx:TrackPointExtension>
        </extensions>
      </trkpt>
      <trkpt lat="42.45584" lon="0.04924">
        <ele>651</ele>
        <time>2012-11-12T12:29:04.000Z</time>
        <extensions>
          <gpxtpx:TrackPointExtension xmlns:gpxtpx="http://www.garmin.com/xmlschemas/TrackPointExtension/v1">
            <gpxtpx:hr>106</gpxtpx:hr>
          </gpxtpx:TrackPointExtension>
        </extensions>
      </trkpt>
      <trkpt lat="42.45589" lon="0.04923">
        <ele>650</ele>
        <time>2012-11-12T12:29:05.000Z</time>
        <extensions>
          <gpxtpx:TrackPointExtension xmlns:gpxtpx="http://www.garmin.com/xmlschemas/TrackPointExtension/v1">
            <gpxtpx:hr>108</gpxtpx:hr>
          </gpxtpx:TrackPointExtension>
        </extensions>
      </trkpt>
      <trkpt lat="42.45593" lon="0.04918">
        <ele>649</ele>
        <time>2012-11-12T12:29:06.000Z</time>
        <extensions>
          <gpxtpx:TrackPointExtension xmlns:gpxtpx="http://www.garmin.com/xmlschemas/TrackPointExtension/v1">
            <gpxtpx:hr>108</gpxtpx:hr>
          </gpxtpx:TrackPointExtension>
        </extensions>
      </trkpt>
      <trkpt lat="42.45598" lon="0.04914">
        <ele>648.1</ele>
        <time>2012-11-12T12:29:07.000Z</time>
        <extensions>
          <gpxtpx:TrackPointExtension xmlns:gpxtpx="http://www.garmin.com/xmlschemas/TrackPointExtension/v1">
            <gpxtpx:hr>110</gpxtpx:hr>
          </gpxtpx:TrackPointExtension>
        </extensions>
      </trkpt>
      <trkpt lat="42.45604" lon="0.04915">
        <ele>647.1</ele>
        <time>2012-11-12T12:29:08.000Z</time>
        <extensions>
          <gpxtpx:TrackPointExtension xmlns:gpxtpx="http://www.garmin.com/xmlschemas/TrackPointExtension/v1">
            <gpxtpx:hr>111</gpxtpx:hr>
          </gpxtpx:TrackPointExtension>
        </extensions>
      </trkpt>
      <trkpt lat="42.45609" lon="0.0493">
        <ele>644.2</ele>
        <time>2012-11-12T12:29:10.000Z</time>
        <extensions>
          <gpxtpx:TrackPointExtension xmlns:gpxtpx="http://www.garmin.com/xmlschemas/TrackPointExtension/v1">
            <gpxtpx:hr>115</gpxtpx:hr>
          </gpxtpx:TrackPointExtension>
        </extensions>
      </trkpt>
      <trkpt lat="42.45607" lon="0.04939">
        <ele>643.7</ele>
        <time>2012-11-12T12:29:11.000Z</time>
        <extensions>
          <gpxtpx:TrackPointExtension xmlns:gpxtpx="http://www.garmin.com/xmlschemas/TrackPointExtension/v1">
            <gpxtpx:hr>114</gpxtpx:hr>
          </gpxtpx:TrackPointExtension>
        </extensions>
      </trkpt>
      <trkpt lat="42.45602" lon="0.04948">
        <ele>642.8</ele>
        <time>2012-11-12T12:29:12.000Z</time>
        <extensions>
          <gpxtpx:TrackPointExtension xmlns:gpxtpx="http://www.garmin.com/xmlschemas/TrackPointExtension/v1">
            <gpxtpx:hr>116</gpxtpx:hr>
          </gpxtpx:TrackPointExtension>
        </extensions>
      </trkpt>
      <trkpt lat="42.45599" lon="0.04957">
        <ele>641.3</ele>
        <time>2012-11-12T12:29:13.000Z</time>
        <extensions>
          <gpxtpx:TrackPointExtension xmlns:gpxtpx="http://www.garmin.com/xmlschemas/TrackPointExtension/v1">
            <gpxtpx:hr>117</gpxtpx:hr>
          </gpxtpx:TrackPointExtension>
        </extensions>
      </trkpt>
      <trkpt lat="42.45594" lon="0.04965">
        <ele>639.9</ele>
        <time>2012-11-12T12:29:14.000Z</time>
        <extensions>
          <gpxtpx:TrackPointExtension xmlns:gpxtpx="http://www.garmin.com/xmlschemas/TrackPointExtension/v1">
            <gpxtpx:hr>118</gpxtpx:hr>
          </gpxtpx:TrackPointExtension>
        </extensions>
      </trkpt>
      <trkpt lat="42.45588" lon="0.04975">
        <ele>638.9</ele>
        <time>2012-11-12T12:29:15.000Z</time>
        <extensions>
          <gpxtpx:TrackPointExtension xmlns:gpxtpx="http://www.garmin.com/xmlschemas/TrackPointExtension/v1">
            <gpxtpx:hr>121</gpxtpx:hr>
          </gpxtpx:TrackPointExtension>
        </extensions>
      </trkpt>
      <trkpt lat="42.45582" lon="0.04985">
        <ele>637</ele>
        <time>2012-11-12T12:29:16.000Z</time>
        <extensions>
          <gpxtpx:TrackPointExtension xmlns:gpxtpx="http://www.garmin.com/xmlschemas/TrackPointExtension/v1">
            <gpxtpx:hr>121</gpxtpx:hr>
          </gpxtpx:TrackPointExtension>
        </extensions>
      </trkpt>
      <trkpt lat="42.45577" lon="0.04996">
        <ele>636</ele>
        <time>2012-11-12T12:29:17.000Z</time>
        <extensions>
          <gpxtpx:TrackPointExtension xmlns:gpxtpx="http://www.garmin.com/xmlschemas/TrackPointExtension/v1">
            <gpxtpx:hr>121</gpxtpx:hr>
          </gpxtpx:TrackPointExtension>
        </extensions>
      </trkpt>
      <trkpt lat="42.45573" lon="0.05008">
        <ele>636</ele>
        <time>2012-11-12T12:29:18.000Z</time>
        <extensions>
          <gpxtpx:TrackPointExtension xmlns:gpxtpx="http://www.garmin.com/xmlschemas/TrackPointExtension/v1">
            <gpxtpx:hr>121</gpxtpx:hr>
          </gpxtpx:TrackPointExtension>
        </extensions>
      </trkpt>
      <trkpt lat="42.4557" lon="0.0502">
        <ele>636</ele>
        <time>2012-11-12T12:29:19.000Z</time>
        <extensions>
          <gpxtpx:TrackPointExtension xmlns:gpxtpx="http://www.garmin.com/xmlschemas/TrackPointExtension/v1">
            <gpxtpx:hr>120</gpxtpx:hr>
          </gpxtpx:TrackPointExtension>
        </extensions>
      </trkpt>
      <trkpt lat="42.45559" lon="0.0506">
        <ele>637</ele>
        <time>2012-11-12T12:29:23.000Z</time>
        <extensions>
          <gpxtpx:TrackPointExtension xmlns:gpxtpx="http://www.garmin.com/xmlschemas/TrackPointExtension/v1">
            <gpxtpx:hr>118</gpxtpx:hr>
          </gpxtpx:TrackPointExtension>
        </extensions>
      </trkpt>
      <trkpt lat="42.45555" lon="0.05067">
        <ele>637.5</ele>
        <time>2012-11-12T12:29:24.000Z</time>
        <extensions>
          <gpxtpx:TrackPointExtension xmlns:gpxtpx="http://www.garmin.com/xmlschemas/TrackPointExtension/v1">
            <gpxtpx:hr>118</gpxtpx:hr>
          </gpxtpx:TrackPointExtension>
        </extensions>
      </trkpt>
      <trkpt lat="42.4555" lon="0.05071">
        <ele>638</ele>
        <time>2012-11-12T12:29:25.000Z</time>
        <extensions>
          <gpxtpx:TrackPointExtension xmlns:gpxtpx="http://www.garmin.com/xmlschemas/TrackPointExtension/v1">
            <gpxtpx:hr>118</gpxtpx:hr>
          </gpxtpx:TrackPointExtension>
        </extensions>
      </trkpt>
      <trkpt lat="42.45545" lon="0.05074">
        <ele>638</ele>
        <time>2012-11-12T12:29:26.000Z</time>
        <extensions>
          <gpxtpx:TrackPointExtension xmlns:gpxtpx="http://www.garmin.com/xmlschemas/TrackPointExtension/v1">
            <gpxtpx:hr>116</gpxtpx:hr>
          </gpxtpx:TrackPointExtension>
        </extensions>
      </trkpt>
      <trkpt lat="42.4554" lon="0.05079">
        <ele>638</ele>
        <time>2012-11-12T12:29:27.000Z</time>
        <extensions>
          <gpxtpx:TrackPointExtension xmlns:gpxtpx="http://www.garmin.com/xmlschemas/TrackPointExtension/v1">
            <gpxtpx:hr>115</gpxtpx:hr>
          </gpxtpx:TrackPointExtension>
        </extensions>
      </trkpt>
      <trkpt lat="42.45536" lon="0.05084">
        <ele>638.5</ele>
        <time>2012-11-12T12:29:28.000Z</time>
        <extensions>
          <gpxtpx:TrackPointExtension xmlns:gpxtpx="http://www.garmin.com/xmlschemas/TrackPointExtension/v1">
            <gpxtpx:hr>114</gpxtpx:hr>
          </gpxtpx:TrackPointExtension>
        </extensions>
      </trkpt>
      <trkpt lat="42.45535" lon="0.05089">
        <ele>639.9</ele>
        <time>2012-11-12T12:29:29.000Z</time>
        <extensions>
          <gpxtpx:TrackPointExtension xmlns:gpxtpx="http://www.garmin.com/xmlschemas/TrackPointExtension/v1">
            <gpxtpx:hr>114</gpxtpx:hr>
          </gpxtpx:TrackPointExtension>
        </extensions>
      </trkpt>
      <trkpt lat="42.45533" lon="0.05093">
        <ele>640.4</ele>
        <time>2012-11-12T12:29:30.000Z</time>
        <extensions>
          <gpxtpx:TrackPointExtension xmlns:gpxtpx="http://www.garmin.com/xmlschemas/TrackPointExtension/v1">
            <gpxtpx:hr>114</gpxtpx:hr>
          </gpxtpx:TrackPointExtension>
        </extensions>
      </trkpt>
      <trkpt lat="42.45532" lon="0.05096">
        <ele>640.4</ele>
        <time>2012-11-12T12:29:31.000Z</time>
        <extensions>
          <gpxtpx:TrackPointExtension xmlns:gpxtpx="http://www.garmin.com/xmlschemas/TrackPointExtension/v1">
            <gpxtpx:hr>114</gpxtpx:hr>
          </gpxtpx:TrackPointExtension>
        </extensions>
      </trkpt>
      <trkpt lat="42.45524" lon="0.05109">
        <ele>640.4</ele>
        <time>2012-11-12T12:29:35.000Z</time>
        <extensions>
          <gpxtpx:TrackPointExtension xmlns:gpxtpx="http://www.garmin.com/xmlschemas/TrackPointExtension/v1">
            <gpxtpx:hr>114</gpxtpx:hr>
          </gpxtpx:TrackPointExtension>
        </extensions>
      </trkpt>
      <trkpt lat="42.45521" lon="0.05113">
        <ele>639.9</ele>
        <time>2012-11-12T12:29:36.000Z</time>
        <extensions>
          <gpxtpx:TrackPointExtension xmlns:gpxtpx="http://www.garmin.com/xmlschemas/TrackPointExtension/v1">
            <gpxtpx:hr>114</gpxtpx:hr>
          </gpxtpx:TrackPointExtension>
        </extensions>
      </trkpt>
      <trkpt lat="42.45519" lon="0.05118">
        <ele>639.9</ele>
        <time>2012-11-12T12:29:37.000Z</time>
        <extensions>
          <gpxtpx:TrackPointExtension xmlns:gpxtpx="http://www.garmin.com/xmlschemas/TrackPointExtension/v1">
            <gpxtpx:hr>114</gpxtpx:hr>
          </gpxtpx:TrackPointExtension>
        </extensions>
      </trkpt>
      <trkpt lat="42.45514" lon="0.05129">
        <ele>638.9</ele>
        <time>2012-11-12T12:29:39.000Z</time>
        <extensions>
          <gpxtpx:TrackPointExtension xmlns:gpxtpx="http://www.garmin.com/xmlschemas/TrackPointExtension/v1">
            <gpxtpx:hr>115</gpxtpx:hr>
          </gpxtpx:TrackPointExtension>
        </extensions>
      </trkpt>
      <trkpt lat="42.45512" lon="0.05135">
        <ele>638.9</ele>
        <time>2012-11-12T12:29:40.000Z</time>
        <extensions>
          <gpxtpx:TrackPointExtension xmlns:gpxtpx="http://www.garmin.com/xmlschemas/TrackPointExtension/v1">
            <gpxtpx:hr>115</gpxtpx:hr>
          </gpxtpx:TrackPointExtension>
        </extensions>
      </trkpt>
      <trkpt lat="42.45508" lon="0.05147">
        <ele>638.9</ele>
        <time>2012-11-12T12:29:42.000Z</time>
        <extensions>
          <gpxtpx:TrackPointExtension xmlns:gpxtpx="http://www.garmin.com/xmlschemas/TrackPointExtension/v1">
            <gpxtpx:hr>117</gpxtpx:hr>
          </gpxtpx:TrackPointExtension>
        </extensions>
      </trkpt>
      <trkpt lat="42.45504" lon="0.05151">
        <ele>638.5</ele>
        <time>2012-11-12T12:29:43.000Z</time>
        <extensions>
          <gpxtpx:TrackPointExtension xmlns:gpxtpx="http://www.garmin.com/xmlschemas/TrackPointExtension/v1">
            <gpxtpx:hr>117</gpxtpx:hr>
          </gpxtpx:TrackPointExtension>
        </extensions>
      </trkpt>
      <trkpt lat="42.45499" lon="0.05155">
        <ele>637.5</ele>
        <time>2012-11-12T12:29:44.000Z</time>
        <extensions>
          <gpxtpx:TrackPointExtension xmlns:gpxtpx="http://www.garmin.com/xmlschemas/TrackPointExtension/v1">
            <gpxtpx:hr>120</gpxtpx:hr>
          </gpxtpx:TrackPointExtension>
        </extensions>
      </trkpt>
      <trkpt lat="42.45494" lon="0.05157">
        <ele>636.5</ele>
        <time>2012-11-12T12:29:45.000Z</time>
        <extensions>
          <gpxtpx:TrackPointExtension xmlns:gpxtpx="http://www.garmin.com/xmlschemas/TrackPointExtension/v1">
            <gpxtpx:hr>119</gpxtpx:hr>
          </gpxtpx:TrackPointExtension>
        </extensions>
      </trkpt>
      <trkpt lat="42.45487" lon="0.05158">
        <ele>635.1</ele>
        <time>2012-11-12T12:29:46.000Z</time>
        <extensions>
          <gpxtpx:TrackPointExtension xmlns:gpxtpx="http://www.garmin.com/xmlschemas/TrackPointExtension/v1">
            <gpxtpx:hr>118</gpxtpx:hr>
          </gpxtpx:TrackPointExtension>
        </extensions>
      </trkpt>
      <trkpt lat="42.45479" lon="0.05158">
        <ele>634.1</ele>
        <time>2012-11-12T12:29:47.000Z</time>
        <extensions>
          <gpxtpx:TrackPointExtension xmlns:gpxtpx="http://www.garmin.com/xmlschemas/TrackPointExtension/v1">
            <gpxtpx:hr>117</gpxtpx:hr>
          </gpxtpx:TrackPointExtension>
        </extensions>
      </trkpt>
      <trkpt lat="42.45454" lon="0.05156">
        <ele>631.2</ele>
        <time>2012-11-12T12:29:50.000Z</time>
        <extensions>
          <gpxtpx:TrackPointExtension xmlns:gpxtpx="http://www.garmin.com/xmlschemas/TrackPointExtension/v1">
            <gpxtpx:hr>114</gpxtpx:hr>
          </gpxtpx:TrackPointExtension>
        </extensions>
      </trkpt>
      <trkpt lat="42.45446" lon="0.05155">
        <ele>630.8</ele>
        <time>2012-11-12T12:29:51.000Z</time>
        <extensions>
          <gpxtpx:TrackPointExtension xmlns:gpxtpx="http://www.garmin.com/xmlschemas/TrackPointExtension/v1">
            <gpxtpx:hr>115</gpxtpx:hr>
          </gpxtpx:TrackPointExtension>
        </extensions>
      </trkpt>
      <trkpt lat="42.45438" lon="0.05156">
        <ele>629.8</ele>
        <time>2012-11-12T12:29:52.000Z</time>
        <extensions>
          <gpxtpx:TrackPointExtension xmlns:gpxtpx="http://www.garmin.com/xmlschemas/TrackPointExtension/v1">
            <gpxtpx:hr>113</gpxtpx:hr>
          </gpxtpx:TrackPointExtension>
        </extensions>
      </trkpt>
      <trkpt lat="42.45432" lon="0.05161">
        <ele>629.3</ele>
        <time>2012-11-12T12:29:53.000Z</time>
        <extensions>
          <gpxtpx:TrackPointExtension xmlns:gpxtpx="http://www.garmin.com/xmlschemas/TrackPointExtension/v1">
            <gpxtpx:hr>113</gpxtpx:hr>
          </gpxtpx:TrackPointExtension>
        </extensions>
      </trkpt>
      <trkpt lat="42.45427" lon="0.05168">
        <ele>629.8</ele>
        <time>2012-11-12T12:29:54.000Z</time>
        <extensions>
          <gpxtpx:TrackPointExtension xmlns:gpxtpx="http://www.garmin.com/xmlschemas/TrackPointExtension/v1">
            <gpxtpx:hr>113</gpxtpx:hr>
          </gpxtpx:TrackPointExtension>
        </extensions>
      </trkpt>
      <trkpt lat="42.45424" lon="0.05175">
        <ele>629.8</ele>
        <time>2012-11-12T12:29:55.000Z</time>
        <extensions>
          <gpxtpx:TrackPointExtension xmlns:gpxtpx="http://www.garmin.com/xmlschemas/TrackPointExtension/v1">
            <gpxtpx:hr>114</gpxtpx:hr>
          </gpxtpx:TrackPointExtension>
        </extensions>
      </trkpt>
      <trkpt lat="42.45407" lon="0.05216">
        <ele>626.9</ele>
        <time>2012-11-12T12:30:00.000Z</time>
        <extensions>
          <gpxtpx:TrackPointExtension xmlns:gpxtpx="http://www.garmin.com/xmlschemas/TrackPointExtension/v1">
            <gpxtpx:hr>115</gpxtpx:hr>
          </gpxtpx:TrackPointExtension>
        </extensions>
      </trkpt>
      <trkpt lat="42.45396" lon="0.05233">
        <ele>624.5</ele>
        <time>2012-11-12T12:30:02.000Z</time>
        <extensions>
          <gpxtpx:TrackPointExtension xmlns:gpxtpx="http://www.garmin.com/xmlschemas/TrackPointExtension/v1">
            <gpxtpx:hr>116</gpxtpx:hr>
          </gpxtpx:TrackPointExtension>
        </extensions>
      </trkpt>
      <trkpt lat="42.45362" lon="0.05286">
        <ele>620.7</ele>
        <time>2012-11-12T12:30:08.000Z</time>
        <extensions>
          <gpxtpx:TrackPointExtension xmlns:gpxtpx="http://www.garmin.com/xmlschemas/TrackPointExtension/v1">
            <gpxtpx:hr>113</gpxtpx:hr>
          </gpxtpx:TrackPointExtension>
        </extensions>
      </trkpt>
      <trkpt lat="42.45346" lon="0.05319">
        <ele>616.3</ele>
        <time>2012-11-12T12:30:11.000Z</time>
        <extensions>
          <gpxtpx:TrackPointExtension xmlns:gpxtpx="http://www.garmin.com/xmlschemas/TrackPointExtension/v1">
            <gpxtpx:hr>110</gpxtpx:hr>
          </gpxtpx:TrackPointExtension>
        </extensions>
      </trkpt>
      <trkpt lat="42.45341" lon="0.0533">
        <ele>615.9</ele>
        <time>2012-11-12T12:30:12.000Z</time>
        <extensions>
          <gpxtpx:TrackPointExtension xmlns:gpxtpx="http://www.garmin.com/xmlschemas/TrackPointExtension/v1">
            <gpxtpx:hr>110</gpxtpx:hr>
          </gpxtpx:TrackPointExtension>
        </extensions>
      </trkpt>
      <trkpt lat="42.45335" lon="0.05337">
        <ele>616.3</ele>
        <time>2012-11-12T12:30:13.000Z</time>
        <extensions>
          <gpxtpx:TrackPointExtension xmlns:gpxtpx="http://www.garmin.com/xmlschemas/TrackPointExtension/v1">
            <gpxtpx:hr>112</gpxtpx:hr>
          </gpxtpx:TrackPointExtension>
        </extensions>
      </trkpt>
      <trkpt lat="42.45328" lon="0.05343">
        <ele>616.8</ele>
        <time>2012-11-12T12:30:14.000Z</time>
        <extensions>
          <gpxtpx:TrackPointExtension xmlns:gpxtpx="http://www.garmin.com/xmlschemas/TrackPointExtension/v1">
            <gpxtpx:hr>113</gpxtpx:hr>
          </gpxtpx:TrackPointExtension>
        </extensions>
      </trkpt>
      <trkpt lat="42.45321" lon="0.05346">
        <ele>616.3</ele>
        <time>2012-11-12T12:30:15.000Z</time>
        <extensions>
          <gpxtpx:TrackPointExtension xmlns:gpxtpx="http://www.garmin.com/xmlschemas/TrackPointExtension/v1">
            <gpxtpx:hr>115</gpxtpx:hr>
          </gpxtpx:TrackPointExtension>
        </extensions>
      </trkpt>
      <trkpt lat="42.45314" lon="0.05349">
        <ele>615.4</ele>
        <time>2012-11-12T12:30:16.000Z</time>
        <extensions>
          <gpxtpx:TrackPointExtension xmlns:gpxtpx="http://www.garmin.com/xmlschemas/TrackPointExtension/v1">
            <gpxtpx:hr>115</gpxtpx:hr>
          </gpxtpx:TrackPointExtension>
        </extensions>
      </trkpt>
      <trkpt lat="42.45307" lon="0.05353">
        <ele>615.9</ele>
        <time>2012-11-12T12:30:17.000Z</time>
        <extensions>
          <gpxtpx:TrackPointExtension xmlns:gpxtpx="http://www.garmin.com/xmlschemas/TrackPointExtension/v1">
            <gpxtpx:hr>117</gpxtpx:hr>
          </gpxtpx:TrackPointExtension>
        </extensions>
      </trkpt>
      <trkpt lat="42.45302" lon="0.05357">
        <ele>616.3</ele>
        <time>2012-11-12T12:30:18.000Z</time>
        <extensions>
          <gpxtpx:TrackPointExtension xmlns:gpxtpx="http://www.garmin.com/xmlschemas/TrackPointExtension/v1">
            <gpxtpx:hr>115</gpxtpx:hr>
          </gpxtpx:TrackPointExtension>
        </extensions>
      </trkpt>
      <trkpt lat="42.45296" lon="0.0536">
        <ele>616.8</ele>
        <time>2012-11-12T12:30:19.000Z</time>
        <extensions>
          <gpxtpx:TrackPointExtension xmlns:gpxtpx="http://www.garmin.com/xmlschemas/TrackPointExtension/v1">
            <gpxtpx:hr>113</gpxtpx:hr>
          </gpxtpx:TrackPointExtension>
        </extensions>
      </trkpt>
      <trkpt lat="42.45291" lon="0.05361">
        <ele>617.3</ele>
        <time>2012-11-12T12:30:20.000Z</time>
        <extensions>
          <gpxtpx:TrackPointExtension xmlns:gpxtpx="http://www.garmin.com/xmlschemas/TrackPointExtension/v1">
            <gpxtpx:hr>112</gpxtpx:hr>
          </gpxtpx:TrackPointExtension>
        </extensions>
      </trkpt>
      <trkpt lat="42.45286" lon="0.05362">
        <ele>617.8</ele>
        <time>2012-11-12T12:30:21.000Z</time>
        <extensions>
          <gpxtpx:TrackPointExtension xmlns:gpxtpx="http://www.garmin.com/xmlschemas/TrackPointExtension/v1">
            <gpxtpx:hr>111</gpxtpx:hr>
          </gpxtpx:TrackPointExtension>
        </extensions>
      </trkpt>
      <trkpt lat="42.45282" lon="0.05363">
        <ele>618.3</ele>
        <time>2012-11-12T12:30:22.000Z</time>
        <extensions>
          <gpxtpx:TrackPointExtension xmlns:gpxtpx="http://www.garmin.com/xmlschemas/TrackPointExtension/v1">
            <gpxtpx:hr>111</gpxtpx:hr>
          </gpxtpx:TrackPointExtension>
        </extensions>
      </trkpt>
      <trkpt lat="42.45277" lon="0.05365">
        <ele>618.3</ele>
        <time>2012-11-12T12:30:23.000Z</time>
        <extensions>
          <gpxtpx:TrackPointExtension xmlns:gpxtpx="http://www.garmin.com/xmlschemas/TrackPointExtension/v1">
            <gpxtpx:hr>112</gpxtpx:hr>
          </gpxtpx:TrackPointExtension>
        </extensions>
      </trkpt>
      <trkpt lat="42.4526" lon="0.05377">
        <ele>620.2</ele>
        <time>2012-11-12T12:30:29.000Z</time>
        <extensions>
          <gpxtpx:TrackPointExtension xmlns:gpxtpx="http://www.garmin.com/xmlschemas/TrackPointExtension/v1">
            <gpxtpx:hr>113</gpxtpx:hr>
          </gpxtpx:TrackPointExtension>
        </extensions>
      </trkpt>
      <trkpt lat="42.45247" lon="0.05395">
        <ele>618.8</ele>
        <time>2012-11-12T12:30:34.000Z</time>
        <extensions>
          <gpxtpx:TrackPointExtension xmlns:gpxtpx="http://www.garmin.com/xmlschemas/TrackPointExtension/v1">
            <gpxtpx:hr>114</gpxtpx:hr>
          </gpxtpx:TrackPointExtension>
        </extensions>
      </trkpt>
      <trkpt lat="42.45225" lon="0.0543">
        <ele>616.3</ele>
        <time>2012-11-12T12:30:40.000Z</time>
        <extensions>
          <gpxtpx:TrackPointExtension xmlns:gpxtpx="http://www.garmin.com/xmlschemas/TrackPointExtension/v1">
            <gpxtpx:hr>111</gpxtpx:hr>
          </gpxtpx:TrackPointExtension>
        </extensions>
      </trkpt>
      <trkpt lat="42.45207" lon="0.05446">
        <ele>616.3</ele>
        <time>2012-11-12T12:30:44.000Z</time>
        <extensions>
          <gpxtpx:TrackPointExtension xmlns:gpxtpx="http://www.garmin.com/xmlschemas/TrackPointExtension/v1">
            <gpxtpx:hr>105</gpxtpx:hr>
          </gpxtpx:TrackPointExtension>
        </extensions>
      </trkpt>
      <trkpt lat="42.45194" lon="0.05454">
        <ele>615.9</ele>
        <time>2012-11-12T12:30:47.000Z</time>
        <extensions>
          <gpxtpx:TrackPointExtension xmlns:gpxtpx="http://www.garmin.com/xmlschemas/TrackPointExtension/v1">
            <gpxtpx:hr>105</gpxtpx:hr>
          </gpxtpx:TrackPointExtension>
        </extensions>
      </trkpt>
      <trkpt lat="42.45184" lon="0.05458">
        <ele>614.9</ele>
        <time>2012-11-12T12:30:49.000Z</time>
        <extensions>
          <gpxtpx:TrackPointExtension xmlns:gpxtpx="http://www.garmin.com/xmlschemas/TrackPointExtension/v1">
            <gpxtpx:hr>104</gpxtpx:hr>
          </gpxtpx:TrackPointExtension>
        </extensions>
      </trkpt>
      <trkpt lat="42.45166" lon="0.05462">
        <ele>613</ele>
        <time>2012-11-12T12:30:52.000Z</time>
        <extensions>
          <gpxtpx:TrackPointExtension xmlns:gpxtpx="http://www.garmin.com/xmlschemas/TrackPointExtension/v1">
            <gpxtpx:hr>101</gpxtpx:hr>
          </gpxtpx:TrackPointExtension>
        </extensions>
      </trkpt>
      <trkpt lat="42.45161" lon="0.05466">
        <ele>613</ele>
        <time>2012-11-12T12:30:53.000Z</time>
        <extensions>
          <gpxtpx:TrackPointExtension xmlns:gpxtpx="http://www.garmin.com/xmlschemas/TrackPointExtension/v1">
            <gpxtpx:hr>100</gpxtpx:hr>
          </gpxtpx:TrackPointExtension>
        </extensions>
      </trkpt>
      <trkpt lat="42.45155" lon="0.0547">
        <ele>612.5</ele>
        <time>2012-11-12T12:30:54.000Z</time>
        <extensions>
          <gpxtpx:TrackPointExtension xmlns:gpxtpx="http://www.garmin.com/xmlschemas/TrackPointExtension/v1">
            <gpxtpx:hr>100</gpxtpx:hr>
          </gpxtpx:TrackPointExtension>
        </extensions>
      </trkpt>
      <trkpt lat="42.4515" lon="0.05476">
        <ele>612</ele>
        <time>2012-11-12T12:30:55.000Z</time>
        <extensions>
          <gpxtpx:TrackPointExtension xmlns:gpxtpx="http://www.garmin.com/xmlschemas/TrackPointExtension/v1">
            <gpxtpx:hr>97</gpxtpx:hr>
          </gpxtpx:TrackPointExtension>
        </extensions>
      </trkpt>
      <trkpt lat="42.45145" lon="0.05483">
        <ele>611.1</ele>
        <time>2012-11-12T12:30:56.000Z</time>
        <extensions>
          <gpxtpx:TrackPointExtension xmlns:gpxtpx="http://www.garmin.com/xmlschemas/TrackPointExtension/v1">
            <gpxtpx:hr>96</gpxtpx:hr>
          </gpxtpx:TrackPointExtension>
        </extensions>
      </trkpt>
      <trkpt lat="42.4514" lon="0.05489">
        <ele>610.1</ele>
        <time>2012-11-12T12:30:57.000Z</time>
        <extensions>
          <gpxtpx:TrackPointExtension xmlns:gpxtpx="http://www.garmin.com/xmlschemas/TrackPointExtension/v1">
            <gpxtpx:hr>95</gpxtpx:hr>
          </gpxtpx:TrackPointExtension>
        </extensions>
      </trkpt>
      <trkpt lat="42.45134" lon="0.05495">
        <ele>610.1</ele>
        <time>2012-11-12T12:30:58.000Z</time>
        <extensions>
          <gpxtpx:TrackPointExtension xmlns:gpxtpx="http://www.garmin.com/xmlschemas/TrackPointExtension/v1">
            <gpxtpx:hr>94</gpxtpx:hr>
          </gpxtpx:TrackPointExtension>
        </extensions>
      </trkpt>
      <trkpt lat="42.45129" lon="0.05498">
        <ele>610.1</ele>
        <time>2012-11-12T12:30:59.000Z</time>
        <extensions>
          <gpxtpx:TrackPointExtension xmlns:gpxtpx="http://www.garmin.com/xmlschemas/TrackPointExtension/v1">
            <gpxtpx:hr>93</gpxtpx:hr>
          </gpxtpx:TrackPointExtension>
        </extensions>
      </trkpt>
      <trkpt lat="42.45123" lon="0.05501">
        <ele>610.1</ele>
        <time>2012-11-12T12:31:00.000Z</time>
        <extensions>
          <gpxtpx:TrackPointExtension xmlns:gpxtpx="http://www.garmin.com/xmlschemas/TrackPointExtension/v1">
            <gpxtpx:hr>92</gpxtpx:hr>
          </gpxtpx:TrackPointExtension>
        </extensions>
      </trkpt>
      <trkpt lat="42.45117" lon="0.05502">
        <ele>610.1</ele>
        <time>2012-11-12T12:31:01.000Z</time>
        <extensions>
          <gpxtpx:TrackPointExtension xmlns:gpxtpx="http://www.garmin.com/xmlschemas/TrackPointExtension/v1">
            <gpxtpx:hr>91</gpxtpx:hr>
          </gpxtpx:TrackPointExtension>
        </extensions>
      </trkpt>
      <trkpt lat="42.45105" lon="0.05504">
        <ele>610.1</ele>
        <time>2012-11-12T12:31:03.000Z</time>
        <extensions>
          <gpxtpx:TrackPointExtension xmlns:gpxtpx="http://www.garmin.com/xmlschemas/TrackPointExtension/v1">
            <gpxtpx:hr>92</gpxtpx:hr>
          </gpxtpx:TrackPointExtension>
        </extensions>
      </trkpt>
      <trkpt lat="42.451" lon="0.05505">
        <ele>610.6</ele>
        <time>2012-11-12T12:31:04.000Z</time>
        <extensions>
          <gpxtpx:TrackPointExtension xmlns:gpxtpx="http://www.garmin.com/xmlschemas/TrackPointExtension/v1">
            <gpxtpx:hr>95</gpxtpx:hr>
          </gpxtpx:TrackPointExtension>
        </extensions>
      </trkpt>
      <trkpt lat="42.4508" lon="0.05515">
        <ele>610.6</ele>
        <time>2012-11-12T12:31:08.000Z</time>
        <extensions>
          <gpxtpx:TrackPointExtension xmlns:gpxtpx="http://www.garmin.com/xmlschemas/TrackPointExtension/v1">
            <gpxtpx:hr>98</gpxtpx:hr>
          </gpxtpx:TrackPointExtension>
        </extensions>
      </trkpt>
      <trkpt lat="42.45043" lon="0.05543">
        <ele>610.1</ele>
        <time>2012-11-12T12:31:16.000Z</time>
        <extensions>
          <gpxtpx:TrackPointExtension xmlns:gpxtpx="http://www.garmin.com/xmlschemas/TrackPointExtension/v1">
            <gpxtpx:hr>100</gpxtpx:hr>
          </gpxtpx:TrackPointExtension>
        </extensions>
      </trkpt>
      <trkpt lat="42.44993" lon="0.05578">
        <ele>610.1</ele>
        <time>2012-11-12T12:31:26.000Z</time>
        <extensions>
          <gpxtpx:TrackPointExtension xmlns:gpxtpx="http://www.garmin.com/xmlschemas/TrackPointExtension/v1">
            <gpxtpx:hr>112</gpxtpx:hr>
          </gpxtpx:TrackPointExtension>
        </extensions>
      </trkpt>
      <trkpt lat="42.44982" lon="0.05584">
        <ele>611.5</ele>
        <time>2012-11-12T12:31:30.000Z</time>
        <extensions>
          <gpxtpx:TrackPointExtension xmlns:gpxtpx="http://www.garmin.com/xmlschemas/TrackPointExtension/v1">
            <gpxtpx:hr>112</gpxtpx:hr>
          </gpxtpx:TrackPointExtension>
        </extensions>
      </trkpt>
      <trkpt lat="42.44981" lon="0.05587">
        <ele>612.5</ele>
        <time>2012-11-12T12:31:32.000Z</time>
        <extensions>
          <gpxtpx:TrackPointExtension xmlns:gpxtpx="http://www.garmin.com/xmlschemas/TrackPointExtension/v1">
            <gpxtpx:hr>115</gpxtpx:hr>
          </gpxtpx:TrackPointExtension>
        </extensions>
      </trkpt>
      <trkpt lat="42.4498" lon="0.05589">
        <ele>612.5</ele>
        <time>2012-11-12T12:31:33.000Z</time>
        <extensions>
          <gpxtpx:TrackPointExtension xmlns:gpxtpx="http://www.garmin.com/xmlschemas/TrackPointExtension/v1">
            <gpxtpx:hr>115</gpxtpx:hr>
          </gpxtpx:TrackPointExtension>
        </extensions>
      </trkpt>
      <trkpt lat="42.44979" lon="0.05595">
        <ele>613</ele>
        <time>2012-11-12T12:31:36.000Z</time>
        <extensions>
          <gpxtpx:TrackPointExtension xmlns:gpxtpx="http://www.garmin.com/xmlschemas/TrackPointExtension/v1">
            <gpxtpx:hr>115</gpxtpx:hr>
          </gpxtpx:TrackPointExtension>
        </extensions>
      </trkpt>
      <trkpt lat="42.44979" lon="0.05595">
        <ele>613</ele>
        <time>2012-11-12T12:31:40.000Z</time>
        <extensions>
          <gpxtpx:TrackPointExtension xmlns:gpxtpx="http://www.garmin.com/xmlschemas/TrackPointExtension/v1">
            <gpxtpx:hr>116</gpxtpx:hr>
          </gpxtpx:TrackPointExtension>
        </extensions>
      </trkpt>
      <trkpt lat="42.44979" lon="0.05595">
        <ele>613</ele>
        <time>2012-11-12T12:32:00.000Z</time>
        <extensions>
          <gpxtpx:TrackPointExtension xmlns:gpxtpx="http://www.garmin.com/xmlschemas/TrackPointExtension/v1">
            <gpxtpx:hr>94</gpxtpx:hr>
          </gpxtpx:TrackPointExtension>
        </extensions>
      </trkpt>
      <trkpt lat="42.44979" lon="0.05596">
        <ele>612</ele>
        <time>2012-11-12T12:32:11.000Z</time>
        <extensions>
          <gpxtpx:TrackPointExtension xmlns:gpxtpx="http://www.garmin.com/xmlschemas/TrackPointExtension/v1">
            <gpxtpx:hr>99</gpxtpx:hr>
          </gpxtpx:TrackPointExtension>
        </extensions>
      </trkpt>
      <trkpt lat="42.44978" lon="0.05597">
        <ele>612.5</ele>
        <time>2012-11-12T12:32:32.000Z</time>
        <extensions>
          <gpxtpx:TrackPointExtension xmlns:gpxtpx="http://www.garmin.com/xmlschemas/TrackPointExtension/v1">
            <gpxtpx:hr>89</gpxtpx:hr>
          </gpxtpx:TrackPointExtension>
        </extensions>
      </trkpt>
      <trkpt lat="42.44978" lon="0.05597">
        <ele>612</ele>
        <time>2012-11-12T12:32:45.000Z</time>
        <extensions>
          <gpxtpx:TrackPointExtension xmlns:gpxtpx="http://www.garmin.com/xmlschemas/TrackPointExtension/v1">
            <gpxtpx:hr>83</gpxtpx:hr>
          </gpxtpx:TrackPointExtension>
        </extensions>
      </trkpt>
      <trkpt lat="42.44978" lon="0.05597">
        <ele>612.5</ele>
        <time>2012-11-12T12:32:57.000Z</time>
        <extensions>
          <gpxtpx:TrackPointExtension xmlns:gpxtpx="http://www.garmin.com/xmlschemas/TrackPointExtension/v1">
            <gpxtpx:hr>82</gpxtpx:hr>
          </gpxtpx:TrackPointExtension>
        </extensions>
      </trkpt>
      <trkpt lat="42.44977" lon="0.05598">
        <ele>612.5</ele>
        <time>2012-11-12T12:33:13.000Z</time>
      </trkpt>
      <trkpt lat="42.44977" lon="0.05598">
        <ele>612.5</ele>
        <time>2012-11-12T12:33:25.000Z</time>
        <extensions>
          <gpxtpx:TrackPointExtension xmlns:gpxtpx="http://www.garmin.com/xmlschemas/TrackPointExtension/v1">
            <gpxtpx:hr>94</gpxtpx:hr>
          </gpxtpx:TrackPointExtension>
        </extensions>
      </trkpt>
      <trkpt lat="42.44976" lon="0.05597">
        <ele>613</ele>
        <time>2012-11-12T12:33:32.000Z</time>
        <extensions>
          <gpxtpx:TrackPointExtension xmlns:gpxtpx="http://www.garmin.com/xmlschemas/TrackPointExtension/v1">
            <gpxtpx:hr>92</gpxtpx:hr>
          </gpxtpx:TrackPointExtension>
        </extensions>
      </trkpt>
      <trkpt lat="42.44978" lon="0.05596">
        <ele>613</ele>
        <time>2012-11-12T12:33:47.000Z</time>
        <extensions>
          <gpxtpx:TrackPointExtension xmlns:gpxtpx="http://www.garmin.com/xmlschemas/TrackPointExtension/v1">
            <gpxtpx:hr>76</gpxtpx:hr>
          </gpxtpx:TrackPointExtension>
        </extensions>
      </trkpt>
      <trkpt lat="42.44978" lon="0.05597">
        <ele>613</ele>
        <time>2012-11-12T12:33:55.000Z</time>
        <extensions>
          <gpxtpx:TrackPointExtension xmlns:gpxtpx="http://www.garmin.com/xmlschemas/TrackPointExtension/v1">
            <gpxtpx:hr>76</gpxtpx:hr>
          </gpxtpx:TrackPointExtension>
        </extensions>
      </trkpt>
      <trkpt lat="42.44977" lon="0.05598">
        <ele>613</ele>
        <time>2012-11-12T12:34:05.000Z</time>
        <extensions>
          <gpxtpx:TrackPointExtension xmlns:gpxtpx="http://www.garmin.com/xmlschemas/TrackPointExtension/v1">
            <gpxtpx:hr>78</gpxtpx:hr>
          </gpxtpx:TrackPointExtension>
        </extensions>
      </trkpt>
      <trkpt lat="42.44977" lon="0.05607">
        <ele>612.5</ele>
        <time>2012-11-12T12:34:09.000Z</time>
        <extensions>
          <gpxtpx:TrackPointExtension xmlns:gpxtpx="http://www.garmin.com/xmlschemas/TrackPointExtension/v1">
            <gpxtpx:hr>80</gpxtpx:hr>
          </gpxtpx:TrackPointExtension>
        </extensions>
      </trkpt>
      <trkpt lat="42.44977" lon="0.05609">
        <ele>612.5</ele>
        <time>2012-11-12T12:34:10.000Z</time>
        <extensions>
          <gpxtpx:TrackPointExtension xmlns:gpxtpx="http://www.garmin.com/xmlschemas/TrackPointExtension/v1">
            <gpxtpx:hr>82</gpxtpx:hr>
          </gpxtpx:TrackPointExtension>
        </extensions>
      </trkpt>
      <trkpt lat="42.44979" lon="0.05609">
        <ele>612.5</ele>
        <time>2012-11-12T12:34:16.000Z</time>
        <extensions>
          <gpxtpx:TrackPointExtension xmlns:gpxtpx="http://www.garmin.com/xmlschemas/TrackPointExtension/v1">
            <gpxtpx:hr>86</gpxtpx:hr>
          </gpxtpx:TrackPointExtension>
        </extensions>
      </trkpt>
      <trkpt lat="42.44982" lon="0.05613">
        <ele>612.5</ele>
        <time>2012-11-12T12:34:25.000Z</time>
        <extensions>
          <gpxtpx:TrackPointExtension xmlns:gpxtpx="http://www.garmin.com/xmlschemas/TrackPointExtension/v1">
            <gpxtpx:hr>84</gpxtpx:hr>
          </gpxtpx:TrackPointExtension>
        </extensions>
      </trkpt>
      <trkpt lat="42.44989" lon="0.0564">
        <ele>611.5</ele>
        <time>2012-11-12T12:34:32.000Z</time>
        <extensions>
          <gpxtpx:TrackPointExtension xmlns:gpxtpx="http://www.garmin.com/xmlschemas/TrackPointExtension/v1">
            <gpxtpx:hr>82</gpxtpx:hr>
          </gpxtpx:TrackPointExtension>
        </extensions>
      </trkpt>
      <trkpt lat="42.45001" lon="0.05685">
        <ele>611.1</ele>
        <time>2012-11-12T12:34:41.000Z</time>
        <extensions>
          <gpxtpx:TrackPointExtension xmlns:gpxtpx="http://www.garmin.com/xmlschemas/TrackPointExtension/v1">
            <gpxtpx:hr>82</gpxtpx:hr>
          </gpxtpx:TrackPointExtension>
        </extensions>
      </trkpt>
      <trkpt lat="42.45012" lon="0.0573">
        <ele>610.6</ele>
        <time>2012-11-12T12:34:50.000Z</time>
        <extensions>
          <gpxtpx:TrackPointExtension xmlns:gpxtpx="http://www.garmin.com/xmlschemas/TrackPointExtension/v1">
            <gpxtpx:hr>86</gpxtpx:hr>
          </gpxtpx:TrackPointExtension>
        </extensions>
      </trkpt>
      <trkpt lat="42.45008" lon="0.05753">
        <ele>611.1</ele>
        <time>2012-11-12T12:34:55.000Z</time>
        <extensions>
          <gpxtpx:TrackPointExtension xmlns:gpxtpx="http://www.garmin.com/xmlschemas/TrackPointExtension/v1">
            <gpxtpx:hr>88</gpxtpx:hr>
          </gpxtpx:TrackPointExtension>
        </extensions>
      </trkpt>
      <trkpt lat="42.44996" lon="0.05771">
        <ele>610.6</ele>
        <time>2012-11-12T12:35:00.000Z</time>
        <extensions>
          <gpxtpx:TrackPointExtension xmlns:gpxtpx="http://www.garmin.com/xmlschemas/TrackPointExtension/v1">
            <gpxtpx:hr>84</gpxtpx:hr>
          </gpxtpx:TrackPointExtension>
        </extensions>
      </trkpt>
      <trkpt lat="42.44971" lon="0.05801">
        <ele>610.1</ele>
        <time>2012-11-12T12:35:09.000Z</time>
        <extensions>
          <gpxtpx:TrackPointExtension xmlns:gpxtpx="http://www.garmin.com/xmlschemas/TrackPointExtension/v1">
            <gpxtpx:hr>84</gpxtpx:hr>
          </gpxtpx:TrackPointExtension>
        </extensions>
      </trkpt>
      <trkpt lat="42.4495" lon="0.05828">
        <ele>610.1</ele>
        <time>2012-11-12T12:35:17.000Z</time>
        <extensions>
          <gpxtpx:TrackPointExtension xmlns:gpxtpx="http://www.garmin.com/xmlschemas/TrackPointExtension/v1">
            <gpxtpx:hr>88</gpxtpx:hr>
          </gpxtpx:TrackPointExtension>
        </extensions>
      </trkpt>
      <trkpt lat="42.44935" lon="0.05847">
        <ele>610.1</ele>
        <time>2012-11-12T12:35:22.000Z</time>
        <extensions>
          <gpxtpx:TrackPointExtension xmlns:gpxtpx="http://www.garmin.com/xmlschemas/TrackPointExtension/v1">
            <gpxtpx:hr>91</gpxtpx:hr>
          </gpxtpx:TrackPointExtension>
        </extensions>
      </trkpt>
      <trkpt lat="42.44933" lon="0.05852">
        <ele>610.1</ele>
        <time>2012-11-12T12:35:23.000Z</time>
        <extensions>
          <gpxtpx:TrackPointExtension xmlns:gpxtpx="http://www.garmin.com/xmlschemas/TrackPointExtension/v1">
            <gpxtpx:hr>92</gpxtpx:hr>
          </gpxtpx:TrackPointExtension>
        </extensions>
      </trkpt>
      <trkpt lat="42.4493" lon="0.05856">
        <ele>609.6</ele>
        <time>2012-11-12T12:35:24.000Z</time>
        <extensions>
          <gpxtpx:TrackPointExtension xmlns:gpxtpx="http://www.garmin.com/xmlschemas/TrackPointExtension/v1">
            <gpxtpx:hr>92</gpxtpx:hr>
          </gpxtpx:TrackPointExtension>
        </extensions>
      </trkpt>
      <trkpt lat="42.44909" lon="0.05889">
        <ele>609.1</ele>
        <time>2012-11-12T12:35:32.000Z</time>
        <extensions>
          <gpxtpx:TrackPointExtension xmlns:gpxtpx="http://www.garmin.com/xmlschemas/TrackPointExtension/v1">
            <gpxtpx:hr>94</gpxtpx:hr>
          </gpxtpx:TrackPointExtension>
        </extensions>
      </trkpt>
      <trkpt lat="42.44905" lon="0.05897">
        <ele>609.1</ele>
        <time>2012-11-12T12:35:34.000Z</time>
        <extensions>
          <gpxtpx:TrackPointExtension xmlns:gpxtpx="http://www.garmin.com/xmlschemas/TrackPointExtension/v1">
            <gpxtpx:hr>94</gpxtpx:hr>
          </gpxtpx:TrackPointExtension>
        </extensions>
      </trkpt>
      <trkpt lat="42.44902" lon="0.05901">
        <ele>609.1</ele>
        <time>2012-11-12T12:35:35.000Z</time>
        <extensions>
          <gpxtpx:TrackPointExtension xmlns:gpxtpx="http://www.garmin.com/xmlschemas/TrackPointExtension/v1">
            <gpxtpx:hr>94</gpxtpx:hr>
          </gpxtpx:TrackPointExtension>
        </extensions>
      </trkpt>
      <trkpt lat="42.449" lon="0.05906">
        <ele>609.1</ele>
        <time>2012-11-12T12:35:36.000Z</time>
        <extensions>
          <gpxtpx:TrackPointExtension xmlns:gpxtpx="http://www.garmin.com/xmlschemas/TrackPointExtension/v1">
            <gpxtpx:hr>94</gpxtpx:hr>
          </gpxtpx:TrackPointExtension>
        </extensions>
      </trkpt>
      <trkpt lat="42.44898" lon="0.0591">
        <ele>609.1</ele>
        <time>2012-11-12T12:35:37.000Z</time>
        <extensions>
          <gpxtpx:TrackPointExtension xmlns:gpxtpx="http://www.garmin.com/xmlschemas/TrackPointExtension/v1">
            <gpxtpx:hr>93</gpxtpx:hr>
          </gpxtpx:TrackPointExtension>
        </extensions>
      </trkpt>
      <trkpt lat="42.44895" lon="0.05914">
        <ele>609.1</ele>
        <time>2012-11-12T12:35:38.000Z</time>
        <extensions>
          <gpxtpx:TrackPointExtension xmlns:gpxtpx="http://www.garmin.com/xmlschemas/TrackPointExtension/v1">
            <gpxtpx:hr>93</gpxtpx:hr>
          </gpxtpx:TrackPointExtension>
        </extensions>
      </trkpt>
      <trkpt lat="42.44871" lon="0.05952">
        <ele>609.1</ele>
        <time>2012-11-12T12:35:47.000Z</time>
        <extensions>
          <gpxtpx:TrackPointExtension xmlns:gpxtpx="http://www.garmin.com/xmlschemas/TrackPointExtension/v1">
            <gpxtpx:hr>92</gpxtpx:hr>
          </gpxtpx:TrackPointExtension>
        </extensions>
      </trkpt>
      <trkpt lat="42.44847" lon="0.05992">
        <ele>608.7</ele>
        <time>2012-11-12T12:35:56.000Z</time>
        <extensions>
          <gpxtpx:TrackPointExtension xmlns:gpxtpx="http://www.garmin.com/xmlschemas/TrackPointExtension/v1">
            <gpxtpx:hr>90</gpxtpx:hr>
          </gpxtpx:TrackPointExtension>
        </extensions>
      </trkpt>
      <trkpt lat="42.4482" lon="0.06034">
        <ele>608.2</ele>
        <time>2012-11-12T12:36:06.000Z</time>
        <extensions>
          <gpxtpx:TrackPointExtension xmlns:gpxtpx="http://www.garmin.com/xmlschemas/TrackPointExtension/v1">
            <gpxtpx:hr>89</gpxtpx:hr>
          </gpxtpx:TrackPointExtension>
        </extensions>
      </trkpt>
      <trkpt lat="42.44795" lon="0.06075">
        <ele>608.2</ele>
        <time>2012-11-12T12:36:16.000Z</time>
        <extensions>
          <gpxtpx:TrackPointExtension xmlns:gpxtpx="http://www.garmin.com/xmlschemas/TrackPointExtension/v1">
            <gpxtpx:hr>90</gpxtpx:hr>
          </gpxtpx:TrackPointExtension>
        </extensions>
      </trkpt>
      <trkpt lat="42.44768" lon="0.06118">
        <ele>607.2</ele>
        <time>2012-11-12T12:36:26.000Z</time>
        <extensions>
          <gpxtpx:TrackPointExtension xmlns:gpxtpx="http://www.garmin.com/xmlschemas/TrackPointExtension/v1">
            <gpxtpx:hr>93</gpxtpx:hr>
          </gpxtpx:TrackPointExtension>
        </extensions>
      </trkpt>
      <trkpt lat="42.44739" lon="0.06163">
        <ele>606.2</ele>
        <time>2012-11-12T12:36:36.000Z</time>
        <extensions>
          <gpxtpx:TrackPointExtension xmlns:gpxtpx="http://www.garmin.com/xmlschemas/TrackPointExtension/v1">
            <gpxtpx:hr>90</gpxtpx:hr>
          </gpxtpx:TrackPointExtension>
        </extensions>
      </trkpt>
      <trkpt lat="42.44706" lon="0.06215">
        <ele>605.8</ele>
        <time>2012-11-12T12:36:47.000Z</time>
        <extensions>
          <gpxtpx:TrackPointExtension xmlns:gpxtpx="http://www.garmin.com/xmlschemas/TrackPointExtension/v1">
            <gpxtpx:hr>88</gpxtpx:hr>
          </gpxtpx:TrackPointExtension>
        </extensions>
      </trkpt>
      <trkpt lat="42.44675" lon="0.06264">
        <ele>604.3</ele>
        <time>2012-11-12T12:36:56.000Z</time>
        <extensions>
          <gpxtpx:TrackPointExtension xmlns:gpxtpx="http://www.garmin.com/xmlschemas/TrackPointExtension/v1">
            <gpxtpx:hr>87</gpxtpx:hr>
          </gpxtpx:TrackPointExtension>
        </extensions>
      </trkpt>
      <trkpt lat="42.44672" lon="0.06269">
        <ele>603.8</ele>
        <time>2012-11-12T12:36:57.000Z</time>
        <extensions>
          <gpxtpx:TrackPointExtension xmlns:gpxtpx="http://www.garmin.com/xmlschemas/TrackPointExtension/v1">
            <gpxtpx:hr>86</gpxtpx:hr>
          </gpxtpx:TrackPointExtension>
        </extensions>
      </trkpt>
      <trkpt lat="42.44641" lon="0.0632">
        <ele>602.4</ele>
        <time>2012-11-12T12:37:07.000Z</time>
        <extensions>
          <gpxtpx:TrackPointExtension xmlns:gpxtpx="http://www.garmin.com/xmlschemas/TrackPointExtension/v1">
            <gpxtpx:hr>86</gpxtpx:hr>
          </gpxtpx:TrackPointExtension>
        </extensions>
      </trkpt>
      <trkpt lat="42.44612" lon="0.06364">
        <ele>601.4</ele>
        <time>2012-11-12T12:37:16.000Z</time>
        <extensions>
          <gpxtpx:TrackPointExtension xmlns:gpxtpx="http://www.garmin.com/xmlschemas/TrackPointExtension/v1">
            <gpxtpx:hr>80</gpxtpx:hr>
          </gpxtpx:TrackPointExtension>
        </extensions>
      </trkpt>
      <trkpt lat="42.44579" lon="0.06416">
        <ele>600</ele>
        <time>2012-11-12T12:37:26.000Z</time>
        <extensions>
          <gpxtpx:TrackPointExtension xmlns:gpxtpx="http://www.garmin.com/xmlschemas/TrackPointExtension/v1">
            <gpxtpx:hr>84</gpxtpx:hr>
          </gpxtpx:TrackPointExtension>
        </extensions>
      </trkpt>
      <trkpt lat="42.44545" lon="0.06469">
        <ele>600</ele>
        <time>2012-11-12T12:37:36.000Z</time>
        <extensions>
          <gpxtpx:TrackPointExtension xmlns:gpxtpx="http://www.garmin.com/xmlschemas/TrackPointExtension/v1">
            <gpxtpx:hr>81</gpxtpx:hr>
          </gpxtpx:TrackPointExtension>
        </extensions>
      </trkpt>
      <trkpt lat="42.44516" lon="0.06515">
        <ele>600</ele>
        <time>2012-11-12T12:37:45.000Z</time>
        <extensions>
          <gpxtpx:TrackPointExtension xmlns:gpxtpx="http://www.garmin.com/xmlschemas/TrackPointExtension/v1">
            <gpxtpx:hr>80</gpxtpx:hr>
          </gpxtpx:TrackPointExtension>
        </extensions>
      </trkpt>
      <trkpt lat="42.44513" lon="0.06519">
        <ele>600</ele>
        <time>2012-11-12T12:37:46.000Z</time>
        <extensions>
          <gpxtpx:TrackPointExtension xmlns:gpxtpx="http://www.garmin.com/xmlschemas/TrackPointExtension/v1">
            <gpxtpx:hr>80</gpxtpx:hr>
          </gpxtpx:TrackPointExtension>
        </extensions>
      </trkpt>
      <trkpt lat="42.44482" lon="0.06564">
        <ele>600.5</ele>
        <time>2012-11-12T12:37:56.000Z</time>
        <extensions>
          <gpxtpx:TrackPointExtension xmlns:gpxtpx="http://www.garmin.com/xmlschemas/TrackPointExtension/v1">
            <gpxtpx:hr>88</gpxtpx:hr>
          </gpxtpx:TrackPointExtension>
        </extensions>
      </trkpt>
    </trkseg>
  </trk>
</gpx>